<?xml version='1.0' encoding='UTF-8'?><gpx version="1.1" creator="JPX - https://github.com/jenetics/jpx" xmlns="http://www.topografix.com/GPX/1/1"><trk><trkseg><trkpt lat="46.054440475687855" lon="11.49587969030227"><ele>358.0</ele><time>2026-04-11T08:02:47.03Z</time></trkpt><trkpt lat="46.05439620669109" lon="11.495956239137891"><ele>358.0</ele><time>2026-04-11T08:03:52Z</time></trkpt><trkpt lat="46.05438354860229" lon="11.495843256208818"><ele>358.0</ele><time>2026-04-11T08:05:28Z</time></trkpt><trkpt lat="46.05446982065689" lon="11.495854031396775"><ele>358.0</ele><time>2026-04-11T08:05:32Z</time></trkpt><trkpt lat="46.054424834660956" lon="11.495936715752071"><ele>358.0</ele><time>2026-04-11T08:05:35Z</time></trkpt><trkpt lat="46.0543368113928" lon="11.495984987792278"><ele>358.0</ele><time>2026-04-11T08:06:00.999Z</time></trkpt><trkpt lat="46.0542615915977" lon="11.495975460604278"><ele>358.0</ele><time>2026-04-11T08:06:01.999Z</time></trkpt><trkpt lat="46.054188336109455" lon="11.495956260595824"><ele>358.0</ele><time>2026-04-11T08:06:03.999Z</time></trkpt><trkpt lat="46.05411367242707" lon="11.495936608894489"><ele>358.0</ele><time>2026-04-11T08:06:15.999Z</time></trkpt><trkpt lat="46.05401175836607" lon="11.495949667643767"><ele>358.0</ele><time>2026-04-11T08:06:17.999Z</time></trkpt><trkpt lat="46.053933297367635" lon="11.495948101607876"><ele>358.0</ele><time>2026-04-11T08:06:18.999Z</time></trkpt><trkpt lat="46.05384262095698" lon="11.495922493721089"><ele>358.0</ele><time>2026-04-11T08:06:19.999Z</time></trkpt><trkpt lat="46.05375725167509" lon="11.495889025190376"><ele>357.5</ele><time>2026-04-11T08:06:20.999Z</time></trkpt><trkpt lat="46.05368238032563" lon="11.495866021232011"><ele>357.0</ele><time>2026-04-11T08:06:21.999Z</time></trkpt><trkpt lat="46.0536175493854" lon="11.495856959268943"><ele>356.5</ele><time>2026-04-11T08:06:22.999Z</time></trkpt><trkpt lat="46.05355072619356" lon="11.495851320703041"><ele>356.0</ele><time>2026-04-11T08:06:23.999Z</time></trkpt><trkpt lat="46.05347945772378" lon="11.495838293112554"><ele>355.5</ele><time>2026-04-11T08:06:24.999Z</time></trkpt><trkpt lat="46.053393498418856" lon="11.4957775747287"><ele>355.0</ele><time>2026-04-11T08:06:25.999Z</time></trkpt><trkpt lat="46.05330500239958" lon="11.49576574330596"><ele>354.75</ele><time>2026-04-11T08:06:26.999Z</time></trkpt><trkpt lat="46.053193167856925" lon="11.495754361129212"><ele>354.5</ele><time>2026-04-11T08:06:28.999Z</time></trkpt><trkpt lat="46.05317905194707" lon="11.495567547042924"><ele>354.25</ele><time>2026-04-11T08:06:30.999Z</time></trkpt><trkpt lat="46.05319391325487" lon="11.495421368461262"><ele>354.0</ele><time>2026-04-11T08:06:31.999Z</time></trkpt><trkpt lat="46.0531984937207" lon="11.495270256168437"><ele>354.0</ele><time>2026-04-11T08:06:32.999Z</time></trkpt><trkpt lat="46.05321504772773" lon="11.495095147001964"><ele>354.0</ele><time>2026-04-11T08:06:33.999Z</time></trkpt><trkpt lat="46.053223261918106" lon="11.495004082285982"><ele>354.0</ele><time>2026-04-11T08:06:34.999Z</time></trkpt><trkpt lat="46.05336309932026" lon="11.495008985805319"><ele>354.0</ele><time>2026-04-11T08:06:39.999Z</time></trkpt><trkpt lat="46.053478235386244" lon="11.495033136400611"><ele>354.0</ele><time>2026-04-11T08:06:40.999Z</time></trkpt><trkpt lat="46.053597385889795" lon="11.495063614512247"><ele>354.5</ele><time>2026-04-11T08:06:41.999Z</time></trkpt><trkpt lat="46.05372197040119" lon="11.495086693434837"><ele>355.0</ele><time>2026-04-11T08:06:42.999Z</time></trkpt><trkpt lat="46.05383535208218" lon="11.495110504993292"><ele>355.5</ele><time>2026-04-11T08:06:43.999Z</time></trkpt><trkpt lat="46.0539292954856" lon="11.495099231652812"><ele>356.0</ele><time>2026-04-11T08:06:44.999Z</time></trkpt><trkpt lat="46.05403985912761" lon="11.49515116951158"><ele>356.5</ele><time>2026-04-11T08:06:45.999Z</time></trkpt><trkpt lat="46.05415858182318" lon="11.495177458692115"><ele>357.0</ele><time>2026-04-11T08:06:46.999Z</time></trkpt><trkpt lat="46.05426806819505" lon="11.495201373996961"><ele>357.5</ele><time>2026-04-11T08:06:47.999Z</time></trkpt><trkpt lat="46.054391169619514" lon="11.49521804878184"><ele>358.0</ele><time>2026-04-11T08:06:48.999Z</time></trkpt><trkpt lat="46.05449964768191" lon="11.495248302248317"><ele>358.0</ele><time>2026-04-11T08:06:49.999Z</time></trkpt><trkpt lat="46.0545837801117" lon="11.495270907981995"><ele>358.0</ele><time>2026-04-11T08:06:50.999Z</time></trkpt><trkpt lat="46.05466250105278" lon="11.495281308952242"><ele>358.0</ele><time>2026-04-11T08:06:51.999Z</time></trkpt><trkpt lat="46.05473618449886" lon="11.495292360556805"><ele>358.0</ele><time>2026-04-11T08:06:52.999Z</time></trkpt><trkpt lat="46.054805728203675" lon="11.495299762941743"><ele>358.0</ele><time>2026-04-11T08:06:53.999Z</time></trkpt><trkpt lat="46.05488208707231" lon="11.49534830525945"><ele>358.0</ele><time>2026-04-11T08:06:54.999Z</time></trkpt><trkpt lat="46.054950399894445" lon="11.495398594937555"><ele>358.4</ele><time>2026-04-11T08:06:55.999Z</time></trkpt><trkpt lat="46.055063728362875" lon="11.49551062339673"><ele>358.79999999999995</ele><time>2026-04-11T08:06:56.999Z</time></trkpt><trkpt lat="46.055151167884574" lon="11.495576644435243"><ele>359.2</ele><time>2026-04-11T08:06:57.999Z</time></trkpt><trkpt lat="46.0552031436309" lon="11.495649353350709"><ele>359.6</ele><time>2026-04-11T08:06:58.999Z</time></trkpt><trkpt lat="46.055304985907945" lon="11.49573970344187"><ele>360.0</ele><time>2026-04-11T08:06:59.999Z</time></trkpt><trkpt lat="46.05541957164737" lon="11.495872550971152"><ele>360.0</ele><time>2026-04-11T08:07:01Z</time></trkpt><trkpt lat="46.055529086106766" lon="11.49601529744812"><ele>360.0</ele><time>2026-04-11T08:07:02Z</time></trkpt><trkpt lat="46.055666518838684" lon="11.496175676686402"><ele>360.0</ele><time>2026-04-11T08:07:03Z</time></trkpt><trkpt lat="46.05582814883371" lon="11.496298181018433"><ele>359.3333333333333</ele><time>2026-04-11T08:07:04Z</time></trkpt><trkpt lat="46.05602047296267" lon="11.496381488355981"><ele>358.66666666666663</ele><time>2026-04-11T08:07:05Z</time></trkpt><trkpt lat="46.05621405526031" lon="11.496429285998966"><ele>358.0</ele><time>2026-04-11T08:07:06Z</time></trkpt><trkpt lat="46.05641700611556" lon="11.496456557262242"><ele>358.0</ele><time>2026-04-11T08:07:07Z</time></trkpt><trkpt lat="46.05661502776735" lon="11.496481724862571"><ele>358.0</ele><time>2026-04-11T08:07:08Z</time></trkpt><trkpt lat="46.056807805743624" lon="11.49650865862394"><ele>358.0</ele><time>2026-04-11T08:07:09Z</time></trkpt><trkpt lat="46.05699510576498" lon="11.496530164703497"><ele>360.0</ele><time>2026-04-11T08:07:10Z</time></trkpt><trkpt lat="46.05718291625899" lon="11.496547344282407"><ele>362.0</ele><time>2026-04-11T08:07:11Z</time></trkpt><trkpt lat="46.05737976121654" lon="11.49656626164473"><ele>364.0</ele><time>2026-04-11T08:07:12Z</time></trkpt><trkpt lat="46.057579216138926" lon="11.496584524465568"><ele>365.66666666666663</ele><time>2026-04-11T08:07:13Z</time></trkpt><trkpt lat="46.057768868625324" lon="11.496586215760761"><ele>367.3333333333333</ele><time>2026-04-11T08:07:14Z</time></trkpt><trkpt lat="46.05795543908719" lon="11.496605189732543"><ele>369.0</ele><time>2026-04-11T08:07:15Z</time></trkpt><trkpt lat="46.05814109825784" lon="11.496627650676672"><ele>369.3333333333333</ele><time>2026-04-11T08:07:16Z</time></trkpt><trkpt lat="46.058323093189706" lon="11.496652195673011"><ele>369.66666666666663</ele><time>2026-04-11T08:07:17Z</time></trkpt><trkpt lat="46.05850213332807" lon="11.49669003835655"><ele>370.0</ele><time>2026-04-11T08:07:18Z</time></trkpt><trkpt lat="46.058684394276135" lon="11.496763336708245"><ele>370.0</ele><time>2026-04-11T08:07:19Z</time></trkpt><trkpt lat="46.058868714965335" lon="11.496864277524953"><ele>370.0</ele><time>2026-04-11T08:07:20Z</time></trkpt><trkpt lat="46.059052117617476" lon="11.49698036067432"><ele>370.0</ele><time>2026-04-11T08:07:21Z</time></trkpt><trkpt lat="46.059232705472624" lon="11.497101139420323"><ele>370.66666666666663</ele><time>2026-04-11T08:07:22Z</time></trkpt><trkpt lat="46.05942306652683" lon="11.497224187861228"><ele>371.3333333333333</ele><time>2026-04-11T08:07:23Z</time></trkpt><trkpt lat="46.05960209978348" lon="11.49733977857699"><ele>372.0</ele><time>2026-04-11T08:07:24Z</time></trkpt><trkpt lat="46.05975325126153" lon="11.49743249862817"><ele>372.0</ele><time>2026-04-11T08:07:25Z</time></trkpt><trkpt lat="46.05989358850105" lon="11.497522548501333"><ele>372.0</ele><time>2026-04-11T08:07:26Z</time></trkpt><trkpt lat="46.060023090522584" lon="11.49760214148656"><ele>372.0</ele><time>2026-04-11T08:07:27Z</time></trkpt><trkpt lat="46.06014639760664" lon="11.497669064627416"><ele>372.0</ele><time>2026-04-11T08:07:28Z</time></trkpt><trkpt lat="46.06025004921132" lon="11.497749187928193"><ele>372.6</ele><time>2026-04-11T08:07:29Z</time></trkpt><trkpt lat="46.060334346159095" lon="11.497819597092798"><ele>373.20000000000005</ele><time>2026-04-11T08:07:30Z</time></trkpt><trkpt lat="46.06038808635745" lon="11.497898346659662"><ele>373.8</ele><time>2026-04-11T08:07:31Z</time></trkpt><trkpt lat="46.06044596195474" lon="11.497956719917001"><ele>374.4</ele><time>2026-04-11T08:07:33Z</time></trkpt><trkpt lat="46.060548361226246" lon="11.497795271408302"><ele>375.0</ele><time>2026-04-11T08:07:34Z</time></trkpt><trkpt lat="46.06053259829236" lon="11.497667325845791"><ele>375.0</ele><time>2026-04-11T08:07:35Z</time></trkpt><trkpt lat="46.060517880271966" lon="11.497501341192246"><ele>375.0</ele><time>2026-04-11T08:07:36Z</time></trkpt><trkpt lat="46.060504167514246" lon="11.497298996943629"><ele>375.0</ele><time>2026-04-11T08:07:37Z</time></trkpt><trkpt lat="46.06049541586695" lon="11.497062466278535"><ele>375.0</ele><time>2026-04-11T08:07:38Z</time></trkpt><trkpt lat="46.06045900029783" lon="11.496844906214765"><ele>375.0</ele><time>2026-04-11T08:07:39Z</time></trkpt><trkpt lat="46.060382097115706" lon="11.496672686701435"><ele>375.0</ele><time>2026-04-11T08:07:40Z</time></trkpt><trkpt lat="46.06028472490908" lon="11.496508774203457"><ele>375.0</ele><time>2026-04-11T08:07:41Z</time></trkpt><trkpt lat="46.06018275024187" lon="11.496358797952956"><ele>375.0</ele><time>2026-04-11T08:07:42Z</time></trkpt><trkpt lat="46.060079372569426" lon="11.496214198229959"><ele>374.75</ele><time>2026-04-11T08:07:43Z</time></trkpt><trkpt lat="46.05997501888982" lon="11.496074079958612"><ele>374.5</ele><time>2026-04-11T08:07:44Z</time></trkpt><trkpt lat="46.05987287682144" lon="11.495935613723047"><ele>374.25</ele><time>2026-04-11T08:07:45Z</time></trkpt><trkpt lat="46.05976778426911" lon="11.495824515345188"><ele>374.0</ele><time>2026-04-11T08:07:46Z</time></trkpt><trkpt lat="46.059681533888266" lon="11.495704477434193"><ele>374.0</ele><time>2026-04-11T08:07:47Z</time></trkpt><trkpt lat="46.05960498451071" lon="11.495636650149981"><ele>374.0</ele><time>2026-04-11T08:07:48Z</time></trkpt><trkpt lat="46.059548426145895" lon="11.495531160042091"><ele>374.0</ele><time>2026-04-11T08:07:49Z</time></trkpt><trkpt lat="46.059556131163504" lon="11.495421596697941"><ele>374.0</ele><time>2026-04-11T08:07:50Z</time></trkpt><trkpt lat="46.059622714200536" lon="11.49535810037514"><ele>374.0</ele><time>2026-04-11T08:07:51Z</time></trkpt><trkpt lat="46.05971426713664" lon="11.495340196236603"><ele>374.0</ele><time>2026-04-11T08:07:52Z</time></trkpt><trkpt lat="46.0598319000157" lon="11.49535865888205"><ele>375.5</ele><time>2026-04-11T08:07:53Z</time></trkpt><trkpt lat="46.05993530825964" lon="11.495326121165478"><ele>377.0</ele><time>2026-04-11T08:07:54Z</time></trkpt><trkpt lat="46.05998873631579" lon="11.495261796596868"><ele>378.5</ele><time>2026-04-11T08:07:56Z</time></trkpt><trkpt lat="46.05992279274944" lon="11.495162903816954"><ele>380.0</ele><time>2026-04-11T08:07:57Z</time></trkpt><trkpt lat="46.05985066273287" lon="11.49513862187141"><ele>381.5</ele><time>2026-04-11T08:07:58Z</time></trkpt><trkpt lat="46.05975291472553" lon="11.495186268759632"><ele>383.0</ele><time>2026-04-11T08:07:59Z</time></trkpt><trkpt lat="46.05958476324224" lon="11.495188670698964"><ele>383.0</ele><time>2026-04-11T08:08:00Z</time></trkpt><trkpt lat="46.05940957848731" lon="11.49521581415338"><ele>383.0</ele><time>2026-04-11T08:08:01Z</time></trkpt><trkpt lat="46.05928117148524" lon="11.495206951335433"><ele>383.0</ele><time>2026-04-11T08:08:02Z</time></trkpt><trkpt lat="46.05919917394788" lon="11.495171229014044"><ele>383.0</ele><time>2026-04-11T08:08:03Z</time></trkpt><trkpt lat="46.05910222922176" lon="11.495108374231796"><ele>382.75</ele><time>2026-04-11T08:08:04Z</time></trkpt><trkpt lat="46.059054239294525" lon="11.494965766279424"><ele>382.5</ele><time>2026-04-11T08:08:05Z</time></trkpt><trkpt lat="46.05901986428678" lon="11.49477711467455"><ele>382.25</ele><time>2026-04-11T08:08:06Z</time></trkpt><trkpt lat="46.05898528022413" lon="11.494574999730494"><ele>382.0</ele><time>2026-04-11T08:08:07Z</time></trkpt><trkpt lat="46.05895236267248" lon="11.49436680648395"><ele>382.0</ele><time>2026-04-11T08:08:08Z</time></trkpt><trkpt lat="46.058900644916186" lon="11.494173482166703"><ele>382.0</ele><time>2026-04-11T08:08:08.999Z</time></trkpt><trkpt lat="46.05884928952225" lon="11.493978509140375"><ele>382.0</ele><time>2026-04-11T08:08:09.999Z</time></trkpt><trkpt lat="46.05880943992434" lon="11.493781382366071"><ele>382.0</ele><time>2026-04-11T08:08:10.999Z</time></trkpt><trkpt lat="46.058771332446064" lon="11.493577533658051"><ele>383.0</ele><time>2026-04-11T08:08:11.999Z</time></trkpt><trkpt lat="46.058723480083856" lon="11.493370123064786"><ele>384.0</ele><time>2026-04-11T08:08:12.999Z</time></trkpt><trkpt lat="46.05868008915044" lon="11.493150802936732"><ele>385.0</ele><time>2026-04-11T08:08:13.999Z</time></trkpt><trkpt lat="46.058620646125824" lon="11.49294779479335"><ele>385.75</ele><time>2026-04-11T08:08:14.999Z</time></trkpt><trkpt lat="46.0585794057935" lon="11.492746446532012"><ele>386.5</ele><time>2026-04-11T08:08:15.999Z</time></trkpt><trkpt lat="46.05854088525225" lon="11.492538451900172"><ele>387.25</ele><time>2026-04-11T08:08:16.999Z</time></trkpt><trkpt lat="46.05850667972071" lon="11.49232790037388"><ele>388.0</ele><time>2026-04-11T08:08:17.999Z</time></trkpt><trkpt lat="46.05847370814256" lon="11.492109350108777"><ele>388.6666666666667</ele><time>2026-04-11T08:08:18.999Z</time></trkpt><trkpt lat="46.058444256639916" lon="11.49186767517686"><ele>389.33333333333337</ele><time>2026-04-11T08:08:19.999Z</time></trkpt><trkpt lat="46.058399671452456" lon="11.49165215541092"><ele>390.0</ele><time>2026-04-11T08:08:20.999Z</time></trkpt><trkpt lat="46.058364365259415" lon="11.491429044775934"><ele>390.0</ele><time>2026-04-11T08:08:21.999Z</time></trkpt><trkpt lat="46.058309157357854" lon="11.491263915380836"><ele>390.0</ele><time>2026-04-11T08:08:22.999Z</time></trkpt><trkpt lat="46.058264794685165" lon="11.491157211892965"><ele>390.0</ele><time>2026-04-11T08:08:23.999Z</time></trkpt><trkpt lat="46.05824058622177" lon="11.491051338255106"><ele>390.0</ele><time>2026-04-11T08:08:26.999Z</time></trkpt><trkpt lat="46.05839380863291" lon="11.490919887089918"><ele>390.66666666666663</ele><time>2026-04-11T08:08:28.999Z</time></trkpt><trkpt lat="46.05850036130407" lon="11.490811675420684"><ele>391.3333333333333</ele><time>2026-04-11T08:08:29.999Z</time></trkpt><trkpt lat="46.05862991750414" lon="11.490714784094804"><ele>392.0</ele><time>2026-04-11T08:08:30.999Z</time></trkpt><trkpt lat="46.058823212320654" lon="11.490651676776253"><ele>392.0</ele><time>2026-04-11T08:08:31.999Z</time></trkpt><trkpt lat="46.05903129118314" lon="11.490599716107761"><ele>392.0</ele><time>2026-04-11T08:08:32.999Z</time></trkpt><trkpt lat="46.05925819851801" lon="11.49055782001273"><ele>392.0</ele><time>2026-04-11T08:08:33.999Z</time></trkpt><trkpt lat="46.05947006360963" lon="11.490513319233099"><ele>393.66666666666663</ele><time>2026-04-11T08:08:34.999Z</time></trkpt><trkpt lat="46.05968970639299" lon="11.490467720059083"><ele>395.33333333333337</ele><time>2026-04-11T08:08:35.999Z</time></trkpt><trkpt lat="46.059890183463686" lon="11.490429957516742"><ele>397.0</ele><time>2026-04-11T08:08:36.999Z</time></trkpt><trkpt lat="46.060089796844615" lon="11.490400169944378"><ele>399.6666666666667</ele><time>2026-04-11T08:08:37.999Z</time></trkpt><trkpt lat="46.060290155227904" lon="11.490365963906688"><ele>402.33333333333337</ele><time>2026-04-11T08:08:38.999Z</time></trkpt><trkpt lat="46.06049887986339" lon="11.490337044114908"><ele>405.0</ele><time>2026-04-11T08:08:39.999Z</time></trkpt><trkpt lat="46.060695035953636" lon="11.490295784475599"><ele>406.66666666666663</ele><time>2026-04-11T08:08:40.999Z</time></trkpt><trkpt lat="46.060888427358854" lon="11.490255124229602"><ele>408.3333333333333</ele><time>2026-04-11T08:08:41.999Z</time></trkpt><trkpt lat="46.061080838629024" lon="11.490224777267764"><ele>410.0</ele><time>2026-04-11T08:08:42.999Z</time></trkpt><trkpt lat="46.061270800538836" lon="11.49019160643013"><ele>410.0</ele><time>2026-04-11T08:08:43.999Z</time></trkpt><trkpt lat="46.061459468428154" lon="11.490141849464365"><ele>410.0</ele><time>2026-04-11T08:08:44.999Z</time></trkpt><trkpt lat="46.061635175709135" lon="11.490046845541077"><ele>410.0</ele><time>2026-04-11T08:08:45.999Z</time></trkpt><trkpt lat="46.06179643523096" lon="11.489899702361432"><ele>413.0</ele><time>2026-04-11T08:08:46.999Z</time></trkpt><trkpt lat="46.061942984477895" lon="11.489711361867702"><ele>416.0</ele><time>2026-04-11T08:08:47.999Z</time></trkpt><trkpt lat="46.06206759839823" lon="11.489480971518883"><ele>419.0</ele><time>2026-04-11T08:08:48.999Z</time></trkpt><trkpt lat="46.06218123606216" lon="11.489244541517344"><ele>420.0</ele><time>2026-04-11T08:08:49.999Z</time></trkpt><trkpt lat="46.062286953935434" lon="11.489005180813594"><ele>421.0</ele><time>2026-04-11T08:08:50.999Z</time></trkpt><trkpt lat="46.06241419440393" lon="11.48877580492203"><ele>422.0</ele><time>2026-04-11T08:08:51.999Z</time></trkpt><trkpt lat="46.06253676858591" lon="11.488546184754886"><ele>424.66666666666663</ele><time>2026-04-11T08:08:52.999Z</time></trkpt><trkpt lat="46.06265737003101" lon="11.488313974865203"><ele>427.33333333333337</ele><time>2026-04-11T08:08:53.999Z</time></trkpt><trkpt lat="46.062778826405996" lon="11.488085269393249"><ele>430.0</ele><time>2026-04-11T08:08:54.999Z</time></trkpt><trkpt lat="46.06289562318916" lon="11.487853640178818"><ele>430.0</ele><time>2026-04-11T08:08:55.999Z</time></trkpt><trkpt lat="46.06301032923051" lon="11.487625442278635"><ele>430.0</ele><time>2026-04-11T08:08:56.999Z</time></trkpt><trkpt lat="46.063127803150905" lon="11.487404449856683"><ele>430.0</ele><time>2026-04-11T08:08:57.999Z</time></trkpt><trkpt lat="46.06324915711416" lon="11.487175944312728"><ele>433.6666666666667</ele><time>2026-04-11T08:08:58.999Z</time></trkpt><trkpt lat="46.06336727797424" lon="11.486946997647083"><ele>437.33333333333337</ele><time>2026-04-11T08:08:59.999Z</time></trkpt><trkpt lat="46.06347633108357" lon="11.486734798807932"><ele>441.0</ele><time>2026-04-11T08:09:00.999Z</time></trkpt><trkpt lat="46.063593336661135" lon="11.486506118766682"><ele>441.0</ele><time>2026-04-11T08:09:01.999Z</time></trkpt><trkpt lat="46.063684778156684" lon="11.48631762370843"><ele>441.0</ele><time>2026-04-11T08:09:02.999Z</time></trkpt><trkpt lat="46.06380668646706" lon="11.48607688493384"><ele>441.0</ele><time>2026-04-11T08:09:03.999Z</time></trkpt><trkpt lat="46.063938607022244" lon="11.485838043777935"><ele>441.66666666666663</ele><time>2026-04-11T08:09:04.999Z</time></trkpt><trkpt lat="46.064050793793406" lon="11.485614142804131"><ele>442.3333333333333</ele><time>2026-04-11T08:09:05.999Z</time></trkpt><trkpt lat="46.06421402158178" lon="11.48540999045556"><ele>443.0</ele><time>2026-04-11T08:09:07Z</time></trkpt><trkpt lat="46.06437138618729" lon="11.485207719954369"><ele>447.0</ele><time>2026-04-11T08:09:08Z</time></trkpt><trkpt lat="46.064550064117476" lon="11.485018954784328"><ele>451.0</ele><time>2026-04-11T08:09:09Z</time></trkpt><trkpt lat="46.06471850662502" lon="11.484850813891304"><ele>455.0</ele><time>2026-04-11T08:09:10Z</time></trkpt><trkpt lat="46.06488122937647" lon="11.484694566243048"><ele>459.3333333333333</ele><time>2026-04-11T08:09:11Z</time></trkpt><trkpt lat="46.06501885762987" lon="11.48450830689343"><ele>463.66666666666663</ele><time>2026-04-11T08:09:12Z</time></trkpt><trkpt lat="46.06518439950291" lon="11.48434062162268"><ele>468.0</ele><time>2026-04-11T08:09:13Z</time></trkpt><trkpt lat="46.065348138231734" lon="11.484173968045152"><ele>468.0</ele><time>2026-04-11T08:09:14Z</time></trkpt><trkpt lat="46.06550744278482" lon="11.484001980976398"><ele>468.0</ele><time>2026-04-11T08:09:15Z</time></trkpt><trkpt lat="46.06566717667102" lon="11.483829217935465"><ele>468.0</ele><time>2026-04-11T08:09:16Z</time></trkpt><trkpt lat="46.06582667116059" lon="11.483655858845871"><ele>471.0</ele><time>2026-04-11T08:09:17Z</time></trkpt><trkpt lat="46.06598782434256" lon="11.483481147859374"><ele>474.0</ele><time>2026-04-11T08:09:18Z</time></trkpt><trkpt lat="46.066147548501775" lon="11.483311440208983"><ele>477.0</ele><time>2026-04-11T08:09:19Z</time></trkpt><trkpt lat="46.06630691370451" lon="11.483138944612143"><ele>477.0</ele><time>2026-04-11T08:09:20Z</time></trkpt><trkpt lat="46.06647981183705" lon="11.48296113781222"><ele>477.0</ele><time>2026-04-11T08:09:21Z</time></trkpt><trkpt lat="46.06666752918581" lon="11.482791518005628"><ele>477.0</ele><time>2026-04-11T08:09:22Z</time></trkpt><trkpt lat="46.06685745680131" lon="11.482617249681333"><ele>480.33333333333337</ele><time>2026-04-11T08:09:23Z</time></trkpt><trkpt lat="46.06705878440781" lon="11.48243628139483"><ele>483.6666666666667</ele><time>2026-04-11T08:09:24Z</time></trkpt><trkpt lat="46.067227947796425" lon="11.482252078735954"><ele>487.0</ele><time>2026-04-11T08:09:25Z</time></trkpt><trkpt lat="46.06738994753817" lon="11.48211059250717"><ele>489.25</ele><time>2026-04-11T08:09:26Z</time></trkpt><trkpt lat="46.06753569503716" lon="11.4820356716527"><ele>491.5</ele><time>2026-04-11T08:09:27Z</time></trkpt><trkpt lat="46.067634688392424" lon="11.481948182019972"><ele>493.75</ele><time>2026-04-11T08:09:28Z</time></trkpt><trkpt lat="46.067710346339965" lon="11.481940475325356"><ele>496.0</ele><time>2026-04-11T08:09:29Z</time></trkpt><trkpt lat="46.06782797575186" lon="11.481947950604198"><ele>496.0</ele><time>2026-04-11T08:09:31Z</time></trkpt><trkpt lat="46.06789407222446" lon="11.481909377524346"><ele>496.0</ele><time>2026-04-11T08:09:32Z</time></trkpt><trkpt lat="46.06791056859592" lon="11.481781059656"><ele>496.0</ele><time>2026-04-11T08:09:33Z</time></trkpt><trkpt lat="46.067966453948124" lon="11.48168724848421"><ele>496.0</ele><time>2026-04-11T08:09:34Z</time></trkpt><trkpt lat="46.0680123993723" lon="11.48150758676746"><ele>496.0</ele><time>2026-04-11T08:09:35Z</time></trkpt><trkpt lat="46.06809599055513" lon="11.4813995194938"><ele>496.0</ele><time>2026-04-11T08:09:36Z</time></trkpt><trkpt lat="46.068227826451825" lon="11.481289015014"><ele>496.0</ele><time>2026-04-11T08:09:37Z</time></trkpt><trkpt lat="46.06836525447552" lon="11.481162310412346"><ele>496.0</ele><time>2026-04-11T08:09:38Z</time></trkpt><trkpt lat="46.06853085813823" lon="11.481081058879687"><ele>501.0</ele><time>2026-04-11T08:09:39Z</time></trkpt><trkpt lat="46.06867585090863" lon="11.480971903410278"><ele>506.0</ele><time>2026-04-11T08:09:40Z</time></trkpt><trkpt lat="46.068810386300406" lon="11.480879282346823"><ele>511.0</ele><time>2026-04-11T08:09:41Z</time></trkpt><trkpt lat="46.068939937662144" lon="11.480790596529888"><ele>511.0</ele><time>2026-04-11T08:09:42Z</time></trkpt><trkpt lat="46.06906432104742" lon="11.480701978765822"><ele>511.0</ele><time>2026-04-11T08:09:43Z</time></trkpt><trkpt lat="46.069193279965674" lon="11.480615114612084"><ele>511.0</ele><time>2026-04-11T08:09:44Z</time></trkpt><trkpt lat="46.06932191270447" lon="11.480537743908139"><ele>511.0</ele><time>2026-04-11T08:09:45Z</time></trkpt><trkpt lat="46.06946502746056" lon="11.480510854051655"><ele>514.0</ele><time>2026-04-11T08:09:46Z</time></trkpt><trkpt lat="46.06962091726786" lon="11.480462435031063"><ele>517.0</ele><time>2026-04-11T08:09:47Z</time></trkpt><trkpt lat="46.069781723617226" lon="11.480410659534334"><ele>520.0</ele><time>2026-04-11T08:09:48Z</time></trkpt><trkpt lat="46.06991405206722" lon="11.480365048236873"><ele>522.2</ele><time>2026-04-11T08:09:49Z</time></trkpt><trkpt lat="46.07002199708634" lon="11.480324191380925"><ele>524.4</ele><time>2026-04-11T08:09:50Z</time></trkpt><trkpt lat="46.07008567631249" lon="11.480288853966062"><ele>526.6</ele><time>2026-04-11T08:09:51Z</time></trkpt><trkpt lat="46.070146892614154" lon="11.480234167066348"><ele>528.8</ele><time>2026-04-11T08:09:52Z</time></trkpt><trkpt lat="46.07016556894475" lon="11.480089810043808"><ele>531.0</ele><time>2026-04-11T08:09:53Z</time></trkpt><trkpt lat="46.07016248405813" lon="11.479940626431985"><ele>531.0</ele><time>2026-04-11T08:09:54Z</time></trkpt><trkpt lat="46.070153205147726" lon="11.479798535502647"><ele>531.0</ele><time>2026-04-11T08:09:55Z</time></trkpt><trkpt lat="46.07014358551674" lon="11.479673709741443"><ele>531.0</ele><time>2026-04-11T08:09:56Z</time></trkpt><trkpt lat="46.07011913317941" lon="11.479531657712334"><ele>531.0</ele><time>2026-04-11T08:09:57Z</time></trkpt><trkpt lat="46.070112815783325" lon="11.47940737781456"><ele>531.0</ele><time>2026-04-11T08:09:58Z</time></trkpt><trkpt lat="46.070113849646006" lon="11.479285162235836"><ele>532.1666666666666</ele><time>2026-04-11T08:09:59Z</time></trkpt><trkpt lat="46.07010567438803" lon="11.479131243099024"><ele>533.3333333333334</ele><time>2026-04-11T08:10:01Z</time></trkpt><trkpt lat="46.070102233561855" lon="11.479035895987902"><ele>534.5</ele><time>2026-04-11T08:10:04Z</time></trkpt><trkpt lat="46.070154590376696" lon="11.478922982357043"><ele>535.6666666666667</ele><time>2026-04-11T08:10:06Z</time></trkpt><trkpt lat="46.07017821413116" lon="11.4788044920013"><ele>536.8333333333334</ele><time>2026-04-11T08:10:07Z</time></trkpt><trkpt lat="46.070205327498925" lon="11.478710114385196"><ele>538.0</ele><time>2026-04-11T08:10:08Z</time></trkpt><trkpt lat="46.07027913760549" lon="11.478636601965343"><ele>538.0</ele><time>2026-04-11T08:10:10Z</time></trkpt><trkpt lat="46.070398852816126" lon="11.478661935434435"><ele>538.0</ele><time>2026-04-11T08:10:12Z</time></trkpt><trkpt lat="46.07049650159086" lon="11.478697260506472"><ele>538.0</ele><time>2026-04-11T08:10:13Z</time></trkpt><trkpt lat="46.070574277976185" lon="11.478713256798978"><ele>538.0</ele><time>2026-04-11T08:10:14Z</time></trkpt><trkpt lat="46.07065243928662" lon="11.478702333617225"><ele>538.0</ele><time>2026-04-11T08:10:14.999Z</time></trkpt><trkpt lat="46.070738336707336" lon="11.478597856621539"><ele>538.0</ele><time>2026-04-11T08:10:16.999Z</time></trkpt><trkpt lat="46.070708936283005" lon="11.478451622670084"><ele>538.0</ele><time>2026-04-11T08:10:17.999Z</time></trkpt><trkpt lat="46.07066350522781" lon="11.478342839828894"><ele>538.0</ele><time>2026-04-11T08:10:18.999Z</time></trkpt><trkpt lat="46.070644241006946" lon="11.478224938322382"><ele>538.0</ele><time>2026-04-11T08:10:19.999Z</time></trkpt><trkpt lat="46.07061759797096" lon="11.478138662623953"><ele>538.0</ele><time>2026-04-11T08:10:20.999Z</time></trkpt><trkpt lat="46.0706063962393" lon="11.478011738711052"><ele>538.0</ele><time>2026-04-11T08:10:22.999Z</time></trkpt><trkpt lat="46.0707005597648" lon="11.477999743874099"><ele>540.75</ele><time>2026-04-11T08:10:23.999Z</time></trkpt><trkpt lat="46.070782198024204" lon="11.477907552550445"><ele>543.5</ele><time>2026-04-11T08:10:24.999Z</time></trkpt><trkpt lat="46.07086142784094" lon="11.477801674757526"><ele>546.25</ele><time>2026-04-11T08:10:25.999Z</time></trkpt><trkpt lat="46.07097343852494" lon="11.477591409458068"><ele>549.0</ele><time>2026-04-11T08:10:26.999Z</time></trkpt><trkpt lat="46.07108778080164" lon="11.47733899813347"><ele>549.0</ele><time>2026-04-11T08:10:27.999Z</time></trkpt><trkpt lat="46.07115352831497" lon="11.477216431577405"><ele>549.0</ele><time>2026-04-11T08:10:28.999Z</time></trkpt><trkpt lat="46.07119777099056" lon="11.477132273130804"><ele>549.0</ele><time>2026-04-11T08:10:29.999Z</time></trkpt><trkpt lat="46.07121971766095" lon="11.477023239623032"><ele>549.0</ele><time>2026-04-11T08:10:30.999Z</time></trkpt><trkpt lat="46.07129321844653" lon="11.476923186314684"><ele>549.0</ele><time>2026-04-11T08:10:31.999Z</time></trkpt><trkpt lat="46.07137379365651" lon="11.476822659777454"><ele>548.4</ele><time>2026-04-11T08:10:32.999Z</time></trkpt><trkpt lat="46.07146318106705" lon="11.47670302018063"><ele>547.8</ele><time>2026-04-11T08:10:33.999Z</time></trkpt><trkpt lat="46.07154374200094" lon="11.476595753883224"><ele>547.2</ele><time>2026-04-11T08:10:34.999Z</time></trkpt><trkpt lat="46.07160128550698" lon="11.47653306262383"><ele>546.6</ele><time>2026-04-11T08:10:35.999Z</time></trkpt><trkpt lat="46.07166363738939" lon="11.476477542600755"><ele>546.0</ele><time>2026-04-11T08:10:36.999Z</time></trkpt><trkpt lat="46.07174132231992" lon="11.476437225250006"><ele>549.25</ele><time>2026-04-11T08:10:37.999Z</time></trkpt><trkpt lat="46.07183897059533" lon="11.476410536514036"><ele>552.5</ele><time>2026-04-11T08:10:38.999Z</time></trkpt><trkpt lat="46.07194693654345" lon="11.47636986824715"><ele>555.75</ele><time>2026-04-11T08:10:39.999Z</time></trkpt><trkpt lat="46.072063215060645" lon="11.476322465062353"><ele>559.0</ele><time>2026-04-11T08:10:40.999Z</time></trkpt><trkpt lat="46.072213571533446" lon="11.47632570617761"><ele>559.0</ele><time>2026-04-11T08:10:41.999Z</time></trkpt><trkpt lat="46.072340875990385" lon="11.476288571986123"><ele>559.0</ele><time>2026-04-11T08:10:42.999Z</time></trkpt><trkpt lat="46.07242521311905" lon="11.47627239921661"><ele>559.0</ele><time>2026-04-11T08:10:43.999Z</time></trkpt><trkpt lat="46.072510214050375" lon="11.476290161009821"><ele>559.0</ele><time>2026-04-11T08:10:46.999Z</time></trkpt><trkpt lat="46.07257790348377" lon="11.476311154432103"><ele>559.0</ele><time>2026-04-11T08:10:49.999Z</time></trkpt><trkpt lat="46.072655831325946" lon="11.476296505120446"><ele>559.0</ele><time>2026-04-11T08:10:50.999Z</time></trkpt><trkpt lat="46.07271950338663" lon="11.476264430374833"><ele>559.6666666666667</ele><time>2026-04-11T08:10:51.999Z</time></trkpt><trkpt lat="46.07278993831896" lon="11.476231832680583"><ele>560.3333333333334</ele><time>2026-04-11T08:10:52.999Z</time></trkpt><trkpt lat="46.07287105185097" lon="11.476196836252234"><ele>561.0</ele><time>2026-04-11T08:10:53.999Z</time></trkpt><trkpt lat="46.072954186683475" lon="11.476166063403427"><ele>561.6666666666666</ele><time>2026-04-11T08:10:54.999Z</time></trkpt><trkpt lat="46.073034389721236" lon="11.476137993856112"><ele>562.3333333333333</ele><time>2026-04-11T08:10:55.999Z</time></trkpt><trkpt lat="46.07311442947807" lon="11.476115876958243"><ele>563.0</ele><time>2026-04-11T08:10:56.999Z</time></trkpt><trkpt lat="46.07319404755183" lon="11.476096371023614"><ele>565.6</ele><time>2026-04-11T08:10:57.999Z</time></trkpt><trkpt lat="46.073275015898766" lon="11.476066574501964"><ele>568.1999999999999</ele><time>2026-04-11T08:10:58.999Z</time></trkpt><trkpt lat="46.07335831229939" lon="11.476022941087649"><ele>570.8</ele><time>2026-04-11T08:10:59.999Z</time></trkpt><trkpt lat="46.07344892021721" lon="11.475963317373672"><ele>573.4</ele><time>2026-04-11T08:11:00.999Z</time></trkpt><trkpt lat="46.07354778558485" lon="11.475853029968471"><ele>576.0</ele><time>2026-04-11T08:11:01.999Z</time></trkpt><trkpt lat="46.07364280260654" lon="11.475732168605344"><ele>576.0</ele><time>2026-04-11T08:11:02.999Z</time></trkpt><trkpt lat="46.07372891563547" lon="11.47563086233048"><ele>576.0</ele><time>2026-04-11T08:11:03.999Z</time></trkpt><trkpt lat="46.073793146084995" lon="11.475518691919078"><ele>576.0</ele><time>2026-04-11T08:11:04.999Z</time></trkpt><trkpt lat="46.07388507775145" lon="11.475468397145969"><ele>576.0</ele><time>2026-04-11T08:11:05.999Z</time></trkpt><trkpt lat="46.07396364229548" lon="11.475407708949337"><ele>576.0</ele><time>2026-04-11T08:11:06.999Z</time></trkpt><trkpt lat="46.07404859325763" lon="11.47535383120137"><ele>578.2</ele><time>2026-04-11T08:11:07.999Z</time></trkpt><trkpt lat="46.074141262941744" lon="11.475296791821195"><ele>580.4000000000001</ele><time>2026-04-11T08:11:08.999Z</time></trkpt><trkpt lat="46.074236673781655" lon="11.475239440828167"><ele>582.6</ele><time>2026-04-11T08:11:09.999Z</time></trkpt><trkpt lat="46.074322668078445" lon="11.475182799646243"><ele>584.8000000000001</ele><time>2026-04-11T08:11:10.999Z</time></trkpt><trkpt lat="46.07442676846408" lon="11.475129702362098"><ele>587.0</ele><time>2026-04-11T08:11:11.999Z</time></trkpt><trkpt lat="46.07452151812522" lon="11.475064110994822"><ele>587.0</ele><time>2026-04-11T08:11:13Z</time></trkpt><trkpt lat="46.07461414068518" lon="11.474993796015143"><ele>587.0</ele><time>2026-04-11T08:11:14Z</time></trkpt><trkpt lat="46.07470355807941" lon="11.47489159401595"><ele>587.0</ele><time>2026-04-11T08:11:15Z</time></trkpt><trkpt lat="46.07477646009209" lon="11.474770756215412"><ele>587.0</ele><time>2026-04-11T08:11:16Z</time></trkpt><trkpt lat="46.07483866512162" lon="11.474648793542375"><ele>587.0</ele><time>2026-04-11T08:11:17Z</time></trkpt><trkpt lat="46.07489163591564" lon="11.474526235269407"><ele>588.2</ele><time>2026-04-11T08:11:18Z</time></trkpt><trkpt lat="46.07492904232933" lon="11.474431714153608"><ele>589.4000000000001</ele><time>2026-04-11T08:11:19Z</time></trkpt><trkpt lat="46.07497458178422" lon="11.474288117863987"><ele>590.5999999999999</ele><time>2026-04-11T08:11:21Z</time></trkpt><trkpt lat="46.075038631948516" lon="11.474113362456935"><ele>591.8</ele><time>2026-04-11T08:11:24Z</time></trkpt><trkpt lat="46.07508982977061" lon="11.47397096425302"><ele>593.0</ele><time>2026-04-11T08:11:25Z</time></trkpt><trkpt lat="46.07510599541069" lon="11.473829622408728"><ele>595.0</ele><time>2026-04-11T08:11:26Z</time></trkpt><trkpt lat="46.07513205974795" lon="11.47368194486312"><ele>597.0</ele><time>2026-04-11T08:11:27Z</time></trkpt><trkpt lat="46.075173949085396" lon="11.473555609680156"><ele>599.0</ele><time>2026-04-11T08:11:28Z</time></trkpt><trkpt lat="46.075223415092076" lon="11.473452379371043"><ele>601.0</ele><time>2026-04-11T08:11:29Z</time></trkpt><trkpt lat="46.07527231489427" lon="11.473368894706097"><ele>603.0</ele><time>2026-04-11T08:11:30Z</time></trkpt><trkpt lat="46.07535235273927" lon="11.473277059985396"><ele>603.0</ele><time>2026-04-11T08:11:32Z</time></trkpt><trkpt lat="46.07540928064566" lon="11.473217524489428"><ele>603.0</ele><time>2026-04-11T08:11:33Z</time></trkpt><trkpt lat="46.07548943906677" lon="11.473113311869787"><ele>603.0</ele><time>2026-04-11T08:11:34Z</time></trkpt><trkpt lat="46.075591093894346" lon="11.472940682397207"><ele>603.0</ele><time>2026-04-11T08:11:35Z</time></trkpt><trkpt lat="46.075694618157684" lon="11.472712989143858"><ele>609.3333333333334</ele><time>2026-04-11T08:11:36Z</time></trkpt><trkpt lat="46.07578812519531" lon="11.472449763084313"><ele>615.6666666666667</ele><time>2026-04-11T08:11:37Z</time></trkpt><trkpt lat="46.07587722033634" lon="11.472164845334257"><ele>622.0</ele><time>2026-04-11T08:11:38Z</time></trkpt><trkpt lat="46.07597272824781" lon="11.471858116510877"><ele>622.0</ele><time>2026-04-11T08:11:39Z</time></trkpt><trkpt lat="46.07604148941893" lon="11.471548750729275"><ele>622.0</ele><time>2026-04-11T08:11:40Z</time></trkpt><trkpt lat="46.076060827434866" lon="11.471253245185954"><ele>622.0</ele><time>2026-04-11T08:11:41Z</time></trkpt><trkpt lat="46.076052656867134" lon="11.470978930150702"><ele>623.0</ele><time>2026-04-11T08:11:42Z</time></trkpt><trkpt lat="46.076016711834015" lon="11.470709741265491"><ele>624.0</ele><time>2026-04-11T08:11:43Z</time></trkpt><trkpt lat="46.07605700544981" lon="11.470460640935592"><ele>625.0</ele><time>2026-04-11T08:11:44Z</time></trkpt><trkpt lat="46.07603119433185" lon="11.470216107668188"><ele>630.0</ele><time>2026-04-11T08:11:45Z</time></trkpt><trkpt lat="46.076002252319356" lon="11.469977195488479"><ele>635.0</ele><time>2026-04-11T08:11:46Z</time></trkpt><trkpt lat="46.07593710632637" lon="11.46974011988545"><ele>640.0</ele><time>2026-04-11T08:11:47Z</time></trkpt><trkpt lat="46.07586890040642" lon="11.46951765964724"><ele>641.3333333333334</ele><time>2026-04-11T08:11:48Z</time></trkpt><trkpt lat="46.07576001535911" lon="11.469310269052354"><ele>642.6666666666666</ele><time>2026-04-11T08:11:49Z</time></trkpt><trkpt lat="46.075629744350714" lon="11.46913984377915"><ele>644.0</ele><time>2026-04-11T08:11:50Z</time></trkpt><trkpt lat="46.07554823186837" lon="11.469062589591973"><ele>644.0</ele><time>2026-04-11T08:11:51Z</time></trkpt><trkpt lat="46.075508962262" lon="11.468970377934204"><ele>644.0</ele><time>2026-04-11T08:11:52Z</time></trkpt><trkpt lat="46.07551554705891" lon="11.468855142836997"><ele>644.0</ele><time>2026-04-11T08:11:53Z</time></trkpt><trkpt lat="46.07553805613234" lon="11.468723514832778"><ele>644.0</ele><time>2026-04-11T08:11:54Z</time></trkpt><trkpt lat="46.07557163061511" lon="11.468634702551775"><ele>644.0</ele><time>2026-04-11T08:11:55Z</time></trkpt><trkpt lat="46.07560203764937" lon="11.468547068483982"><ele>644.0</ele><time>2026-04-11T08:11:57Z</time></trkpt><trkpt lat="46.07562671777357" lon="11.468348032876632"><ele>644.75</ele><time>2026-04-11T08:12:32.999Z</time></trkpt><trkpt lat="46.07564701255013" lon="11.468197719623108"><ele>645.5</ele><time>2026-04-11T08:12:33.999Z</time></trkpt><trkpt lat="46.07571585825012" lon="11.468088062497428"><ele>646.25</ele><time>2026-04-11T08:12:34.999Z</time></trkpt><trkpt lat="46.075741672171894" lon="11.467913874186424"><ele>647.0</ele><time>2026-04-11T08:12:35.999Z</time></trkpt><trkpt lat="46.075750888238275" lon="11.467736727339398"><ele>648.75</ele><time>2026-04-11T08:12:36.999Z</time></trkpt><trkpt lat="46.07574169654899" lon="11.467551258511923"><ele>650.5</ele><time>2026-04-11T08:12:37.999Z</time></trkpt><trkpt lat="46.075746453846065" lon="11.467363081023034"><ele>652.25</ele><time>2026-04-11T08:12:38.999Z</time></trkpt><trkpt lat="46.07574579168061" lon="11.467160593017223"><ele>654.0</ele><time>2026-04-11T08:12:39.999Z</time></trkpt><trkpt lat="46.07574259352555" lon="11.466942926668862"><ele>658.0</ele><time>2026-04-11T08:12:40.999Z</time></trkpt><trkpt lat="46.07573797902769" lon="11.466738184957402"><ele>662.0</ele><time>2026-04-11T08:12:41.999Z</time></trkpt><trkpt lat="46.075724885043996" lon="11.466607091646067"><ele>666.0</ele><time>2026-04-11T08:12:42.999Z</time></trkpt><trkpt lat="46.07574410405983" lon="11.466459653459973"><ele>670.0</ele><time>2026-04-11T08:12:44.999Z</time></trkpt><trkpt lat="46.07577643049259" lon="11.466314626509524"><ele>674.0</ele><time>2026-04-11T08:12:46.999Z</time></trkpt><trkpt lat="46.07584995763113" lon="11.466283808918186"><ele>675.6</ele><time>2026-04-11T08:12:47.999Z</time></trkpt><trkpt lat="46.07578926492946" lon="11.466106667416598"><ele>677.2</ele><time>2026-04-11T08:12:48.999Z</time></trkpt><trkpt lat="46.07581292538787" lon="11.466001480537916"><ele>678.8000000000001</ele><time>2026-04-11T08:12:49.999Z</time></trkpt><trkpt lat="46.075820185549254" lon="11.465896984305953"><ele>680.4000000000001</ele><time>2026-04-11T08:12:50.999Z</time></trkpt><trkpt lat="46.075758629059784" lon="11.465826675460116"><ele>682.0</ele><time>2026-04-11T08:12:53.999Z</time></trkpt><trkpt lat="46.07568835156518" lon="11.465909804460694"><ele>682.0</ele><time>2026-04-11T08:12:56.999Z</time></trkpt><trkpt lat="46.07560713069184" lon="11.46595531550994"><ele>682.0</ele><time>2026-04-11T08:12:58.999Z</time></trkpt><trkpt lat="46.07553456962946" lon="11.465965485082739"><ele>682.0</ele><time>2026-04-11T08:12:59.999Z</time></trkpt><trkpt lat="46.075470345707224" lon="11.465945922329306"><ele>682.0</ele><time>2026-04-11T08:13:01.999Z</time></trkpt><trkpt lat="46.0753957553139" lon="11.465857045630255"><ele>682.0</ele><time>2026-04-11T08:13:03.999Z</time></trkpt><trkpt lat="46.075273423699215" lon="11.465793300031923"><ele>682.0</ele><time>2026-04-11T08:13:05.999Z</time></trkpt><trkpt lat="46.07521407828687" lon="11.465727463848074"><ele>682.0</ele><time>2026-04-11T08:13:06.999Z</time></trkpt><trkpt lat="46.07515794041394" lon="11.465661197564478"><ele>682.0</ele><time>2026-04-11T08:13:08.999Z</time></trkpt><trkpt lat="46.07507031853454" lon="11.465597485532244"><ele>682.0</ele><time>2026-04-11T08:13:10.999Z</time></trkpt><trkpt lat="46.07499910978701" lon="11.465549995108171"><ele>682.0</ele><time>2026-04-11T08:13:12.999Z</time></trkpt><trkpt lat="46.07499354129798" lon="11.465456494062803"><ele>682.0</ele><time>2026-04-11T08:13:14.999Z</time></trkpt><trkpt lat="46.07505060974998" lon="11.465366449454784"><ele>683.8</ele><time>2026-04-11T08:13:15.999Z</time></trkpt><trkpt lat="46.07511412971718" lon="11.465282830812836"><ele>685.6</ele><time>2026-04-11T08:13:16.999Z</time></trkpt><trkpt lat="46.07517134533699" lon="11.465186065230636"><ele>687.4</ele><time>2026-04-11T08:13:19Z</time></trkpt><trkpt lat="46.075164537252135" lon="11.465049785972099"><ele>689.1999999999999</ele><time>2026-04-11T08:13:21Z</time></trkpt><trkpt lat="46.07520307969254" lon="11.464912292315498"><ele>691.0</ele><time>2026-04-11T08:13:23Z</time></trkpt><trkpt lat="46.07524285382453" lon="11.464800706868647"><ele>691.0</ele><time>2026-04-11T08:13:24Z</time></trkpt><trkpt lat="46.07527670395228" lon="11.464669587634955"><ele>691.0</ele><time>2026-04-11T08:13:25Z</time></trkpt><trkpt lat="46.0753146977375" lon="11.464512593085292"><ele>691.0</ele><time>2026-04-11T08:13:26Z</time></trkpt><trkpt lat="46.07535621765363" lon="11.464323094678198"><ele>691.0</ele><time>2026-04-11T08:13:27Z</time></trkpt><trkpt lat="46.075411078146345" lon="11.464146965852787"><ele>693.25</ele><time>2026-04-11T08:13:28Z</time></trkpt><trkpt lat="46.075463482060776" lon="11.463941149395275"><ele>695.5</ele><time>2026-04-11T08:13:29Z</time></trkpt><trkpt lat="46.075537100088575" lon="11.463737647853117"><ele>697.75</ele><time>2026-04-11T08:13:30Z</time></trkpt><trkpt lat="46.07558120123858" lon="11.46361245485042"><ele>700.0</ele><time>2026-04-11T08:13:31Z</time></trkpt><trkpt lat="46.07561192942683" lon="11.463494370296727"><ele>701.6666666666667</ele><time>2026-04-11T08:13:32Z</time></trkpt><trkpt lat="46.0756314900047" lon="11.46338298591977"><ele>703.3333333333334</ele><time>2026-04-11T08:13:33Z</time></trkpt><trkpt lat="46.07565887002944" lon="11.463283522397825"><ele>705.0</ele><time>2026-04-11T08:13:34Z</time></trkpt><trkpt lat="46.07569249655628" lon="11.463190166623924"><ele>706.6666666666666</ele><time>2026-04-11T08:13:35Z</time></trkpt><trkpt lat="46.07572704707706" lon="11.463098605743104"><ele>708.3333333333333</ele><time>2026-04-11T08:13:36Z</time></trkpt><trkpt lat="46.07574647992243" lon="11.462922566100545"><ele>710.0</ele><time>2026-04-11T08:13:38Z</time></trkpt><trkpt lat="46.07572955169443" lon="11.462827216905104"><ele>711.5</ele><time>2026-04-11T08:13:39Z</time></trkpt><trkpt lat="46.075713258135316" lon="11.462736627258606"><ele>713.0</ele><time>2026-04-11T08:13:40Z</time></trkpt><trkpt lat="46.07572800465915" lon="11.462634831515718"><ele>714.5</ele><time>2026-04-11T08:13:41Z</time></trkpt><trkpt lat="46.075747136505505" lon="11.46254311645409"><ele>716.0</ele><time>2026-04-11T08:13:42Z</time></trkpt><trkpt lat="46.07578481306785" lon="11.462379007269522"><ele>717.5</ele><time>2026-04-11T08:13:44Z</time></trkpt><trkpt lat="46.07584941315771" lon="11.46228207633707"><ele>719.0</ele><time>2026-04-11T08:13:45Z</time></trkpt><trkpt lat="46.075935081705495" lon="11.46218979675215"><ele>721.0</ele><time>2026-04-11T08:13:46Z</time></trkpt><trkpt lat="46.07602129617809" lon="11.462085110966422"><ele>723.0</ele><time>2026-04-11T08:13:47Z</time></trkpt><trkpt lat="46.076102794139025" lon="11.462002702548677"><ele>725.0</ele><time>2026-04-11T08:13:48Z</time></trkpt><trkpt lat="46.0761536370995" lon="11.461933148441933"><ele>727.0</ele><time>2026-04-11T08:13:49Z</time></trkpt><trkpt lat="46.076192298525754" lon="11.461856072758694"><ele>729.0</ele><time>2026-04-11T08:13:50Z</time></trkpt><trkpt lat="46.076236208195326" lon="11.46171706473241"><ele>729.0</ele><time>2026-04-11T08:13:51Z</time></trkpt><trkpt lat="46.07627729623575" lon="11.461544778887239"><ele>729.0</ele><time>2026-04-11T08:13:52Z</time></trkpt><trkpt lat="46.07630155084465" lon="11.46142055376136"><ele>729.0</ele><time>2026-04-11T08:13:53Z</time></trkpt><trkpt lat="46.07629815491688" lon="11.461296993534187"><ele>729.0</ele><time>2026-04-11T08:13:54Z</time></trkpt><trkpt lat="46.076263072096374" lon="11.461153897553725"><ele>729.0</ele><time>2026-04-11T08:13:55Z</time></trkpt><trkpt lat="46.07623043513314" lon="11.461035631340279"><ele>730.6</ele><time>2026-04-11T08:13:56Z</time></trkpt><trkpt lat="46.07621968523263" lon="11.460873871437808"><ele>732.2</ele><time>2026-04-11T08:13:57Z</time></trkpt><trkpt lat="46.07622510857817" lon="11.460758359661288"><ele>733.8000000000001</ele><time>2026-04-11T08:13:58Z</time></trkpt><trkpt lat="46.07624584144888" lon="11.460641556374465"><ele>735.4000000000001</ele><time>2026-04-11T08:13:59Z</time></trkpt><trkpt lat="46.076306688719654" lon="11.460452476955023"><ele>737.0</ele><time>2026-04-11T08:14:00Z</time></trkpt><trkpt lat="46.07638541740079" lon="11.46030007714282"><ele>738.8333333333333</ele><time>2026-04-11T08:14:01Z</time></trkpt><trkpt lat="46.07643379042812" lon="11.460192228292811"><ele>740.6666666666666</ele><time>2026-04-11T08:14:02Z</time></trkpt><trkpt lat="46.07647252058753" lon="11.460075690558583"><ele>742.5</ele><time>2026-04-11T08:14:03Z</time></trkpt><trkpt lat="46.076491284336825" lon="11.459934519753219"><ele>744.3333333333334</ele><time>2026-04-11T08:14:05Z</time></trkpt><trkpt lat="46.07649075379984" lon="11.459841854118157"><ele>746.1666666666667</ele><time>2026-04-11T08:14:06Z</time></trkpt><trkpt lat="46.076494083694165" lon="11.459745897350514"><ele>748.0</ele><time>2026-04-11T08:14:07Z</time></trkpt><trkpt lat="46.07650634398774" lon="11.459639991964226"><ele>749.5</ele><time>2026-04-11T08:14:08Z</time></trkpt><trkpt lat="46.07653100707308" lon="11.459531506262868"><ele>751.0</ele><time>2026-04-11T08:14:09Z</time></trkpt><trkpt lat="46.07656820259642" lon="11.459410189803378"><ele>752.5</ele><time>2026-04-11T08:14:10Z</time></trkpt><trkpt lat="46.07665115823277" lon="11.459176370605359"><ele>754.0</ele><time>2026-04-11T08:14:11Z</time></trkpt><trkpt lat="46.07675347377001" lon="11.458963669714883"><ele>755.2</ele><time>2026-04-11T08:14:12Z</time></trkpt><trkpt lat="46.07681111681665" lon="11.4588254156383"><ele>756.4000000000001</ele><time>2026-04-11T08:14:13Z</time></trkpt><trkpt lat="46.07685049466965" lon="11.458714284535386"><ele>757.6</ele><time>2026-04-11T08:14:14Z</time></trkpt><trkpt lat="46.07690670525203" lon="11.458594706068984"><ele>758.8</ele><time>2026-04-11T08:14:15Z</time></trkpt><trkpt lat="46.07700032644976" lon="11.458439643619757"><ele>760.0</ele><time>2026-04-11T08:14:16Z</time></trkpt><trkpt lat="46.07706418286717" lon="11.458317302971508"><ele>762.0</ele><time>2026-04-11T08:14:17Z</time></trkpt><trkpt lat="46.0771046919947" lon="11.458221602297886"><ele>764.0</ele><time>2026-04-11T08:14:18Z</time></trkpt><trkpt lat="46.07710051827133" lon="11.458122774118124"><ele>766.0</ele><time>2026-04-11T08:14:19Z</time></trkpt><trkpt lat="46.07707433566688" lon="11.458015142222962"><ele>768.0</ele><time>2026-04-11T08:14:20Z</time></trkpt><trkpt lat="46.07705696960307" lon="11.457924657145613"><ele>769.9999999999999</ele><time>2026-04-11T08:14:21Z</time></trkpt><trkpt lat="46.077108475783795" lon="11.457765659027334"><ele>772.0</ele><time>2026-04-11T08:14:23Z</time></trkpt><trkpt lat="46.077159499935895" lon="11.457637949523184"><ele>772.4000000000001</ele><time>2026-04-11T08:14:24Z</time></trkpt><trkpt lat="46.077220997880524" lon="11.457483094903125"><ele>772.8000000000001</ele><time>2026-04-11T08:14:25Z</time></trkpt><trkpt lat="46.077303019752485" lon="11.45732339328058"><ele>773.2</ele><time>2026-04-11T08:14:25.999Z</time></trkpt><trkpt lat="46.07738181768941" lon="11.457197968191863"><ele>773.6</ele><time>2026-04-11T08:14:26.999Z</time></trkpt><trkpt lat="46.07741812509289" lon="11.457112725490044"><ele>774.0</ele><time>2026-04-11T08:14:27.999Z</time></trkpt><trkpt lat="46.07743301492244" lon="11.45702017760218"><ele>775.3333333333334</ele><time>2026-04-11T08:14:29.999Z</time></trkpt><trkpt lat="46.07750995282467" lon="11.456920839765143"><ele>776.6666666666667</ele><time>2026-04-11T08:14:32.999Z</time></trkpt><trkpt lat="46.07758967992113" lon="11.456824448368291"><ele>778.0</ele><time>2026-04-11T08:14:34.999Z</time></trkpt><trkpt lat="46.077632220156985" lon="11.45675142857128"><ele>779.3333333333334</ele><time>2026-04-11T08:14:36.999Z</time></trkpt><trkpt lat="46.077615848339136" lon="11.456631428594369"><ele>780.6666666666667</ele><time>2026-04-11T08:14:38.999Z</time></trkpt><trkpt lat="46.0775756230698" lon="11.456549289163311"><ele>782.0</ele><time>2026-04-11T08:14:39.999Z</time></trkpt><trkpt lat="46.07753008587021" lon="11.456427065947652"><ele>782.0</ele><time>2026-04-11T08:14:40.999Z</time></trkpt><trkpt lat="46.07751923297975" lon="11.456291044456352"><ele>782.0</ele><time>2026-04-11T08:14:41.999Z</time></trkpt><trkpt lat="46.077537783321695" lon="11.456184525565408"><ele>782.0</ele><time>2026-04-11T08:14:42.999Z</time></trkpt><trkpt lat="46.07757475735902" lon="11.456074841060511"><ele>782.0</ele><time>2026-04-11T08:14:43.999Z</time></trkpt><trkpt lat="46.07760527025357" lon="11.455920501272642"><ele>782.0</ele><time>2026-04-11T08:14:44.999Z</time></trkpt><trkpt lat="46.07762156598316" lon="11.455760014245758"><ele>781.8</ele><time>2026-04-11T08:14:45.999Z</time></trkpt><trkpt lat="46.077642895072294" lon="11.455607423467614"><ele>781.6</ele><time>2026-04-11T08:14:46.999Z</time></trkpt><trkpt lat="46.07766650543014" lon="11.45547490563852"><ele>781.4</ele><time>2026-04-11T08:14:47.999Z</time></trkpt><trkpt lat="46.07769559970252" lon="11.455360555291776"><ele>781.1999999999999</ele><time>2026-04-11T08:14:48.999Z</time></trkpt><trkpt lat="46.077720814111785" lon="11.455244016174044"><ele>781.0</ele><time>2026-04-11T08:14:49.999Z</time></trkpt><trkpt lat="46.077729823071536" lon="11.455117155728967"><ele>781.0</ele><time>2026-04-11T08:14:50.999Z</time></trkpt><trkpt lat="46.07773571433173" lon="11.454982421953286"><ele>781.0</ele><time>2026-04-11T08:14:52.999Z</time></trkpt><trkpt lat="46.0777199481281" lon="11.45512040492485"><ele>781.0</ele><time>2026-04-11T08:14:56.999Z</time></trkpt><trkpt lat="46.07772315206943" lon="11.455304968769358"><ele>781.0</ele><time>2026-04-11T08:14:58.999Z</time></trkpt><trkpt lat="46.07770557209365" lon="11.455455418055992"><ele>781.0</ele><time>2026-04-11T08:14:59.999Z</time></trkpt><trkpt lat="46.07767060673342" lon="11.45563990349679"><ele>782.0</ele><time>2026-04-11T08:15:00.999Z</time></trkpt><trkpt lat="46.07761735897682" lon="11.455876016019808"><ele>783.0</ele><time>2026-04-11T08:15:01.999Z</time></trkpt><trkpt lat="46.07759824434028" lon="11.456019499082617"><ele>784.0</ele><time>2026-04-11T08:15:02.999Z</time></trkpt><trkpt lat="46.07763528506363" lon="11.45612868644075"><ele>785.0</ele><time>2026-04-11T08:15:04.999Z</time></trkpt><trkpt lat="46.07776049428767" lon="11.456099640302526"><ele>785.0</ele><time>2026-04-11T08:15:06.999Z</time></trkpt><trkpt lat="46.07788146795288" lon="11.456026762472531"><ele>785.0</ele><time>2026-04-11T08:15:07.999Z</time></trkpt><trkpt lat="46.0780171454495" lon="11.455943681296658"><ele>785.0</ele><time>2026-04-11T08:15:08.999Z</time></trkpt><trkpt lat="46.07813660715454" lon="11.455860414858018"><ele>785.0</ele><time>2026-04-11T08:15:09.999Z</time></trkpt><trkpt lat="46.07823310120282" lon="11.455825032770653"><ele>786.8</ele><time>2026-04-11T08:15:10.999Z</time></trkpt><trkpt lat="46.07832098691273" lon="11.45583835530296"><ele>788.6</ele><time>2026-04-11T08:15:11.999Z</time></trkpt><trkpt lat="46.07838888155878" lon="11.455888992653069"><ele>790.4000000000001</ele><time>2026-04-11T08:15:12.999Z</time></trkpt><trkpt lat="46.07845344616229" lon="11.456077716920454"><ele>792.2</ele><time>2026-04-11T08:15:14.999Z</time></trkpt><trkpt lat="46.07855889169982" lon="11.456192471857307"><ele>794.0</ele><time>2026-04-11T08:15:15.999Z</time></trkpt><trkpt lat="46.07869432169215" lon="11.45626466486339"><ele>794.0</ele><time>2026-04-11T08:15:16.999Z</time></trkpt><trkpt lat="46.07880804695306" lon="11.456350190512197"><ele>794.0</ele><time>2026-04-11T08:15:17.999Z</time></trkpt><trkpt lat="46.078940931025606" lon="11.456435304066646"><ele>794.0</ele><time>2026-04-11T08:15:18.999Z</time></trkpt><trkpt lat="46.079120726262246" lon="11.456521071051402"><ele>797.25</ele><time>2026-04-11T08:15:19.999Z</time></trkpt><trkpt lat="46.07926119626636" lon="11.456514403687912"><ele>800.5</ele><time>2026-04-11T08:15:20.999Z</time></trkpt><trkpt lat="46.07938675776386" lon="11.456453200675206"><ele>803.75</ele><time>2026-04-11T08:15:21.999Z</time></trkpt><trkpt lat="46.07951695285957" lon="11.456374088471392"><ele>807.0</ele><time>2026-04-11T08:15:22.999Z</time></trkpt><trkpt lat="46.0796302886501" lon="11.45632881234571"><ele>807.0</ele><time>2026-04-11T08:15:23.999Z</time></trkpt><trkpt lat="46.07977334580496" lon="11.456363397937695"><ele>807.0</ele><time>2026-04-11T08:15:25Z</time></trkpt><trkpt lat="46.079891292690654" lon="11.456491362373393"><ele>807.0</ele><time>2026-04-11T08:15:27Z</time></trkpt><trkpt lat="46.08002385916298" lon="11.456544598650403"><ele>807.0</ele><time>2026-04-11T08:15:28Z</time></trkpt><trkpt lat="46.080172131176965" lon="11.456627336233833"><ele>812.25</ele><time>2026-04-11T08:15:29Z</time></trkpt><trkpt lat="46.08030381993871" lon="11.456724770907044"><ele>817.5</ele><time>2026-04-11T08:15:30Z</time></trkpt><trkpt lat="46.08037247563431" lon="11.456776193185695"><ele>822.75</ele><time>2026-04-11T08:15:31Z</time></trkpt><trkpt lat="46.08044513824951" lon="11.45677883887628"><ele>828.0</ele><time>2026-04-11T08:15:33Z</time></trkpt><trkpt lat="46.080352461868" lon="11.456545833308207"><ele>828.0</ele><time>2026-04-11T08:15:35Z</time></trkpt><trkpt lat="46.08024636395934" lon="11.456466971157672"><ele>828.0</ele><time>2026-04-11T08:15:36Z</time></trkpt><trkpt lat="46.08019925507194" lon="11.456345610881572"><ele>828.0</ele><time>2026-04-11T08:15:37Z</time></trkpt><trkpt lat="46.08019760259726" lon="11.456215184698047"><ele>828.0</ele><time>2026-04-11T08:15:38Z</time></trkpt><trkpt lat="46.08018164226915" lon="11.456019074001695"><ele>828.0</ele><time>2026-04-11T08:15:39Z</time></trkpt><trkpt lat="46.080167230565586" lon="11.455867788072808"><ele>831.0</ele><time>2026-04-11T08:15:40Z</time></trkpt><trkpt lat="46.08016134154808" lon="11.45569150866263"><ele>834.0</ele><time>2026-04-11T08:15:41Z</time></trkpt><trkpt lat="46.08018768072266" lon="11.455452915933716"><ele>837.0</ele><time>2026-04-11T08:15:42Z</time></trkpt><trkpt lat="46.08016845153074" lon="11.455192717266927"><ele>840.3333333333333</ele><time>2026-04-11T08:15:43Z</time></trkpt><trkpt lat="46.08012056105823" lon="11.454958011287621"><ele>843.6666666666666</ele><time>2026-04-11T08:15:44Z</time></trkpt><trkpt lat="46.0800701221656" lon="11.454688509505406"><ele>847.0</ele><time>2026-04-11T08:15:45Z</time></trkpt><trkpt lat="46.080018640971" lon="11.454372046889052"><ele>855.0</ele><time>2026-04-11T08:15:46Z</time></trkpt><trkpt lat="46.079978935831434" lon="11.45407241631532"><ele>863.0</ele><time>2026-04-11T08:15:47Z</time></trkpt><trkpt lat="46.079906636125756" lon="11.453610282333816"><ele>853.6666666666667</ele><time>2026-04-11T08:15:48Z</time></trkpt><trkpt lat="46.07987645234264" lon="11.453422532233542"><ele>844.3333333333333</ele><time>2026-04-11T08:15:49Z</time></trkpt><trkpt lat="46.079859170933155" lon="11.453158183003405"><ele>835.0</ele><time>2026-04-11T08:15:50Z</time></trkpt><trkpt lat="46.07980511215657" lon="11.452840354739111"><ele>835.0</ele><time>2026-04-11T08:15:51Z</time></trkpt><trkpt lat="46.07974698690631" lon="11.452664519660857"><ele>835.0</ele><time>2026-04-11T08:15:52Z</time></trkpt><trkpt lat="46.0797001923584" lon="11.452518569203582"><ele>835.0</ele><time>2026-04-11T08:15:53Z</time></trkpt><trkpt lat="46.07965596714529" lon="11.452361184356752"><ele>835.0</ele><time>2026-04-11T08:15:54Z</time></trkpt><trkpt lat="46.07960170243319" lon="11.452151159411144"><ele>796.0</ele><time>2026-04-11T08:15:55Z</time></trkpt><trkpt lat="46.07887775138916" lon="11.452007196679643"><ele>796.0</ele><time>2026-04-11T08:15:56Z</time></trkpt><trkpt lat="46.07883670616545" lon="11.451838071495567"><ele>796.0</ele><time>2026-04-11T08:15:57Z</time></trkpt><trkpt lat="46.078786348777314" lon="11.451653106083034"><ele>796.0</ele><time>2026-04-11T08:15:58Z</time></trkpt><trkpt lat="46.07874579356266" lon="11.451472876234831"><ele>796.0</ele><time>2026-04-11T08:15:59Z</time></trkpt><trkpt lat="46.078735937890045" lon="11.451279688029567"><ele>795.25</ele><time>2026-04-11T08:16:00Z</time></trkpt><trkpt lat="46.078733020700106" lon="11.451099686379616"><ele>794.5</ele><time>2026-04-11T08:16:01Z</time></trkpt><trkpt lat="46.078737744763124" lon="11.450903141050933"><ele>793.75</ele><time>2026-04-11T08:16:02Z</time></trkpt><trkpt lat="46.0787664428214" lon="11.450733821230974"><ele>793.0</ele><time>2026-04-11T08:16:03Z</time></trkpt><trkpt lat="46.07881563819135" lon="11.450599584846694"><ele>793.0</ele><time>2026-04-11T08:16:04Z</time></trkpt><trkpt lat="46.07888735690463" lon="11.45052987954316"><ele>793.0</ele><time>2026-04-11T08:16:05Z</time></trkpt><trkpt lat="46.07897938642385" lon="11.450495335703838"><ele>793.0</ele><time>2026-04-11T08:16:06Z</time></trkpt><trkpt lat="46.07909741955385" lon="11.450467030862008"><ele>793.0</ele><time>2026-04-11T08:16:07Z</time></trkpt><trkpt lat="46.07923576081435" lon="11.450404487530188"><ele>793.0</ele><time>2026-04-11T08:16:08Z</time></trkpt><trkpt lat="46.0793851859466" lon="11.45033730751675"><ele>793.75</ele><time>2026-04-11T08:16:09Z</time></trkpt><trkpt lat="46.07952775669232" lon="11.45027473408497"><ele>794.5</ele><time>2026-04-11T08:16:10Z</time></trkpt><trkpt lat="46.07966538704661" lon="11.450215061454939"><ele>795.25</ele><time>2026-04-11T08:16:10.999Z</time></trkpt><trkpt lat="46.07980395116309" lon="11.450168598981977"><ele>796.0</ele><time>2026-04-11T08:16:11.999Z</time></trkpt><trkpt lat="46.07993342247517" lon="11.45012098211258"><ele>794.75</ele><time>2026-04-11T08:16:12.999Z</time></trkpt><trkpt lat="46.08004703138593" lon="11.450055253216291"><ele>793.5</ele><time>2026-04-11T08:16:13.999Z</time></trkpt><trkpt lat="46.0801302168247" lon="11.449949615602963"><ele>792.25</ele><time>2026-04-11T08:16:14.999Z</time></trkpt><trkpt lat="46.080189461988226" lon="11.449799173327554"><ele>791.0</ele><time>2026-04-11T08:16:15.999Z</time></trkpt><trkpt lat="46.08023728706942" lon="11.449615937079903"><ele>791.0</ele><time>2026-04-11T08:16:16.999Z</time></trkpt><trkpt lat="46.080285428772804" lon="11.449422971828522"><ele>791.0</ele><time>2026-04-11T08:16:17.999Z</time></trkpt><trkpt lat="46.08031713590115" lon="11.449230637522327"><ele>791.0</ele><time>2026-04-11T08:16:18.999Z</time></trkpt><trkpt lat="46.08032759967515" lon="11.449035714714725"><ele>791.0</ele><time>2026-04-11T08:16:19.999Z</time></trkpt><trkpt lat="46.08033085896371" lon="11.448834077198889"><ele>790.25</ele><time>2026-04-11T08:16:20.999Z</time></trkpt><trkpt lat="46.08031383171723" lon="11.448629579315183"><ele>789.5</ele><time>2026-04-11T08:16:21.999Z</time></trkpt><trkpt lat="46.08025893841771" lon="11.448436384386264"><ele>788.75</ele><time>2026-04-11T08:16:22.999Z</time></trkpt><trkpt lat="46.08017308184013" lon="11.448269224680233"><ele>788.0</ele><time>2026-04-11T08:16:23.999Z</time></trkpt><trkpt lat="46.08006284087655" lon="11.448127306921949"><ele>786.5</ele><time>2026-04-11T08:16:24.999Z</time></trkpt><trkpt lat="46.079932159273014" lon="11.447996248601418"><ele>785.0</ele><time>2026-04-11T08:16:25.999Z</time></trkpt><trkpt lat="46.07982560535489" lon="11.4478800472525"><ele>783.5</ele><time>2026-04-11T08:16:26.999Z</time></trkpt><trkpt lat="46.07976167325843" lon="11.447800520646528"><ele>782.0</ele><time>2026-04-11T08:16:27.999Z</time></trkpt><trkpt lat="46.079681678496655" lon="11.447672910189073"><ele>786.5</ele><time>2026-04-11T08:16:29.999Z</time></trkpt><trkpt lat="46.07968969177809" lon="11.447499681861798"><ele>791.0</ele><time>2026-04-11T08:16:30.999Z</time></trkpt><trkpt lat="46.07967754521861" lon="11.447316004066423"><ele>795.5</ele><time>2026-04-11T08:16:31.999Z</time></trkpt><trkpt lat="46.07961543656327" lon="11.447129673256043"><ele>800.0</ele><time>2026-04-11T08:16:32.999Z</time></trkpt><trkpt lat="46.079517306994404" lon="11.446978768628494"><ele>807.0</ele><time>2026-04-11T08:16:33.999Z</time></trkpt><trkpt lat="46.07938649158417" lon="11.446863610953068"><ele>814.0</ele><time>2026-04-11T08:16:34.999Z</time></trkpt><trkpt lat="46.07921918660661" lon="11.446812591573451"><ele>821.0</ele><time>2026-04-11T08:16:35.999Z</time></trkpt><trkpt lat="46.079032780554826" lon="11.446729753854472"><ele>821.0</ele><time>2026-04-11T08:16:36.999Z</time></trkpt><trkpt lat="46.078809446036075" lon="11.446679083908027"><ele>821.0</ele><time>2026-04-11T08:16:37.999Z</time></trkpt><trkpt lat="46.078570580414386" lon="11.446617583072774"><ele>821.0</ele><time>2026-04-11T08:16:38.999Z</time></trkpt><trkpt lat="46.07832207617759" lon="11.4465863069653"><ele>821.0</ele><time>2026-04-11T08:16:39.999Z</time></trkpt><trkpt lat="46.07807627063986" lon="11.446578698658403"><ele>822.6666666666667</ele><time>2026-04-11T08:16:40.999Z</time></trkpt><trkpt lat="46.07789419550213" lon="11.446600342254394"><ele>824.3333333333333</ele><time>2026-04-11T08:16:41.999Z</time></trkpt><trkpt lat="46.07776378748113" lon="11.446687163321208"><ele>826.0</ele><time>2026-04-11T08:16:42.999Z</time></trkpt><trkpt lat="46.07762973722347" lon="11.4468368601515"><ele>826.0</ele><time>2026-04-11T08:16:43.999Z</time></trkpt><trkpt lat="46.077496500038826" lon="11.446937630222513"><ele>826.0</ele><time>2026-04-11T08:16:44.999Z</time></trkpt><trkpt lat="46.077379097815914" lon="11.446934864586911"><ele>826.0</ele><time>2026-04-11T08:16:45.999Z</time></trkpt><trkpt lat="46.07726926506112" lon="11.446887169627251"><ele>826.0</ele><time>2026-04-11T08:16:46.999Z</time></trkpt><trkpt lat="46.0771663221955" lon="11.446799061537485"><ele>829.3333333333333</ele><time>2026-04-11T08:16:47.999Z</time></trkpt><trkpt lat="46.07704956099307" lon="11.446667881121307"><ele>832.6666666666667</ele><time>2026-04-11T08:16:48.999Z</time></trkpt><trkpt lat="46.07700155749426" lon="11.446457756528314"><ele>836.0</ele><time>2026-04-11T08:16:49.999Z</time></trkpt><trkpt lat="46.07694626379139" lon="11.446230267004752"><ele>836.0</ele><time>2026-04-11T08:16:50.999Z</time></trkpt><trkpt lat="46.07690179994921" lon="11.44599824904512"><ele>836.0</ele><time>2026-04-11T08:16:51.999Z</time></trkpt><trkpt lat="46.076808753825695" lon="11.445833257177426"><ele>836.0</ele><time>2026-04-11T08:16:52.999Z</time></trkpt><trkpt lat="46.076664195855315" lon="11.445727539082274"><ele>833.6666666666667</ele><time>2026-04-11T08:16:53.999Z</time></trkpt><trkpt lat="46.076473618027656" lon="11.445630091874257"><ele>831.3333333333333</ele><time>2026-04-11T08:16:54.999Z</time></trkpt><trkpt lat="46.076244333597536" lon="11.445546629386644"><ele>829.0</ele><time>2026-04-11T08:16:55.999Z</time></trkpt><trkpt lat="46.07602391184574" lon="11.445455425794655"><ele>836.0</ele><time>2026-04-11T08:16:56.999Z</time></trkpt><trkpt lat="46.07580058501334" lon="11.445332686709278"><ele>843.0</ele><time>2026-04-11T08:16:57.999Z</time></trkpt><trkpt lat="46.07559388510923" lon="11.445171804973443"><ele>843.0</ele><time>2026-04-11T08:16:58.999Z</time></trkpt><trkpt lat="46.07538803439681" lon="11.445043702296386"><ele>843.0</ele><time>2026-04-11T08:16:59.999Z</time></trkpt><trkpt lat="46.07522131651054" lon="11.444923424985225"><ele>843.0</ele><time>2026-04-11T08:17:00.999Z</time></trkpt><trkpt lat="46.07506865000389" lon="11.444864800834882"><ele>843.0</ele><time>2026-04-11T08:17:01.999Z</time></trkpt><trkpt lat="46.07494019365731" lon="11.444867734422058"><ele>843.0</ele><time>2026-04-11T08:17:02.999Z</time></trkpt><trkpt lat="46.07482179846899" lon="11.444852920883708"><ele>843.0</ele><time>2026-04-11T08:17:03.999Z</time></trkpt><trkpt lat="46.074749409979304" lon="11.444806214223963"><ele>843.0</ele><time>2026-04-11T08:17:04.999Z</time></trkpt><trkpt lat="46.07468172832339" lon="11.444684835435966"><ele>843.0</ele><time>2026-04-11T08:17:05.999Z</time></trkpt><trkpt lat="46.07459349005992" lon="11.44455188280984"><ele>845.0</ele><time>2026-04-11T08:17:06.999Z</time></trkpt><trkpt lat="46.074434552558785" lon="11.444455067278032"><ele>847.0</ele><time>2026-04-11T08:17:07.999Z</time></trkpt><trkpt lat="46.07429587669801" lon="11.444389337398157"><ele>849.0</ele><time>2026-04-11T08:17:08.999Z</time></trkpt><trkpt lat="46.07415402577897" lon="11.444396775499591"><ele>848.6666666666667</ele><time>2026-04-11T08:17:09.999Z</time></trkpt><trkpt lat="46.07400395639481" lon="11.444479203266734"><ele>848.3333333333334</ele><time>2026-04-11T08:17:10.999Z</time></trkpt><trkpt lat="46.073829227919845" lon="11.4445313197666"><ele>848.0</ele><time>2026-04-11T08:17:11.999Z</time></trkpt><trkpt lat="46.073675079341534" lon="11.444548488059098"><ele>848.0</ele><time>2026-04-11T08:17:12.999Z</time></trkpt><trkpt lat="46.073526537022026" lon="11.444530363711353"><ele>848.0</ele><time>2026-04-11T08:17:13.999Z</time></trkpt><trkpt lat="46.07336092623506" lon="11.444553461994033"><ele>848.0</ele><time>2026-04-11T08:17:14.999Z</time></trkpt><trkpt lat="46.07320812518561" lon="11.44433506110754"><ele>846.0</ele><time>2026-04-11T08:17:15.999Z</time></trkpt><trkpt lat="46.07303351024321" lon="11.444217302830914"><ele>844.0</ele><time>2026-04-11T08:17:16.999Z</time></trkpt><trkpt lat="46.07284493354206" lon="11.444112410552414"><ele>842.0</ele><time>2026-04-11T08:17:17.999Z</time></trkpt><trkpt lat="46.07263143880643" lon="11.443958953213272"><ele>843.6666666666667</ele><time>2026-04-11T08:17:18.999Z</time></trkpt><trkpt lat="46.07241959724221" lon="11.443830229281504"><ele>845.3333333333333</ele><time>2026-04-11T08:17:19.999Z</time></trkpt><trkpt lat="46.072248766777825" lon="11.443692581045145"><ele>847.0</ele><time>2026-04-11T08:17:20.999Z</time></trkpt><trkpt lat="46.07212787223256" lon="11.443547992162783"><ele>850.25</ele><time>2026-04-11T08:17:21.999Z</time></trkpt><trkpt lat="46.07201878490334" lon="11.443440236140995"><ele>853.5</ele><time>2026-04-11T08:17:22.999Z</time></trkpt><trkpt lat="46.07190761833671" lon="11.44339596385793"><ele>856.75</ele><time>2026-04-11T08:17:23.999Z</time></trkpt><trkpt lat="46.07179781361864" lon="11.443423054021858"><ele>860.0</ele><time>2026-04-11T08:17:24.999Z</time></trkpt><trkpt lat="46.0717076053101" lon="11.44357940209328"><ele>857.5</ele><time>2026-04-11T08:17:25.999Z</time></trkpt><trkpt lat="46.07159260119097" lon="11.44373027228585"><ele>855.0</ele><time>2026-04-11T08:17:26.999Z</time></trkpt><trkpt lat="46.07146470111992" lon="11.44384738369795"><ele>852.5</ele><time>2026-04-11T08:17:27.999Z</time></trkpt><trkpt lat="46.07137652988602" lon="11.443847508824328"><ele>850.0</ele><time>2026-04-11T08:17:28.999Z</time></trkpt><trkpt lat="46.07128199960785" lon="11.443761684487036"><ele>850.0</ele><time>2026-04-11T08:17:29.999Z</time></trkpt><trkpt lat="46.07120533965956" lon="11.44366464538898"><ele>850.0</ele><time>2026-04-11T08:17:31Z</time></trkpt><trkpt lat="46.07116217888783" lon="11.44358343651727"><ele>850.0</ele><time>2026-04-11T08:17:32Z</time></trkpt><trkpt lat="46.07119991262111" lon="11.443387614277315"><ele>850.0</ele><time>2026-04-11T08:17:34Z</time></trkpt><trkpt lat="46.07125119115704" lon="11.443227381857216"><ele>850.0</ele><time>2026-04-11T08:17:35Z</time></trkpt><trkpt lat="46.07130346004993" lon="11.443041519256472"><ele>851.6666666666666</ele><time>2026-04-11T08:17:36Z</time></trkpt><trkpt lat="46.07137052026444" lon="11.442798979957654"><ele>853.3333333333333</ele><time>2026-04-11T08:17:37Z</time></trkpt><trkpt lat="46.07140506753151" lon="11.442568526305896"><ele>855.0</ele><time>2026-04-11T08:17:38Z</time></trkpt><trkpt lat="46.07144657929252" lon="11.44240310699134"><ele>855.0</ele><time>2026-04-11T08:17:39Z</time></trkpt><trkpt lat="46.07146869452622" lon="11.442256419985508"><ele>855.0</ele><time>2026-04-11T08:17:40Z</time></trkpt><trkpt lat="46.071492778686164" lon="11.442138500129824"><ele>855.0</ele><time>2026-04-11T08:17:41Z</time></trkpt><trkpt lat="46.0715238065045" lon="11.442058704272695"><ele>855.0</ele><time>2026-04-11T08:17:42Z</time></trkpt><trkpt lat="46.07158757751635" lon="11.442039131973326"><ele>855.0</ele><time>2026-04-11T08:17:43Z</time></trkpt><trkpt lat="46.07166047165389" lon="11.442037208539643"><ele>855.0</ele><time>2026-04-11T08:17:44Z</time></trkpt><trkpt lat="46.07172875846914" lon="11.442019816866198"><ele>858.75</ele><time>2026-04-11T08:17:45Z</time></trkpt><trkpt lat="46.07184070854646" lon="11.442033540489227"><ele>862.5</ele><time>2026-04-11T08:17:47Z</time></trkpt><trkpt lat="46.07190139002745" lon="11.442075437913333"><ele>866.25</ele><time>2026-04-11T08:17:48Z</time></trkpt><trkpt lat="46.07198393937627" lon="11.442080620077222"><ele>870.0</ele><time>2026-04-11T08:17:49Z</time></trkpt><trkpt lat="46.07207066749083" lon="11.441614804679515"><ele>870.0</ele><time>2026-04-11T08:17:50Z</time></trkpt><trkpt lat="46.07210800567914" lon="11.441536394418659"><ele>870.0</ele><time>2026-04-11T08:17:51Z</time></trkpt><trkpt lat="46.07216537918903" lon="11.44148980571892"><ele>870.0</ele><time>2026-04-11T08:17:52Z</time></trkpt><trkpt lat="46.07228215269903" lon="11.441442448449202"><ele>870.0</ele><time>2026-04-11T08:17:54Z</time></trkpt><trkpt lat="46.07239053557814" lon="11.44143508820325"><ele>870.0</ele><time>2026-04-11T08:17:55Z</time></trkpt><trkpt lat="46.07249944548894" lon="11.441424629283395"><ele>871.1666666666666</ele><time>2026-04-11T08:17:56Z</time></trkpt><trkpt lat="46.07257087005343" lon="11.441416025184342"><ele>872.3333333333333</ele><time>2026-04-11T08:17:57Z</time></trkpt><trkpt lat="46.072648920850106" lon="11.441417687396774"><ele>873.5</ele><time>2026-04-11T08:17:58Z</time></trkpt><trkpt lat="46.072719949073395" lon="11.441384586550441"><ele>874.6666666666666</ele><time>2026-04-11T08:17:59Z</time></trkpt><trkpt lat="46.07282649471921" lon="11.441339148869645"><ele>875.8333333333333</ele><time>2026-04-11T08:18:00Z</time></trkpt><trkpt lat="46.0729001920433" lon="11.441286738785815"><ele>877.0</ele><time>2026-04-11T08:18:01Z</time></trkpt><trkpt lat="46.07296477710674" lon="11.441219406670415"><ele>877.0</ele><time>2026-04-11T08:18:02Z</time></trkpt><trkpt lat="46.0730429357228" lon="11.441169899911234"><ele>877.0</ele><time>2026-04-11T08:18:03Z</time></trkpt><trkpt lat="46.07315783458734" lon="11.441139113878107"><ele>877.0</ele><time>2026-04-11T08:18:05Z</time></trkpt><trkpt lat="46.07326139229826" lon="11.441125360053002"><ele>877.0</ele><time>2026-04-11T08:18:06Z</time></trkpt><trkpt lat="46.07333658202112" lon="11.441102330255987"><ele>877.0</ele><time>2026-04-11T08:18:07Z</time></trkpt><trkpt lat="46.07342666362548" lon="11.441029489367363"><ele>882.8</ele><time>2026-04-11T08:18:08Z</time></trkpt><trkpt lat="46.07350432847235" lon="11.4410033894945"><ele>888.6</ele><time>2026-04-11T08:18:09Z</time></trkpt><trkpt lat="46.07356989843269" lon="11.440964740151585"><ele>894.3999999999999</ele><time>2026-04-11T08:18:10Z</time></trkpt><trkpt lat="46.073620285992895" lon="11.440900985911997"><ele>900.1999999999999</ele><time>2026-04-11T08:18:11Z</time></trkpt><trkpt lat="46.07376264774753" lon="11.440911341448437"><ele>906.0</ele><time>2026-04-11T08:18:13Z</time></trkpt><trkpt lat="46.07386461165266" lon="11.440850425445099"><ele>906.0</ele><time>2026-04-11T08:18:14Z</time></trkpt><trkpt lat="46.07394527517201" lon="11.440819121942678"><ele>906.0</ele><time>2026-04-11T08:18:15Z</time></trkpt><trkpt lat="46.074022567733586" lon="11.440781862122062"><ele>906.0</ele><time>2026-04-11T08:18:16Z</time></trkpt><trkpt lat="46.07409670715387" lon="11.440768104481016"><ele>906.0</ele><time>2026-04-11T08:18:17Z</time></trkpt><trkpt lat="46.074190761110955" lon="11.440752991232285"><ele>906.0</ele><time>2026-04-11T08:18:18Z</time></trkpt><trkpt lat="46.074256317075736" lon="11.44071195481994"><ele>906.0</ele><time>2026-04-11T08:18:19Z</time></trkpt><trkpt lat="46.07433451242576" lon="11.440674529057686"><ele>912.0</ele><time>2026-04-11T08:18:20Z</time></trkpt><trkpt lat="46.07440606399687" lon="11.440630043745234"><ele>917.9999999999999</ele><time>2026-04-11T08:18:21Z</time></trkpt><trkpt lat="46.07446767918603" lon="11.440576839962194"><ele>923.9999999999999</ele><time>2026-04-11T08:18:22Z</time></trkpt><trkpt lat="46.07451572170243" lon="11.440645611570169"><ele>930.0</ele><time>2026-04-11T08:18:25Z</time></trkpt><trkpt lat="46.07461557331074" lon="11.440671398711519"><ele>936.0</ele><time>2026-04-11T08:18:27Z</time></trkpt><trkpt lat="46.07468748830004" lon="11.440843695119389"><ele>936.0</ele><time>2026-04-11T08:18:32Z</time></trkpt><trkpt lat="46.074774130499776" lon="11.440846108600846"><ele>936.0</ele><time>2026-04-11T08:18:35.999Z</time></trkpt><trkpt lat="46.07480941495811" lon="11.440950535342905"><ele>936.0</ele><time>2026-04-11T08:18:37.999Z</time></trkpt><trkpt lat="46.07522959752801" lon="11.441389590945045"><ele>938.5</ele><time>2026-04-11T08:18:40.999Z</time></trkpt><trkpt lat="46.0753190138787" lon="11.44140504719145"><ele>941.0</ele><time>2026-04-11T08:18:41.999Z</time></trkpt><trkpt lat="46.075394407220955" lon="11.441403885266329"><ele>943.5</ele><time>2026-04-11T08:18:42.999Z</time></trkpt><trkpt lat="46.0754703581991" lon="11.44138868393953"><ele>946.0</ele><time>2026-04-11T08:18:43.999Z</time></trkpt><trkpt lat="46.07554860429147" lon="11.44135642840252"><ele>948.5</ele><time>2026-04-11T08:18:44.999Z</time></trkpt><trkpt lat="46.075650551029554" lon="11.441306560989442"><ele>951.0</ele><time>2026-04-11T08:18:45.999Z</time></trkpt><trkpt lat="46.07574337969123" lon="11.441274965242457"><ele>960.0</ele><time>2026-04-11T08:18:46.999Z</time></trkpt><trkpt lat="46.07581980535564" lon="11.441245933166357"><ele>969.0</ele><time>2026-04-11T08:18:47.999Z</time></trkpt><trkpt lat="46.07588585274422" lon="11.441235785282238"><ele>978.0</ele><time>2026-04-11T08:18:48.999Z</time></trkpt><trkpt lat="46.07595319678256" lon="11.441232883268482"><ele>987.0</ele><time>2026-04-11T08:18:49.999Z</time></trkpt><trkpt lat="46.076021222718374" lon="11.441204681742867"><ele>996.0</ele><time>2026-04-11T08:18:50.999Z</time></trkpt><trkpt lat="46.07610129005702" lon="11.441221110938494"><ele>1005.0</ele><time>2026-04-11T08:18:51.999Z</time></trkpt><trkpt lat="46.0761875547146" lon="11.441218742144018"><ele>1005.0</ele><time>2026-04-11T08:18:52.999Z</time></trkpt><trkpt lat="46.076304862095434" lon="11.441168779306235"><ele>1005.0</ele><time>2026-04-11T08:18:53.999Z</time></trkpt><trkpt lat="46.0763842536889" lon="11.4411964914714"><ele>1005.0</ele><time>2026-04-11T08:18:54.999Z</time></trkpt><trkpt lat="46.07648497544844" lon="11.441152866971477"><ele>1005.0</ele><time>2026-04-11T08:18:56.999Z</time></trkpt><trkpt lat="46.076554112299334" lon="11.441118243844775"><ele>1005.0</ele><time>2026-04-11T08:18:57.999Z</time></trkpt><trkpt lat="46.0766632437024" lon="11.44107781807483"><ele>1009.6</ele><time>2026-04-11T08:18:58.999Z</time></trkpt><trkpt lat="46.07676278222311" lon="11.44112503806447"><ele>1014.2</ele><time>2026-04-11T08:19:01.999Z</time></trkpt><trkpt lat="46.076834846693664" lon="11.4411567398004"><ele>1018.8</ele><time>2026-04-11T08:19:02.999Z</time></trkpt><trkpt lat="46.07672086927096" lon="11.441091082528253"><ele>1023.4</ele><time>2026-04-11T08:19:03.999Z</time></trkpt><trkpt lat="46.076787981776" lon="11.441116784134664"><ele>1028.0</ele><time>2026-04-11T08:19:04.999Z</time></trkpt><trkpt lat="46.07691934722683" lon="11.441119271519977"><ele>1028.0</ele><time>2026-04-11T08:19:06.999Z</time></trkpt><trkpt lat="46.07701978286792" lon="11.441170218381801"><ele>1028.0</ele><time>2026-04-11T08:19:07.999Z</time></trkpt><trkpt lat="46.077090893872715" lon="11.441136328229563"><ele>1028.0</ele><time>2026-04-11T08:19:08.999Z</time></trkpt><trkpt lat="46.077214483214554" lon="11.441110882317341"><ele>1028.0</ele><time>2026-04-11T08:19:09.999Z</time></trkpt><trkpt lat="46.077366239779224" lon="11.441093479638914"><ele>1031.0</ele><time>2026-04-11T08:19:10.999Z</time></trkpt><trkpt lat="46.07748294591608" lon="11.441107291394985"><ele>1034.0</ele><time>2026-04-11T08:19:11.999Z</time></trkpt><trkpt lat="46.07756956415928" lon="11.44110703973821"><ele>1037.0</ele><time>2026-04-11T08:19:12.999Z</time></trkpt><trkpt lat="46.077689535772016" lon="11.44104431847279"><ele>1040.0</ele><time>2026-04-11T08:19:13.999Z</time></trkpt><trkpt lat="46.07777083347499" lon="11.440989554012665"><ele>1043.0</ele><time>2026-04-11T08:19:14.999Z</time></trkpt><trkpt lat="46.07784628238533" lon="11.440961711906185"><ele>1043.0</ele><time>2026-04-11T08:19:17.999Z</time></trkpt><trkpt lat="46.0777654170721" lon="11.440917500069201"><ele>1043.0</ele><time>2026-04-11T08:19:20.999Z</time></trkpt><trkpt lat="46.077761204878755" lon="11.440821942347478"><ele>1043.0</ele><time>2026-04-11T08:19:23.999Z</time></trkpt><trkpt lat="46.077854808801945" lon="11.440738836253564"><ele>1043.0</ele><time>2026-04-11T08:19:26.999Z</time></trkpt><trkpt lat="46.07796247131741" lon="11.440788051837504"><ele>1043.0</ele><time>2026-04-11T08:19:30.999Z</time></trkpt><trkpt lat="46.07831248285135" lon="11.440717525034923"><ele>1042.8</ele><time>2026-04-11T08:19:31.999Z</time></trkpt><trkpt lat="46.078392080185594" lon="11.44073551104774"><ele>1042.6</ele><time>2026-04-11T08:19:32.999Z</time></trkpt><trkpt lat="46.07851171763341" lon="11.44070716194063"><ele>1042.4</ele><time>2026-04-11T08:19:33.999Z</time></trkpt><trkpt lat="46.07859846731605" lon="11.440681049607546"><ele>1042.2</ele><time>2026-04-11T08:19:34.999Z</time></trkpt><trkpt lat="46.07868748670395" lon="11.44060235462073"><ele>1042.0</ele><time>2026-04-11T08:19:35.999Z</time></trkpt><trkpt lat="46.07878707001928" lon="11.440644222044396"><ele>1042.0</ele><time>2026-04-11T08:19:37Z</time></trkpt><trkpt lat="46.07887767262448" lon="11.440660667793885"><ele>1042.0</ele><time>2026-04-11T08:19:38Z</time></trkpt><trkpt lat="46.078973916705806" lon="11.440691231941388"><ele>1042.0</ele><time>2026-04-11T08:19:39Z</time></trkpt><trkpt lat="46.079050525100826" lon="11.440732234318805"><ele>1042.0</ele><time>2026-04-11T08:19:40Z</time></trkpt><trkpt lat="46.07913689202744" lon="11.44072708400955"><ele>1042.0</ele><time>2026-04-11T08:19:41Z</time></trkpt><trkpt lat="46.079271835844715" lon="11.440709589633576"><ele>1044.6666666666665</ele><time>2026-04-11T08:19:43Z</time></trkpt><trkpt lat="46.07936526346836" lon="11.44066812320591"><ele>1047.3333333333333</ele><time>2026-04-11T08:19:45Z</time></trkpt><trkpt lat="46.07943777934786" lon="11.440630698111269"><ele>1050.0</ele><time>2026-04-11T08:19:46Z</time></trkpt><trkpt lat="46.07949235819889" lon="11.440688044656664"><ele>1052.6666666666667</ele><time>2026-04-11T08:19:47Z</time></trkpt><trkpt lat="46.07962458741266" lon="11.440669590161901"><ele>1055.3333333333335</ele><time>2026-04-11T08:19:49Z</time></trkpt><trkpt lat="46.079690501950026" lon="11.440658628084355"><ele>1058.0</ele><time>2026-04-11T08:19:50Z</time></trkpt><trkpt lat="46.07976437943696" lon="11.440628391405196"><ele>1058.0</ele><time>2026-04-11T08:19:51Z</time></trkpt><trkpt lat="46.07985235063744" lon="11.440621495871799"><ele>1058.0</ele><time>2026-04-11T08:19:54Z</time></trkpt><trkpt lat="46.079934275108094" lon="11.440651912094083"><ele>1058.0</ele><time>2026-04-11T08:19:56Z</time></trkpt><trkpt lat="46.08005540710133" lon="11.44065234914866"><ele>1058.0</ele><time>2026-04-11T08:19:58Z</time></trkpt><trkpt lat="46.0801238633963" lon="11.440554296210708"><ele>1058.0</ele><time>2026-04-11T08:20:00Z</time></trkpt><trkpt lat="46.08012319049657" lon="11.440442936315012"><ele>1067.6</ele><time>2026-04-11T08:20:01Z</time></trkpt><trkpt lat="46.080111623730296" lon="11.440346525927133"><ele>1077.1999999999998</ele><time>2026-04-11T08:20:02Z</time></trkpt><trkpt lat="46.08012679408775" lon="11.440234628487795"><ele>1086.8</ele><time>2026-04-11T08:20:03Z</time></trkpt><trkpt lat="46.08015760894565" lon="11.440057167765115"><ele>1096.3999999999999</ele><time>2026-04-11T08:20:04Z</time></trkpt><trkpt lat="46.080220264904305" lon="11.439889110004533"><ele>1106.0</ele><time>2026-04-11T08:20:05Z</time></trkpt><trkpt lat="46.08025510915763" lon="11.439761874473184"><ele>1106.0</ele><time>2026-04-11T08:20:06Z</time></trkpt><trkpt lat="46.080270429676006" lon="11.439658920978049"><ele>1106.0</ele><time>2026-04-11T08:20:07Z</time></trkpt><trkpt lat="46.08029220040791" lon="11.439549864028399"><ele>1106.0</ele><time>2026-04-11T08:20:08Z</time></trkpt><trkpt lat="46.08031635173862" lon="11.439409164476846"><ele>1106.0</ele><time>2026-04-11T08:20:09Z</time></trkpt><trkpt lat="46.08040394360562" lon="11.43931451888619"><ele>1106.0</ele><time>2026-04-11T08:20:12Z</time></trkpt><trkpt lat="46.080523314714945" lon="11.43924482796742"><ele>1108.6666666666667</ele><time>2026-04-11T08:20:13Z</time></trkpt><trkpt lat="46.08058485899956" lon="11.439166195893653"><ele>1111.3333333333335</ele><time>2026-04-11T08:20:14Z</time></trkpt><trkpt lat="46.08064796598954" lon="11.43908279713976"><ele>1114.0</ele><time>2026-04-11T08:20:15Z</time></trkpt><trkpt lat="46.08071797491106" lon="11.4389893024336"><ele>1116.6666666666667</ele><time>2026-04-11T08:20:16Z</time></trkpt><trkpt lat="46.08077325723658" lon="11.438920090008898"><ele>1119.3333333333333</ele><time>2026-04-11T08:20:17Z</time></trkpt><trkpt lat="46.0808427960241" lon="11.438856586596216"><ele>1122.0</ele><time>2026-04-11T08:20:18Z</time></trkpt><trkpt lat="46.080929406367154" lon="11.438732239266958"><ele>1128.6</ele><time>2026-04-11T08:20:19Z</time></trkpt><trkpt lat="46.08098358565505" lon="11.438645889147242"><ele>1135.2</ele><time>2026-04-11T08:20:20Z</time></trkpt><trkpt lat="46.081085093510204" lon="11.438541652263847"><ele>1141.8</ele><time>2026-04-11T08:20:22Z</time></trkpt><trkpt lat="46.08118855063464" lon="11.438411738159436"><ele>1148.4</ele><time>2026-04-11T08:20:25Z</time></trkpt><trkpt lat="46.08125362578191" lon="11.4383416025439"><ele>1155.0</ele><time>2026-04-11T08:20:26Z</time></trkpt><trkpt lat="46.0813595948877" lon="11.438261933911607"><ele>1155.0</ele><time>2026-04-11T08:20:28Z</time></trkpt><trkpt lat="46.081410454436295" lon="11.438148453004494"><ele>1155.0</ele><time>2026-04-11T08:20:29Z</time></trkpt><trkpt lat="46.08147079429797" lon="11.438037749195653"><ele>1155.0</ele><time>2026-04-11T08:20:30Z</time></trkpt><trkpt lat="46.08152716610173" lon="11.437958932344536"><ele>1155.0</ele><time>2026-04-11T08:20:31Z</time></trkpt><trkpt lat="46.08158610211171" lon="11.437865671664344"><ele>1155.0</ele><time>2026-04-11T08:20:32Z</time></trkpt><trkpt lat="46.08164458678577" lon="11.437762530932927"><ele>1159.5</ele><time>2026-04-11T08:20:33Z</time></trkpt><trkpt lat="46.081710474868366" lon="11.437673044885665"><ele>1164.0</ele><time>2026-04-11T08:20:34Z</time></trkpt><trkpt lat="46.08177341313778" lon="11.437543765828442"><ele>1168.5</ele><time>2026-04-11T08:20:39Z</time></trkpt><trkpt lat="46.08180726422625" lon="11.437448655777125"><ele>1173.0</ele><time>2026-04-11T08:20:42.999Z</time></trkpt><trkpt lat="46.0820802541243" lon="11.437053432739525"><ele>1176.0</ele><time>2026-04-11T08:20:44.999Z</time></trkpt><trkpt lat="46.08216046450321" lon="11.436980090175451"><ele>1179.0</ele><time>2026-04-11T08:20:45.999Z</time></trkpt><trkpt lat="46.082277460304425" lon="11.436886614369174"><ele>1182.0</ele><time>2026-04-11T08:20:46.999Z</time></trkpt><trkpt lat="46.08235487129059" lon="11.436713951339739"><ele>1185.0</ele><time>2026-04-11T08:20:47.999Z</time></trkpt><trkpt lat="46.0824551568042" lon="11.436457522452878"><ele>1193.6666666666667</ele><time>2026-04-11T08:20:48.999Z</time></trkpt><trkpt lat="46.08253084364651" lon="11.436210043269519"><ele>1202.3333333333335</ele><time>2026-04-11T08:20:49.999Z</time></trkpt><trkpt lat="46.082671043578806" lon="11.436007483128023"><ele>1211.0</ele><time>2026-04-11T08:20:50.999Z</time></trkpt><trkpt lat="46.08273495864699" lon="11.435822270398065"><ele>1211.0</ele><time>2026-04-11T08:20:51.999Z</time></trkpt><trkpt lat="46.082824301925484" lon="11.435671537643875"><ele>1211.0</ele><time>2026-04-11T08:20:52.999Z</time></trkpt><trkpt lat="46.08291190603292" lon="11.435516372443002"><ele>1211.0</ele><time>2026-04-11T08:20:53.999Z</time></trkpt><trkpt lat="46.082949615402434" lon="11.435273063690437"><ele>1211.0</ele><time>2026-04-11T08:20:54.999Z</time></trkpt><trkpt lat="46.083044423755005" lon="11.435096252315644"><ele>1210.75</ele><time>2026-04-11T08:20:55.999Z</time></trkpt><trkpt lat="46.08317101453039" lon="11.434935385036624"><ele>1210.5</ele><time>2026-04-11T08:20:56.999Z</time></trkpt><trkpt lat="46.083264248581926" lon="11.434796321105273"><ele>1210.25</ele><time>2026-04-11T08:20:57.999Z</time></trkpt><trkpt lat="46.08334345783486" lon="11.434658349962206"><ele>1210.0</ele><time>2026-04-11T08:20:58.999Z</time></trkpt><trkpt lat="46.08340216898489" lon="11.434574232870439"><ele>1210.0</ele><time>2026-04-11T08:20:59.999Z</time></trkpt><trkpt lat="46.08332300714339" lon="11.434712236559147"><ele>1210.0</ele><time>2026-04-11T08:21:00.999Z</time></trkpt><trkpt lat="46.08340896372027" lon="11.434536675206072"><ele>1210.0</ele><time>2026-04-11T08:21:01.999Z</time></trkpt><trkpt lat="46.0834870325781" lon="11.434381362666892"><ele>1210.0</ele><time>2026-04-11T08:21:02.999Z</time></trkpt><trkpt lat="46.08356436248324" lon="11.43426697635564"><ele>1214.0</ele><time>2026-04-11T08:21:03.999Z</time></trkpt><trkpt lat="46.08359579848168" lon="11.434149074917233"><ele>1218.0</ele><time>2026-04-11T08:21:06.999Z</time></trkpt><trkpt lat="46.083524025309096" lon="11.434194772015214"><ele>1222.0</ele><time>2026-04-11T08:21:07.999Z</time></trkpt><trkpt lat="46.08346387645294" lon="11.434244141901264"><ele>1226.0</ele><time>2026-04-11T08:21:08.999Z</time></trkpt><trkpt lat="46.08341218798254" lon="11.434311527402203"><ele>1230.0</ele><time>2026-04-11T08:21:09.999Z</time></trkpt><trkpt lat="46.08330328928818" lon="11.434400519742804"><ele>1234.0</ele><time>2026-04-11T08:21:10.999Z</time></trkpt><trkpt lat="46.08316866178393" lon="11.434513124827314"><ele>1239.75</ele><time>2026-04-11T08:21:11.999Z</time></trkpt><trkpt lat="46.08301668471198" lon="11.434600609543473"><ele>1245.5</ele><time>2026-04-11T08:21:12.999Z</time></trkpt><trkpt lat="46.08294266536872" lon="11.43461918734641"><ele>1251.25</ele><time>2026-04-11T08:21:13.999Z</time></trkpt><trkpt lat="46.08297670936979" lon="11.434474647332008"><ele>1257.0</ele><time>2026-04-11T08:21:17.999Z</time></trkpt><trkpt lat="46.08306345779892" lon="11.434389401475245"><ele>1257.0</ele><time>2026-04-11T08:21:18.999Z</time></trkpt><trkpt lat="46.08316226356191" lon="11.434272349260237"><ele>1257.0</ele><time>2026-04-11T08:21:19.999Z</time></trkpt><trkpt lat="46.08326789579476" lon="11.434113685659774"><ele>1257.0</ele><time>2026-04-11T08:21:20.999Z</time></trkpt><trkpt lat="46.08339264064174" lon="11.433936765407692"><ele>1260.0</ele><time>2026-04-11T08:21:21.999Z</time></trkpt><trkpt lat="46.08350837013323" lon="11.433728531619597"><ele>1263.0</ele><time>2026-04-11T08:21:22.999Z</time></trkpt><trkpt lat="46.083630771201776" lon="11.433540655156378"><ele>1266.0</ele><time>2026-04-11T08:21:23.999Z</time></trkpt><trkpt lat="46.0837268399544" lon="11.433413531158953"><ele>1266.0</ele><time>2026-04-11T08:21:24.999Z</time></trkpt><trkpt lat="46.08380707890121" lon="11.43327203845848"><ele>1266.0</ele><time>2026-04-11T08:21:25.999Z</time></trkpt><trkpt lat="46.08386545929178" lon="11.433084507640455"><ele>1266.0</ele><time>2026-04-11T08:21:26.999Z</time></trkpt><trkpt lat="46.0839254191301" lon="11.432961513943578"><ele>1266.0</ele><time>2026-04-11T08:21:27.999Z</time></trkpt><trkpt lat="46.08395079792212" lon="11.432875343381017"><ele>1266.0</ele><time>2026-04-11T08:21:29.999Z</time></trkpt><trkpt lat="46.084064612738665" lon="11.432727796554015"><ele>1266.0</ele><time>2026-04-11T08:21:31.999Z</time></trkpt><trkpt lat="46.08414608297891" lon="11.432647508223196"><ele>1266.0</ele><time>2026-04-11T08:21:32.999Z</time></trkpt><trkpt lat="46.084252255320735" lon="11.432570338497118"><ele>1266.0</ele><time>2026-04-11T08:21:33.999Z</time></trkpt><trkpt lat="46.084359211625944" lon="11.432526427192812"><ele>1266.0</ele><time>2026-04-11T08:21:34.999Z</time></trkpt><trkpt lat="46.084448272082156" lon="11.432474796718248"><ele>1266.0</ele><time>2026-04-11T08:21:35.999Z</time></trkpt><trkpt lat="46.08456342902106" lon="11.432403941125218"><ele>1266.0</ele><time>2026-04-11T08:21:36.999Z</time></trkpt><trkpt lat="46.084639556410906" lon="11.432284615731724"><ele>1266.0</ele><time>2026-04-11T08:21:37.999Z</time></trkpt><trkpt lat="46.08469921948861" lon="11.432166436427433"><ele>1266.0</ele><time>2026-04-11T08:21:38.999Z</time></trkpt><trkpt lat="46.084740254222424" lon="11.4319970332657"><ele>1266.0</ele><time>2026-04-11T08:21:39.999Z</time></trkpt><trkpt lat="46.08479134082923" lon="11.43181954783195"><ele>1272.0</ele><time>2026-04-11T08:21:40.999Z</time></trkpt><trkpt lat="46.084817496601005" lon="11.43163310909923"><ele>1278.0</ele><time>2026-04-11T08:21:41.999Z</time></trkpt><trkpt lat="46.084859626064464" lon="11.43141729885464"><ele>1284.0</ele><time>2026-04-11T08:21:43Z</time></trkpt><trkpt lat="46.0849338254845" lon="11.431262616230647"><ele>1290.0</ele><time>2026-04-11T08:21:44Z</time></trkpt><trkpt lat="46.085044244578384" lon="11.43112864983755"><ele>1292.3333333333333</ele><time>2026-04-11T08:21:45Z</time></trkpt><trkpt lat="46.08517717891068" lon="11.430971420738823"><ele>1294.6666666666665</ele><time>2026-04-11T08:21:46Z</time></trkpt><trkpt lat="46.0853117082497" lon="11.430780254283134"><ele>1297.0</ele><time>2026-04-11T08:21:47Z</time></trkpt><trkpt lat="46.0854391274078" lon="11.43061473923206"><ele>1297.0</ele><time>2026-04-11T08:21:48Z</time></trkpt><trkpt lat="46.08558550607959" lon="11.430515358366675"><ele>1297.0</ele><time>2026-04-11T08:21:49Z</time></trkpt><trkpt lat="46.08577376698254" lon="11.43045645149122"><ele>1297.0</ele><time>2026-04-11T08:21:50Z</time></trkpt><trkpt lat="46.08596214099859" lon="11.430389067478139"><ele>1303.0</ele><time>2026-04-11T08:21:51Z</time></trkpt><trkpt lat="46.086149516208565" lon="11.43031094959369"><ele>1309.0</ele><time>2026-04-11T08:21:52Z</time></trkpt><trkpt lat="46.08633005629174" lon="11.430250802020856"><ele>1315.0</ele><time>2026-04-11T08:21:53Z</time></trkpt><trkpt lat="46.086462642791766" lon="11.430199236983979"><ele>1315.0</ele><time>2026-04-11T08:21:54Z</time></trkpt><trkpt lat="46.086559451562614" lon="11.430112890089104"><ele>1315.0</ele><time>2026-04-11T08:21:55Z</time></trkpt><trkpt lat="46.08665711170065" lon="11.429985103880025"><ele>1315.0</ele><time>2026-04-11T08:21:56Z</time></trkpt><trkpt lat="46.08675940639017" lon="11.429840593456596"><ele>1315.0</ele><time>2026-04-11T08:21:57Z</time></trkpt><trkpt lat="46.08687444892159" lon="11.429661382758304"><ele>1319.0</ele><time>2026-04-11T08:21:58Z</time></trkpt><trkpt lat="46.08698348060848" lon="11.429493831156917"><ele>1323.0</ele><time>2026-04-11T08:21:59Z</time></trkpt><trkpt lat="46.08711043292856" lon="11.429333620804238"><ele>1327.0</ele><time>2026-04-11T08:22:00Z</time></trkpt><trkpt lat="46.087242535833" lon="11.42917049438756"><ele>1327.0</ele><time>2026-04-11T08:22:01Z</time></trkpt><trkpt lat="46.08737968459" lon="11.429017862748607"><ele>1327.0</ele><time>2026-04-11T08:22:02Z</time></trkpt><trkpt lat="46.0875172991104" lon="11.428878723914998"><ele>1327.0</ele><time>2026-04-11T08:22:03Z</time></trkpt><trkpt lat="46.08763557698447" lon="11.42872699440604"><ele>1327.0</ele><time>2026-04-11T08:22:04Z</time></trkpt><trkpt lat="46.08774786210139" lon="11.42853380353672"><ele>1327.0</ele><time>2026-04-11T08:22:05Z</time></trkpt><trkpt lat="46.08784991651948" lon="11.428366506201167"><ele>1327.0</ele><time>2026-04-11T08:22:06Z</time></trkpt><trkpt lat="46.08795757769861" lon="11.428255873898252"><ele>1327.0</ele><time>2026-04-11T08:22:07Z</time></trkpt><trkpt lat="46.08808624857854" lon="11.42813110954623"><ele>1327.0</ele><time>2026-04-11T08:22:08Z</time></trkpt><trkpt lat="46.088191783116166" lon="11.428093933706599"><ele>1327.0</ele><time>2026-04-11T08:22:09Z</time></trkpt><trkpt lat="46.088282626790864" lon="11.428020330434626"><ele>1327.0</ele><time>2026-04-11T08:22:10Z</time></trkpt><trkpt lat="46.08835663420573" lon="11.427928616660347"><ele>1327.0</ele><time>2026-04-11T08:22:11Z</time></trkpt><trkpt lat="46.088414341136826" lon="11.427798714326872"><ele>1327.0</ele><time>2026-04-11T08:22:12Z</time></trkpt><trkpt lat="46.08847485522192" lon="11.427627587859458"><ele>1327.0</ele><time>2026-04-11T08:22:13Z</time></trkpt><trkpt lat="46.0885775665356" lon="11.427458665460719"><ele>1327.0</ele><time>2026-04-11T08:22:14Z</time></trkpt><trkpt lat="46.088689009374676" lon="11.427303026284472"><ele>1327.0</ele><time>2026-04-11T08:22:15Z</time></trkpt><trkpt lat="46.08879211292612" lon="11.427161649520592"><ele>1327.0</ele><time>2026-04-11T08:22:16Z</time></trkpt><trkpt lat="46.08889267287518" lon="11.4270013819139"><ele>1327.0</ele><time>2026-04-11T08:22:17Z</time></trkpt><trkpt lat="46.08898617467456" lon="11.426833369620025"><ele>1327.0</ele><time>2026-04-11T08:22:18Z</time></trkpt><trkpt lat="46.08907130316229" lon="11.42665938911435"><ele>1330.25</ele><time>2026-04-11T08:22:19Z</time></trkpt><trkpt lat="46.08915435404008" lon="11.426495190163703"><ele>1333.5</ele><time>2026-04-11T08:22:20Z</time></trkpt><trkpt lat="46.08923891519485" lon="11.42633567665053"><ele>1336.75</ele><time>2026-04-11T08:22:21Z</time></trkpt><trkpt lat="46.08931387316211" lon="11.426191432594308"><ele>1340.0</ele><time>2026-04-11T08:22:22Z</time></trkpt><trkpt lat="46.08938204249364" lon="11.42607382920954"><ele>1346.6</ele><time>2026-04-11T08:22:23Z</time></trkpt><trkpt lat="46.08944580894817" lon="11.42599598747105"><ele>1353.2</ele><time>2026-04-11T08:22:24Z</time></trkpt><trkpt lat="46.08950405200924" lon="11.425938415689384"><ele>1359.8000000000002</ele><time>2026-04-11T08:22:25Z</time></trkpt><trkpt lat="46.08957880670686" lon="11.425886572770892"><ele>1366.4</ele><time>2026-04-11T08:22:26Z</time></trkpt><trkpt lat="46.08964943499534" lon="11.425798006147573"><ele>1373.0</ele><time>2026-04-11T08:22:27Z</time></trkpt><trkpt lat="46.08973896984202" lon="11.425683030143926"><ele>1373.0</ele><time>2026-04-11T08:22:28Z</time></trkpt><trkpt lat="46.08980946688265" lon="11.425536365850956"><ele>1373.0</ele><time>2026-04-11T08:22:29Z</time></trkpt><trkpt lat="46.08985538776665" lon="11.425359263028232"><ele>1373.0</ele><time>2026-04-11T08:22:30Z</time></trkpt><trkpt lat="46.08993437481608" lon="11.425179197366914"><ele>1373.0</ele><time>2026-04-11T08:22:31Z</time></trkpt><trkpt lat="46.090032044526794" lon="11.425012087292517"><ele>1371.3333333333335</ele><time>2026-04-11T08:22:32Z</time></trkpt><trkpt lat="46.09012162843029" lon="11.424770398991832"><ele>1369.6666666666667</ele><time>2026-04-11T08:22:33Z</time></trkpt><trkpt lat="46.09022309563486" lon="11.424479224525752"><ele>1368.0</ele><time>2026-04-11T08:22:34Z</time></trkpt><trkpt lat="46.09029191020633" lon="11.424253182535839"><ele>1374.0</ele><time>2026-04-11T08:22:35Z</time></trkpt><trkpt lat="46.09034948870517" lon="11.424057999043011"><ele>1380.0</ele><time>2026-04-11T08:22:36Z</time></trkpt><trkpt lat="46.09039494804523" lon="11.423896716466347"><ele>1386.0</ele><time>2026-04-11T08:22:37Z</time></trkpt><trkpt lat="46.090418770938456" lon="11.423716295353428"><ele>1392.0</ele><time>2026-04-11T08:22:38Z</time></trkpt><trkpt lat="46.09044656204387" lon="11.423542377411849"><ele>1394.5</ele><time>2026-04-11T08:22:39Z</time></trkpt><trkpt lat="46.09046159941311" lon="11.423399783987962"><ele>1397.0</ele><time>2026-04-11T08:22:41Z</time></trkpt><trkpt lat="46.09044991459205" lon="11.423273189637507"><ele>1399.5</ele><time>2026-04-11T08:22:43Z</time></trkpt><trkpt lat="46.09044344832506" lon="11.423061003615489"><ele>1402.0</ele><time>2026-04-11T08:22:45Z</time></trkpt><trkpt lat="46.090446621786846" lon="11.422879138002074"><ele>1402.0</ele><time>2026-04-11T08:22:45.999Z</time></trkpt><trkpt lat="46.090502784177204" lon="11.422749636643339"><ele>1402.0</ele><time>2026-04-11T08:22:46.999Z</time></trkpt><trkpt lat="46.09057885649021" lon="11.422626590325521"><ele>1402.0</ele><time>2026-04-11T08:22:47.999Z</time></trkpt><trkpt lat="46.09064874292763" lon="11.422499925100983"><ele>1402.0</ele><time>2026-04-11T08:22:48.999Z</time></trkpt><trkpt lat="46.09070943101669" lon="11.422395229621808"><ele>1402.0</ele><time>2026-04-11T08:22:49.999Z</time></trkpt><trkpt lat="46.09077204604987" lon="11.42226568216326"><ele>1402.0</ele><time>2026-04-11T08:22:50.999Z</time></trkpt><trkpt lat="46.09079944039831" lon="11.422153327138181"><ele>1402.0</ele><time>2026-04-11T08:22:51.999Z</time></trkpt><trkpt lat="46.090831204041685" lon="11.422039968192774"><ele>1402.0</ele><time>2026-04-11T08:22:52.999Z</time></trkpt><trkpt lat="46.09087461218787" lon="11.421968044268588"><ele>1402.0</ele><time>2026-04-11T08:22:53.999Z</time></trkpt><trkpt lat="46.0909471622795" lon="11.421923777878522"><ele>1402.0</ele><time>2026-04-11T08:22:54.999Z</time></trkpt><trkpt lat="46.09105143636463" lon="11.421892922477646"><ele>1402.0</ele><time>2026-04-11T08:22:55.999Z</time></trkpt><trkpt lat="46.09111450312292" lon="11.421843465508108"><ele>1402.0</ele><time>2026-04-11T08:22:56.999Z</time></trkpt><trkpt lat="46.09115875114183" lon="11.421731011154074"><ele>1402.0</ele><time>2026-04-11T08:22:57.999Z</time></trkpt><trkpt lat="46.09117377929647" lon="11.421602956153057"><ele>1402.0</ele><time>2026-04-11T08:22:58.999Z</time></trkpt><trkpt lat="46.091209380988424" lon="11.421464464176607"><ele>1402.0</ele><time>2026-04-11T08:22:59.999Z</time></trkpt><trkpt lat="46.09126848604561" lon="11.421349764351305"><ele>1402.0</ele><time>2026-04-11T08:23:00.999Z</time></trkpt><trkpt lat="46.09132071129039" lon="11.42121642391867"><ele>1407.5</ele><time>2026-04-11T08:23:01.999Z</time></trkpt><trkpt lat="46.09138583825347" lon="11.421091016914716"><ele>1413.0</ele><time>2026-04-11T08:23:02.999Z</time></trkpt><trkpt lat="46.091447837875016" lon="11.420949268429416"><ele>1418.5</ele><time>2026-04-11T08:23:03.999Z</time></trkpt><trkpt lat="46.09150204048996" lon="11.420796218025453"><ele>1424.0</ele><time>2026-04-11T08:23:04.999Z</time></trkpt><trkpt lat="46.09155894754977" lon="11.4206466361907"><ele>1422.25</ele><time>2026-04-11T08:23:05.999Z</time></trkpt><trkpt lat="46.091626606174565" lon="11.42048689381052"><ele>1420.5</ele><time>2026-04-11T08:23:06.999Z</time></trkpt><trkpt lat="46.0916767723225" lon="11.420338959105532"><ele>1418.75</ele><time>2026-04-11T08:23:07.999Z</time></trkpt><trkpt lat="46.09172048421438" lon="11.420195576107254"><ele>1417.0</ele><time>2026-04-11T08:23:08.999Z</time></trkpt><trkpt lat="46.09178913417346" lon="11.420042211755185"><ele>1417.0</ele><time>2026-04-11T08:23:09.999Z</time></trkpt><trkpt lat="46.091875092101596" lon="11.419943200524129"><ele>1417.0</ele><time>2026-04-11T08:23:10.999Z</time></trkpt><trkpt lat="46.09197029541476" lon="11.41985945269658"><ele>1417.0</ele><time>2026-04-11T08:23:11.999Z</time></trkpt><trkpt lat="46.092076591233194" lon="11.419758209681014"><ele>1417.0</ele><time>2026-04-11T08:23:12.999Z</time></trkpt><trkpt lat="46.09214398512385" lon="11.41966457458186"><ele>1417.0</ele><time>2026-04-11T08:23:13.999Z</time></trkpt><trkpt lat="46.09221089760334" lon="11.419555487081041"><ele>1417.25</ele><time>2026-04-11T08:23:14.999Z</time></trkpt><trkpt lat="46.092279147240916" lon="11.419416305307406"><ele>1417.5</ele><time>2026-04-11T08:23:15.999Z</time></trkpt><trkpt lat="46.092351171629176" lon="11.41921836559344"><ele>1417.75</ele><time>2026-04-11T08:23:16.999Z</time></trkpt><trkpt lat="46.09240942337885" lon="11.419013159885258"><ele>1418.0</ele><time>2026-04-11T08:23:17.999Z</time></trkpt><trkpt lat="46.09244315054963" lon="11.418806234455497"><ele>1418.0</ele><time>2026-04-11T08:23:18.999Z</time></trkpt><trkpt lat="46.0924520400151" lon="11.418592499954235"><ele>1418.0</ele><time>2026-04-11T08:23:19.999Z</time></trkpt><trkpt lat="46.09242286323424" lon="11.418437141650736"><ele>1418.0</ele><time>2026-04-11T08:23:20.999Z</time></trkpt><trkpt lat="46.09242775226364" lon="11.418339647819959"><ele>1418.0</ele><time>2026-04-11T08:23:21.999Z</time></trkpt><trkpt lat="46.09239068107072" lon="11.418207174363085"><ele>1418.0</ele><time>2026-04-11T08:23:23.999Z</time></trkpt><trkpt lat="46.09237308051683" lon="11.41808929635399"><ele>1419.8000000000002</ele><time>2026-04-11T08:23:26.999Z</time></trkpt><trkpt lat="46.09248147763948" lon="11.417952818168779"><ele>1421.6</ele><time>2026-04-11T08:23:27.999Z</time></trkpt><trkpt lat="46.09255294856385" lon="11.417875403146704"><ele>1423.4</ele><time>2026-04-11T08:23:29.999Z</time></trkpt><trkpt lat="46.09262348274977" lon="11.417839498516761"><ele>1425.1999999999998</ele><time>2026-04-11T08:23:30.999Z</time></trkpt><trkpt lat="46.09268256862692" lon="11.417758288286896"><ele>1427.0</ele><time>2026-04-11T08:23:31.999Z</time></trkpt><trkpt lat="46.09271125395942" lon="11.417654221393796"><ele>1427.0</ele><time>2026-04-11T08:23:32.999Z</time></trkpt><trkpt lat="46.09275804759863" lon="11.41748745473472"><ele>1427.0</ele><time>2026-04-11T08:23:34.999Z</time></trkpt><trkpt lat="46.09279219184037" lon="11.417383237781447"><ele>1427.0</ele><time>2026-04-11T08:23:35.999Z</time></trkpt><trkpt lat="46.09282900618231" lon="11.417277313966508"><ele>1427.0</ele><time>2026-04-11T08:23:36.999Z</time></trkpt><trkpt lat="46.09286968748657" lon="11.417154604875876"><ele>1427.0</ele><time>2026-04-11T08:23:37.999Z</time></trkpt><trkpt lat="46.09291034888442" lon="11.417046456812319"><ele>1430.0</ele><time>2026-04-11T08:23:38.999Z</time></trkpt><trkpt lat="46.09294838391165" lon="11.416955158187621"><ele>1433.0</ele><time>2026-04-11T08:23:39.999Z</time></trkpt><trkpt lat="46.09297782353668" lon="11.416865200932694"><ele>1436.0</ele><time>2026-04-11T08:23:40.999Z</time></trkpt><trkpt lat="46.09301524856502" lon="11.41676084273443"><ele>1439.0</ele><time>2026-04-11T08:23:41.999Z</time></trkpt><trkpt lat="46.093043564963764" lon="11.416650031181453"><ele>1442.0</ele><time>2026-04-11T08:23:42.999Z</time></trkpt><trkpt lat="46.093063994127576" lon="11.416541669623106"><ele>1445.0</ele><time>2026-04-11T08:23:43.999Z</time></trkpt><trkpt lat="46.09309491609242" lon="11.416393983537171"><ele>1447.6</ele><time>2026-04-11T08:23:44.999Z</time></trkpt><trkpt lat="46.09314173756334" lon="11.416227287069583"><ele>1450.2</ele><time>2026-04-11T08:23:45.999Z</time></trkpt><trkpt lat="46.09317655427547" lon="11.41611020628671"><ele>1452.8000000000002</ele><time>2026-04-11T08:23:46.999Z</time></trkpt><trkpt lat="46.09321588954913" lon="11.415953616632091"><ele>1455.4</ele><time>2026-04-11T08:23:49Z</time></trkpt><trkpt lat="46.093224253016515" lon="11.415808702197143"><ele>1458.0</ele><time>2026-04-11T08:23:51Z</time></trkpt><trkpt lat="46.093207078403594" lon="11.415713474262061"><ele>1458.0</ele><time>2026-04-11T08:23:52Z</time></trkpt><trkpt lat="46.09316899699754" lon="11.415592560047871"><ele>1458.0</ele><time>2026-04-11T08:23:53Z</time></trkpt><trkpt lat="46.093119180255" lon="11.415475837270751"><ele>1458.0</ele><time>2026-04-11T08:23:54Z</time></trkpt><trkpt lat="46.093082744129205" lon="11.415353539173687"><ele>1458.0</ele><time>2026-04-11T08:23:55Z</time></trkpt><trkpt lat="46.09306467265449" lon="11.415262057766562"><ele>1458.0</ele><time>2026-04-11T08:23:56Z</time></trkpt><trkpt lat="46.09305487189721" lon="11.415169450036949"><ele>1458.0</ele><time>2026-04-11T08:23:57Z</time></trkpt><trkpt lat="46.09301647190406" lon="11.415064536918642"><ele>1463.0</ele><time>2026-04-11T08:23:59Z</time></trkpt><trkpt lat="46.09301487223807" lon="11.414937785684936"><ele>1468.0</ele><time>2026-04-11T08:24:01Z</time></trkpt><trkpt lat="46.0930051624844" lon="11.414812968297415"><ele>1473.0</ele><time>2026-04-11T08:24:03Z</time></trkpt><trkpt lat="46.093005291047554" lon="11.414704701058303"><ele>1478.0</ele><time>2026-04-11T08:24:05Z</time></trkpt><trkpt lat="46.093107632384324" lon="11.41436178542217"><ele>1480.6000000000001</ele><time>2026-04-11T08:24:06Z</time></trkpt><trkpt lat="46.09317065193154" lon="11.414276565700392"><ele>1483.2</ele><time>2026-04-11T08:24:07Z</time></trkpt><trkpt lat="46.09325600653913" lon="11.414208914881282"><ele>1485.8</ele><time>2026-04-11T08:24:08Z</time></trkpt><trkpt lat="46.09329448130976" lon="11.414049862026774"><ele>1488.4</ele><time>2026-04-11T08:24:09Z</time></trkpt><trkpt lat="46.09332397119107" lon="11.413853803570708"><ele>1491.0</ele><time>2026-04-11T08:24:10Z</time></trkpt><trkpt lat="46.09334205767621" lon="11.413724446923867"><ele>1493.6</ele><time>2026-04-11T08:24:11Z</time></trkpt><trkpt lat="46.09324878853795" lon="11.413584926665528"><ele>1496.1999999999998</ele><time>2026-04-11T08:24:12Z</time></trkpt><trkpt lat="46.093152070838094" lon="11.413592431506295"><ele>1498.8000000000002</ele><time>2026-04-11T08:24:13Z</time></trkpt><trkpt lat="46.09311269157042" lon="11.413498025681355"><ele>1501.4</ele><time>2026-04-11T08:24:14Z</time></trkpt><trkpt lat="46.0930609515094" lon="11.413404593372773"><ele>1504.0</ele><time>2026-04-11T08:24:15Z</time></trkpt><trkpt lat="46.0929915543466" lon="11.413332932547913"><ele>1504.0</ele><time>2026-04-11T08:24:16Z</time></trkpt><trkpt lat="46.09294257829766" lon="11.413271012082449"><ele>1504.0</ele><time>2026-04-11T08:24:17Z</time></trkpt><trkpt lat="46.09288587207642" lon="11.413227420290546"><ele>1504.0</ele><time>2026-04-11T08:24:19Z</time></trkpt><trkpt lat="46.09280799140437" lon="11.413163809223633"><ele>1504.0</ele><time>2026-04-11T08:24:21Z</time></trkpt><trkpt lat="46.09270538753401" lon="11.413094547989596"><ele>1504.0</ele><time>2026-04-11T08:24:23Z</time></trkpt><trkpt lat="46.092635849533465" lon="11.413048935679518"><ele>1504.0</ele><time>2026-04-11T08:24:25Z</time></trkpt><trkpt lat="46.09256834267838" lon="11.412976912616475"><ele>1507.1666666666665</ele><time>2026-04-11T08:24:27Z</time></trkpt><trkpt lat="46.092514248132346" lon="11.412890721968852"><ele>1510.3333333333333</ele><time>2026-04-11T08:24:30Z</time></trkpt><trkpt lat="46.09244374743257" lon="11.412836363650344"><ele>1513.5</ele><time>2026-04-11T08:24:39Z</time></trkpt><trkpt lat="46.09238703673808" lon="11.412752391547416"><ele>1516.6666666666667</ele><time>2026-04-11T08:24:41Z</time></trkpt><trkpt lat="46.09233627773116" lon="11.412667441512223"><ele>1519.8333333333335</ele><time>2026-04-11T08:24:42Z</time></trkpt><trkpt lat="46.092263935114225" lon="11.412603643989707"><ele>1523.0</ele><time>2026-04-11T08:24:44Z</time></trkpt><trkpt lat="46.09219141605862" lon="11.412536597678963"><ele>1523.6000000000001</ele><time>2026-04-11T08:24:46Z</time></trkpt><trkpt lat="46.092230797110695" lon="11.412343859189432"><ele>1524.2</ele><time>2026-04-11T08:24:47.999Z</time></trkpt><trkpt lat="46.09226900856906" lon="11.41225070589049"><ele>1524.8</ele><time>2026-04-11T08:24:48.999Z</time></trkpt><trkpt lat="46.092318497965344" lon="11.412151784714133"><ele>1525.4</ele><time>2026-04-11T08:24:49.999Z</time></trkpt><trkpt lat="46.092377256123726" lon="11.412059106988256"><ele>1526.0</ele><time>2026-04-11T08:24:50.999Z</time></trkpt><trkpt lat="46.09243103432551" lon="11.411939842896807"><ele>1529.6666666666667</ele><time>2026-04-11T08:24:51.999Z</time></trkpt><trkpt lat="46.09245389296661" lon="11.411852212622762"><ele>1533.3333333333335</ele><time>2026-04-11T08:24:52.999Z</time></trkpt><trkpt lat="46.09245995744294" lon="11.411756347142267"><ele>1537.0</ele><time>2026-04-11T08:24:53.999Z</time></trkpt><trkpt lat="46.09236518401467" lon="11.41165968255186"><ele>1540.6666666666667</ele><time>2026-04-11T08:24:55.999Z</time></trkpt><trkpt lat="46.092294151794384" lon="11.411671809523332"><ele>1544.3333333333333</ele><time>2026-04-11T08:24:56.999Z</time></trkpt><trkpt lat="46.09220201575972" lon="11.411756409973885"><ele>1548.0</ele><time>2026-04-11T08:24:58.999Z</time></trkpt><trkpt lat="46.09218144269045" lon="11.411845981156947"><ele>1548.0</ele><time>2026-04-11T08:24:59.999Z</time></trkpt><trkpt lat="46.09217438184117" lon="11.411947469479866"><ele>1548.0</ele><time>2026-04-11T08:25:00.999Z</time></trkpt><trkpt lat="46.09217863418406" lon="11.412054709094807"><ele>1548.0</ele><time>2026-04-11T08:25:01.999Z</time></trkpt><trkpt lat="46.09217070729839" lon="11.412146701404344"><ele>1548.0</ele><time>2026-04-11T08:25:02.999Z</time></trkpt><trkpt lat="46.0921533042173" lon="11.412317711253548"><ele>1548.0</ele><time>2026-04-11T08:25:04.999Z</time></trkpt><trkpt lat="46.092135012882466" lon="11.412453994226654"><ele>1548.0</ele><time>2026-04-11T08:25:06.999Z</time></trkpt><trkpt lat="46.09207099530524" lon="11.4125147533892"><ele>1548.0</ele><time>2026-04-11T08:25:09.999Z</time></trkpt><trkpt lat="46.091975708682895" lon="11.412432013073321"><ele>1548.0</ele><time>2026-04-11T08:25:12.999Z</time></trkpt><trkpt lat="46.09194444042664" lon="11.412335194907394"><ele>1548.0</ele><time>2026-04-11T08:25:13.999Z</time></trkpt><trkpt lat="46.091902377257824" lon="11.412213860693583"><ele>1548.0</ele><time>2026-04-11T08:25:14.999Z</time></trkpt><trkpt lat="46.091875373732016" lon="11.412087227289923"><ele>1548.0</ele><time>2026-04-11T08:25:15.999Z</time></trkpt><trkpt lat="46.09185487431693" lon="11.411962554593991"><ele>1548.0</ele><time>2026-04-11T08:25:16.999Z</time></trkpt><trkpt lat="46.09183774473623" lon="11.411803455974566"><ele>1548.0</ele><time>2026-04-11T08:25:17.999Z</time></trkpt><trkpt lat="46.091839830933665" lon="11.411610300869448"><ele>1548.0</ele><time>2026-04-11T08:25:18.999Z</time></trkpt><trkpt lat="46.091834985674886" lon="11.411410792259803"><ele>1548.0</ele><time>2026-04-11T08:25:19.999Z</time></trkpt><trkpt lat="46.09184049932766" lon="11.411256394236368"><ele>1548.0</ele><time>2026-04-11T08:25:20.999Z</time></trkpt><trkpt lat="46.09182356325381" lon="11.4111326690648"><ele>1548.0</ele><time>2026-04-11T08:25:22.999Z</time></trkpt><trkpt lat="46.09190324287089" lon="11.411038448105707"><ele>1548.0</ele><time>2026-04-11T08:25:40.999Z</time></trkpt><trkpt lat="46.09184030773484" lon="11.411094084330664"><ele>1548.0</ele><time>2026-04-11T08:26:03Z</time></trkpt><trkpt lat="46.09180950490715" lon="11.41117790552291"><ele>1548.0</ele><time>2026-04-11T08:26:05Z</time></trkpt><trkpt lat="46.091804757906104" lon="11.41130709812487"><ele>1548.0</ele><time>2026-04-11T08:26:07Z</time></trkpt><trkpt lat="46.09181074069242" lon="11.411459027011144"><ele>1548.0</ele><time>2026-04-11T08:26:09Z</time></trkpt><trkpt lat="46.09181659659174" lon="11.411603163306573"><ele>1548.0</ele><time>2026-04-11T08:26:11Z</time></trkpt><trkpt lat="46.09182838000574" lon="11.411797107628518"><ele>1548.0</ele><time>2026-04-11T08:26:13Z</time></trkpt><trkpt lat="46.09183438604909" lon="11.411902612279027"><ele>1548.0</ele><time>2026-04-11T08:26:14Z</time></trkpt><trkpt lat="46.09183568777793" lon="11.412013074093254"><ele>1548.0</ele><time>2026-04-11T08:26:15Z</time></trkpt><trkpt lat="46.09183593290023" lon="11.412112120058344"><ele>1544.3333333333333</ele><time>2026-04-11T08:26:16Z</time></trkpt><trkpt lat="46.091829293618346" lon="11.412221664312483"><ele>1540.6666666666667</ele><time>2026-04-11T08:26:17Z</time></trkpt><trkpt lat="46.091822448709145" lon="11.41232421808262"><ele>1537.0</ele><time>2026-04-11T08:26:18Z</time></trkpt><trkpt lat="46.09179441434783" lon="11.412512008170125"><ele>1533.3333333333335</ele><time>2026-04-11T08:26:20Z</time></trkpt><trkpt lat="46.091778586976375" lon="11.412617843810152"><ele>1529.6666666666667</ele><time>2026-04-11T08:26:21Z</time></trkpt><trkpt lat="46.0917683677332" lon="11.412714945101676"><ele>1526.0</ele><time>2026-04-11T08:26:22Z</time></trkpt><trkpt lat="46.0917586866403" lon="11.412819818487211"><ele>1526.0</ele><time>2026-04-11T08:26:23Z</time></trkpt><trkpt lat="46.09174344980952" lon="11.412935995714353"><ele>1526.0</ele><time>2026-04-11T08:26:24Z</time></trkpt><trkpt lat="46.09171059427222" lon="11.413046166535644"><ele>1526.0</ele><time>2026-04-11T08:26:25Z</time></trkpt><trkpt lat="46.091668475380644" lon="11.413133197234897"><ele>1526.0</ele><time>2026-04-11T08:26:26Z</time></trkpt><trkpt lat="46.09164450020079" lon="11.413223441521945"><ele>1526.0</ele><time>2026-04-11T08:26:27Z</time></trkpt><trkpt lat="46.091638095549726" lon="11.41331431962372"><ele>1526.0</ele><time>2026-04-11T08:26:28Z</time></trkpt><trkpt lat="46.09163418991939" lon="11.413412733009343"><ele>1526.0</ele><time>2026-04-11T08:26:29Z</time></trkpt><trkpt lat="46.09163222107432" lon="11.41350803384661"><ele>1523.4285714285713</ele><time>2026-04-11T08:26:30Z</time></trkpt><trkpt lat="46.09161324033266" lon="11.413619123940089"><ele>1520.857142857143</ele><time>2026-04-11T08:26:31Z</time></trkpt><trkpt lat="46.09160007409083" lon="11.413730541956847"><ele>1518.2857142857142</ele><time>2026-04-11T08:26:32Z</time></trkpt><trkpt lat="46.09158587457685" lon="11.413839453602392"><ele>1515.7142857142858</ele><time>2026-04-11T08:26:33Z</time></trkpt><trkpt lat="46.09158208910415" lon="11.41394193505184"><ele>1513.142857142857</ele><time>2026-04-11T08:26:34Z</time></trkpt><trkpt lat="46.091580123630266" lon="11.414038079128302"><ele>1510.5714285714284</ele><time>2026-04-11T08:26:35Z</time></trkpt><trkpt lat="46.091574037140006" lon="11.414129096931264"><ele>1508.0</ele><time>2026-04-11T08:26:36Z</time></trkpt><trkpt lat="46.091570929710755" lon="11.414291632501579"><ele>1512.6000000000001</ele><time>2026-04-11T08:26:38Z</time></trkpt><trkpt lat="46.09155933027227" lon="11.414431161929125"><ele>1517.2</ele><time>2026-04-11T08:26:40Z</time></trkpt><trkpt lat="46.09154230269672" lon="11.414573923662157"><ele>1521.8</ele><time>2026-04-11T08:26:42Z</time></trkpt><trkpt lat="46.09151586549549" lon="11.414711254983692"><ele>1526.4</ele><time>2026-04-11T08:26:44Z</time></trkpt><trkpt lat="46.09151962073624" lon="11.414827016871763"><ele>1531.0</ele><time>2026-04-11T08:26:46Z</time></trkpt><trkpt lat="46.09153405458051" lon="11.414932745250294"><ele>1531.0</ele><time>2026-04-11T08:26:50Z</time></trkpt><trkpt lat="46.091561635770624" lon="11.415034879508108"><ele>1531.0</ele><time>2026-04-11T08:26:53Z</time></trkpt><trkpt lat="46.09164432884312" lon="11.414987942042842"><ele>1531.0</ele><time>2026-04-11T08:26:56Z</time></trkpt><trkpt lat="46.09165351455512" lon="11.414878931148158"><ele>1531.0</ele><time>2026-04-11T08:27:01Z</time></trkpt><trkpt lat="46.091593750376525" lon="11.414841648147272"><ele>1531.0</ele><time>2026-04-11T08:27:04.999Z</time></trkpt><trkpt lat="46.09152885453779" lon="11.414909891098773"><ele>1531.0</ele><time>2026-04-11T08:27:09.999Z</time></trkpt><trkpt lat="46.091553564765135" lon="11.415034456707032"><ele>1531.0</ele><time>2026-04-11T08:27:11.999Z</time></trkpt><trkpt lat="46.0916104432382" lon="11.415083980958007"><ele>1531.0</ele><time>2026-04-11T08:27:14.999Z</time></trkpt><trkpt lat="46.091673633622044" lon="11.415097744406088"><ele>1531.0</ele><time>2026-04-11T08:27:17.999Z</time></trkpt><trkpt lat="46.091598424040704" lon="11.415077738085373"><ele>1531.0</ele><time>2026-04-11T08:27:22.999Z</time></trkpt><trkpt lat="46.09156246460569" lon="11.414922418182053"><ele>1531.0</ele><time>2026-04-11T08:27:24.999Z</time></trkpt><trkpt lat="46.09155966244588" lon="11.414812245535522"><ele>1531.0</ele><time>2026-04-11T08:27:26.999Z</time></trkpt><trkpt lat="46.091559779804" lon="11.414637450204879"><ele>1535.0</ele><time>2026-04-11T08:27:31.999Z</time></trkpt><trkpt lat="46.091574377638686" lon="11.41450922110667"><ele>1539.0</ele><time>2026-04-11T08:27:33.999Z</time></trkpt><trkpt lat="46.091586645519136" lon="11.414398695671107"><ele>1543.0</ele><time>2026-04-11T08:27:35.999Z</time></trkpt><trkpt lat="46.09160490541499" lon="11.414227954735352"><ele>1547.0</ele><time>2026-04-11T08:27:37.999Z</time></trkpt><trkpt lat="46.09190253893898" lon="11.41380845244938"><ele>1534.0</ele><time>2026-04-11T08:27:39.999Z</time></trkpt><trkpt lat="46.091996917432844" lon="11.414169207172916"><ele>1521.0</ele><time>2026-04-11T08:27:40.999Z</time></trkpt><trkpt lat="46.09207435563584" lon="11.414078249451315"><ele>1508.0</ele><time>2026-04-11T08:27:42.999Z</time></trkpt><trkpt lat="46.09216919506916" lon="11.414009021791756"><ele>1508.0</ele><time>2026-04-11T08:27:44.999Z</time></trkpt><trkpt lat="46.09222950699594" lon="11.413964419646728"><ele>1508.0</ele><time>2026-04-11T08:27:45.999Z</time></trkpt><trkpt lat="46.09230582003738" lon="11.41390029480305"><ele>1508.0</ele><time>2026-04-11T08:27:47.999Z</time></trkpt><trkpt lat="46.092407493865636" lon="11.413812375385234"><ele>1508.0</ele><time>2026-04-11T08:27:49.999Z</time></trkpt><trkpt lat="46.09247682972339" lon="11.413752419366944"><ele>1508.0</ele><time>2026-04-11T08:27:50.999Z</time></trkpt><trkpt lat="46.0924709962681" lon="11.413501371694608"><ele>1507.2</ele><time>2026-04-11T08:27:51.999Z</time></trkpt><trkpt lat="46.092487921517396" lon="11.413379583982936"><ele>1506.4</ele><time>2026-04-11T08:27:52.999Z</time></trkpt><trkpt lat="46.09256072869597" lon="11.413237858222056"><ele>1505.6000000000001</ele><time>2026-04-11T08:27:54.999Z</time></trkpt><trkpt lat="46.09262082056366" lon="11.413146146686081"><ele>1504.8000000000002</ele><time>2026-04-11T08:27:55.999Z</time></trkpt><trkpt lat="46.09267410687775" lon="11.413033677464131"><ele>1504.0</ele><time>2026-04-11T08:27:56.999Z</time></trkpt><trkpt lat="46.09271217495213" lon="11.412939181161924"><ele>1507.1666666666665</ele><time>2026-04-11T08:27:57.999Z</time></trkpt><trkpt lat="46.09274640061164" lon="11.412830544929783"><ele>1510.3333333333333</ele><time>2026-04-11T08:27:58.999Z</time></trkpt><trkpt lat="46.09278481829507" lon="11.412738299565083"><ele>1513.5</ele><time>2026-04-11T08:28:01Z</time></trkpt><trkpt lat="46.09288256967772" lon="11.412824649420484"><ele>1516.6666666666667</ele><time>2026-04-11T08:28:04Z</time></trkpt><trkpt lat="46.092949488398524" lon="11.412863828464836"><ele>1519.8333333333335</ele><time>2026-04-11T08:28:05Z</time></trkpt><trkpt lat="46.09303320826933" lon="11.412920445980207"><ele>1523.0</ele><time>2026-04-11T08:28:06Z</time></trkpt><trkpt lat="46.09316941752852" lon="11.412985226877305"><ele>1524.0</ele><time>2026-04-11T08:28:07Z</time></trkpt><trkpt lat="46.09331101491192" lon="11.41304072048754"><ele>1525.0</ele><time>2026-04-11T08:28:08Z</time></trkpt><trkpt lat="46.09344525981685" lon="11.413102255995353"><ele>1526.0</ele><time>2026-04-11T08:28:09Z</time></trkpt><trkpt lat="46.093544894080985" lon="11.413158838780694"><ele>1527.0</ele><time>2026-04-11T08:28:10Z</time></trkpt><trkpt lat="46.09361538679962" lon="11.413242815321123"><ele>1527.0</ele><time>2026-04-11T08:28:11Z</time></trkpt><trkpt lat="46.093701756480826" lon="11.413332423452266"><ele>1527.0</ele><time>2026-04-11T08:28:12Z</time></trkpt><trkpt lat="46.09376127179596" lon="11.413379009312315"><ele>1527.0</ele><time>2026-04-11T08:28:13Z</time></trkpt><trkpt lat="46.093839974305695" lon="11.413355773541614"><ele>1527.0</ele><time>2026-04-11T08:28:14Z</time></trkpt><trkpt lat="46.093923137052656" lon="11.413276653572472"><ele>1527.0</ele><time>2026-04-11T08:28:15Z</time></trkpt><trkpt lat="46.09400887518634" lon="11.413249075534596"><ele>1527.0</ele><time>2026-04-11T08:28:16Z</time></trkpt><trkpt lat="46.094166231133805" lon="11.413151335693923"><ele>1531.3333333333335</ele><time>2026-04-11T08:28:17Z</time></trkpt><trkpt lat="46.09433749695538" lon="11.413026382568912"><ele>1535.6666666666667</ele><time>2026-04-11T08:28:18Z</time></trkpt><trkpt lat="46.0944852460177" lon="11.412902026976932"><ele>1540.0</ele><time>2026-04-11T08:28:19Z</time></trkpt><trkpt lat="46.09461234599721" lon="11.412841888297"><ele>1543.6</ele><time>2026-04-11T08:28:20Z</time></trkpt><trkpt lat="46.094686433159396" lon="11.412857163986782"><ele>1547.2</ele><time>2026-04-11T08:28:21Z</time></trkpt><trkpt lat="46.094785531374555" lon="11.412811416612737"><ele>1550.8000000000002</ele><time>2026-04-11T08:28:22Z</time></trkpt><trkpt lat="46.094867084825076" lon="11.412712369007124"><ele>1554.4</ele><time>2026-04-11T08:28:23Z</time></trkpt><trkpt lat="46.09491433093316" lon="11.412578976267037"><ele>1558.0</ele><time>2026-04-11T08:28:24Z</time></trkpt><trkpt lat="46.09495639242013" lon="11.412497270415695"><ele>1558.0</ele><time>2026-04-11T08:28:26Z</time></trkpt><trkpt lat="46.094993426337545" lon="11.41237727727382"><ele>1558.0</ele><time>2026-04-11T08:28:28Z</time></trkpt><trkpt lat="46.09503008794641" lon="11.412266633802659"><ele>1558.0</ele><time>2026-04-11T08:28:31Z</time></trkpt><trkpt lat="46.095051270781696" lon="11.412168295123031"><ele>1558.0</ele><time>2026-04-11T08:28:33Z</time></trkpt><trkpt lat="46.09510547092347" lon="11.412017771432144"><ele>1558.0</ele><time>2026-04-11T08:28:36Z</time></trkpt><trkpt lat="46.09518442495922" lon="11.41190360530461"><ele>1566.0</ele><time>2026-04-11T08:28:39Z</time></trkpt><trkpt lat="46.09537953871599" lon="11.411587827509909"><ele>1574.0</ele><time>2026-04-11T08:28:40Z</time></trkpt><trkpt lat="46.09548467735406" lon="11.411434202862589"><ele>1582.0</ele><time>2026-04-11T08:28:41Z</time></trkpt><trkpt lat="46.095549260187816" lon="11.411241581638851"><ele>1584.3999999999999</ele><time>2026-04-11T08:28:42Z</time></trkpt><trkpt lat="46.095618107266475" lon="11.411111555710706"><ele>1586.8</ele><time>2026-04-11T08:28:43Z</time></trkpt><trkpt lat="46.09570479748199" lon="11.411015770875332"><ele>1589.2</ele><time>2026-04-11T08:28:45Z</time></trkpt><trkpt lat="46.095616986704364" lon="11.411065228020146"><ele>1591.6</ele><time>2026-04-11T08:28:52Z</time></trkpt><trkpt lat="46.09556317948693" lon="11.411129212412815"><ele>1594.0</ele><time>2026-04-11T08:28:53Z</time></trkpt><trkpt lat="46.09551986150613" lon="11.411209233766947"><ele>1591.6</ele><time>2026-04-11T08:28:54Z</time></trkpt><trkpt lat="46.09545741809145" lon="11.411324780634155"><ele>1589.2</ele><time>2026-04-11T08:28:55Z</time></trkpt><trkpt lat="46.0954019956958" lon="11.411447114394916"><ele>1586.8</ele><time>2026-04-11T08:28:56Z</time></trkpt><trkpt lat="46.095346508773574" lon="11.411564043543105"><ele>1584.3999999999999</ele><time>2026-04-11T08:28:57Z</time></trkpt><trkpt lat="46.09529125438564" lon="11.411662820428688"><ele>1582.0</ele><time>2026-04-11T08:28:58Z</time></trkpt><trkpt lat="46.095190506890056" lon="11.411753474001253"><ele>1582.0</ele><time>2026-04-11T08:28:59Z</time></trkpt><trkpt lat="46.095140830755035" lon="11.411835133028784"><ele>1582.0</ele><time>2026-04-11T08:29:01Z</time></trkpt><trkpt lat="46.09508600241183" lon="11.411919554066511"><ele>1582.0</ele><time>2026-04-11T08:29:03Z</time></trkpt><trkpt lat="46.09502402821556" lon="11.41205006294036"><ele>1582.0</ele><time>2026-04-11T08:29:05Z</time></trkpt><trkpt lat="46.094988213575874" lon="11.412193727296028"><ele>1582.0</ele><time>2026-04-11T08:29:06.999Z</time></trkpt><trkpt lat="46.09495782857001" lon="11.41231952702093"><ele>1580.1666666666667</ele><time>2026-04-11T08:29:08.999Z</time></trkpt><trkpt lat="46.094903845774525" lon="11.41246887825046"><ele>1578.3333333333335</ele><time>2026-04-11T08:29:10.999Z</time></trkpt><trkpt lat="46.094862318029705" lon="11.412554075160248"><ele>1576.5</ele><time>2026-04-11T08:29:11.999Z</time></trkpt><trkpt lat="46.09480495023859" lon="11.412632729362539"><ele>1574.6666666666665</ele><time>2026-04-11T08:29:12.999Z</time></trkpt><trkpt lat="46.09473147261758" lon="11.41269647253848"><ele>1572.8333333333333</ele><time>2026-04-11T08:29:14.999Z</time></trkpt><trkpt lat="46.094655964914644" lon="11.412745286542547"><ele>1571.0</ele><time>2026-04-11T08:29:15.999Z</time></trkpt><trkpt lat="46.09457315973498" lon="11.412796490165409"><ele>1571.0</ele><time>2026-04-11T08:29:16.999Z</time></trkpt><trkpt lat="46.09448503195495" lon="11.412860102260055"><ele>1571.0</ele><time>2026-04-11T08:29:17.999Z</time></trkpt><trkpt lat="46.09437548711195" lon="11.41291876506404"><ele>1571.0</ele><time>2026-04-11T08:29:18.999Z</time></trkpt><trkpt lat="46.09428844107126" lon="11.41297934061468"><ele>1571.0</ele><time>2026-04-11T08:29:19.999Z</time></trkpt><trkpt lat="46.094186563477535" lon="11.413050557061107"><ele>1571.0</ele><time>2026-04-11T08:29:20.999Z</time></trkpt><trkpt lat="46.09406706485358" lon="11.413133159370313"><ele>1562.1999999999998</ele><time>2026-04-11T08:29:21.999Z</time></trkpt><trkpt lat="46.09397871585639" lon="11.413214631118455"><ele>1553.3999999999999</ele><time>2026-04-11T08:29:22.999Z</time></trkpt><trkpt lat="46.09390111251495" lon="11.413255989291471"><ele>1544.6</ele><time>2026-04-11T08:29:23.999Z</time></trkpt><trkpt lat="46.093785068554574" lon="11.413268050687448"><ele>1535.8</ele><time>2026-04-11T08:29:25.999Z</time></trkpt><trkpt lat="46.093712267817814" lon="11.413237031256845"><ele>1527.0</ele><time>2026-04-11T08:29:26.999Z</time></trkpt><trkpt lat="46.09362065332005" lon="11.41317659247198"><ele>1527.0</ele><time>2026-04-11T08:29:27.999Z</time></trkpt><trkpt lat="46.0935207951333" lon="11.41311285415384"><ele>1527.0</ele><time>2026-04-11T08:29:28.999Z</time></trkpt><trkpt lat="46.093435870398984" lon="11.413066945206452"><ele>1527.0</ele><time>2026-04-11T08:29:29.999Z</time></trkpt><trkpt lat="46.09332702537787" lon="11.413007846716997"><ele>1527.0</ele><time>2026-04-11T08:29:30.999Z</time></trkpt><trkpt lat="46.093205362110815" lon="11.412945166710637"><ele>1527.0</ele><time>2026-04-11T08:29:31.999Z</time></trkpt><trkpt lat="46.093107609581836" lon="11.412899166329144"><ele>1526.3333333333333</ele><time>2026-04-11T08:29:32.999Z</time></trkpt><trkpt lat="46.09301294454161" lon="11.412848725493346"><ele>1525.6666666666667</ele><time>2026-04-11T08:29:33.999Z</time></trkpt><trkpt lat="46.092922686782906" lon="11.41280258401218"><ele>1525.0</ele><time>2026-04-11T08:29:34.999Z</time></trkpt><trkpt lat="46.09284249129554" lon="11.412764653865123"><ele>1524.3333333333335</ele><time>2026-04-11T08:29:35.999Z</time></trkpt><trkpt lat="46.092770214724986" lon="11.412731745080366"><ele>1523.6666666666667</ele><time>2026-04-11T08:29:36.999Z</time></trkpt><trkpt lat="46.09270636108889" lon="11.412704478482123"><ele>1523.0</ele><time>2026-04-11T08:29:37.999Z</time></trkpt><trkpt lat="46.09264240903679" lon="11.412681142496345"><ele>1523.0</ele><time>2026-04-11T08:29:38.999Z</time></trkpt><trkpt lat="46.09251776392043" lon="11.41262993371686"><ele>1523.0</ele><time>2026-04-11T08:29:40.999Z</time></trkpt><trkpt lat="46.09245566588176" lon="11.41259994266056"><ele>1523.0</ele><time>2026-04-11T08:29:41.999Z</time></trkpt><trkpt lat="46.09239084050456" lon="11.412586136015804"><ele>1523.0</ele><time>2026-04-11T08:29:42.999Z</time></trkpt><trkpt lat="46.09231826640263" lon="11.412591799551564"><ele>1523.0</ele><time>2026-04-11T08:29:43.999Z</time></trkpt><trkpt lat="46.09223148244508" lon="11.412624091325156"><ele>1523.0</ele><time>2026-04-11T08:29:44.999Z</time></trkpt><trkpt lat="46.09214791091682" lon="11.412674249609248"><ele>1523.6000000000001</ele><time>2026-04-11T08:29:45.999Z</time></trkpt><trkpt lat="46.09205796106908" lon="11.412735068578794"><ele>1524.2</ele><time>2026-04-11T08:29:46.999Z</time></trkpt><trkpt lat="46.091973487866376" lon="11.412793721396266"><ele>1524.8</ele><time>2026-04-11T08:29:47.999Z</time></trkpt><trkpt lat="46.09187626713549" lon="11.412840761158616"><ele>1525.4</ele><time>2026-04-11T08:29:48.999Z</time></trkpt><trkpt lat="46.09179125851138" lon="11.41288700576026"><ele>1526.0</ele><time>2026-04-11T08:29:49.999Z</time></trkpt><trkpt lat="46.09172751509578" lon="11.412946452443283"><ele>1523.0</ele><time>2026-04-11T08:29:50.999Z</time></trkpt><trkpt lat="46.091681858399376" lon="11.413030604440019"><ele>1520.0</ele><time>2026-04-11T08:29:51.999Z</time></trkpt><trkpt lat="46.091660811369714" lon="11.41314768911053"><ele>1517.0</ele><time>2026-04-11T08:29:52.999Z</time></trkpt><trkpt lat="46.09165473630435" lon="11.413269393089935"><ele>1514.0</ele><time>2026-04-11T08:29:53.999Z</time></trkpt><trkpt lat="46.09164844980148" lon="11.413405777044149"><ele>1511.0</ele><time>2026-04-11T08:29:54.999Z</time></trkpt><trkpt lat="46.09159398780998" lon="11.413515854939098"><ele>1508.0</ele><time>2026-04-11T08:29:55.999Z</time></trkpt><trkpt lat="46.09158582418561" lon="11.413641539117101"><ele>1508.0</ele><time>2026-04-11T08:29:56.999Z</time></trkpt><trkpt lat="46.091590802095155" lon="11.413758568766653"><ele>1508.0</ele><time>2026-04-11T08:29:57.999Z</time></trkpt><trkpt lat="46.09158914671776" lon="11.41388725968533"><ele>1508.0</ele><time>2026-04-11T08:29:58.999Z</time></trkpt><trkpt lat="46.091570815832675" lon="11.414007438934576"><ele>1508.0</ele><time>2026-04-11T08:29:59.999Z</time></trkpt><trkpt lat="46.091566109873206" lon="11.414109684325329"><ele>1508.0</ele><time>2026-04-11T08:30:00.999Z</time></trkpt><trkpt lat="46.09155698805202" lon="11.414204621145352"><ele>1508.0</ele><time>2026-04-11T08:30:01.999Z</time></trkpt><trkpt lat="46.09154613767511" lon="11.41430521003787"><ele>1511.8333333333335</ele><time>2026-04-11T08:30:02.999Z</time></trkpt><trkpt lat="46.09154379093981" lon="11.414426539020333"><ele>1515.6666666666667</ele><time>2026-04-11T08:30:03.999Z</time></trkpt><trkpt lat="46.0915280279358" lon="11.414518103199152"><ele>1519.5</ele><time>2026-04-11T08:30:04.999Z</time></trkpt><trkpt lat="46.09151170791508" lon="11.414632444967026"><ele>1523.3333333333333</ele><time>2026-04-11T08:30:05.999Z</time></trkpt><trkpt lat="46.091519745659156" lon="11.414762243773902"><ele>1527.1666666666665</ele><time>2026-04-11T08:30:08Z</time></trkpt><trkpt lat="46.0915174392041" lon="11.414902373495352"><ele>1531.0</ele><time>2026-04-11T08:30:14Z</time></trkpt><trkpt lat="46.091568349844984" lon="11.415025415035505"><ele>1528.8</ele><time>2026-04-11T08:30:16Z</time></trkpt><trkpt lat="46.09162090583853" lon="11.415110283074304"><ele>1526.6</ele><time>2026-04-11T08:30:18Z</time></trkpt><trkpt lat="46.09163342651978" lon="11.415269226462552"><ele>1524.4</ele><time>2026-04-11T08:30:20Z</time></trkpt><trkpt lat="46.0916085876341" lon="11.415444600512945"><ele>1522.2</ele><time>2026-04-11T08:30:21Z</time></trkpt><trkpt lat="46.09156405358972" lon="11.415601466600233"><ele>1520.0</ele><time>2026-04-11T08:30:22Z</time></trkpt><trkpt lat="46.09151592076834" lon="11.415751500701269"><ele>1520.0</ele><time>2026-04-11T08:30:23Z</time></trkpt><trkpt lat="46.091460070603745" lon="11.415895651592615"><ele>1520.0</ele><time>2026-04-11T08:30:24Z</time></trkpt><trkpt lat="46.091420947937436" lon="11.416029382051859"><ele>1520.0</ele><time>2026-04-11T08:30:25Z</time></trkpt><trkpt lat="46.09139095566373" lon="11.416176804638138"><ele>1520.0</ele><time>2026-04-11T08:30:26Z</time></trkpt><trkpt lat="46.09133700973595" lon="11.416355000264776"><ele>1516.5</ele><time>2026-04-11T08:30:27Z</time></trkpt><trkpt lat="46.09128755367604" lon="11.416532184507659"><ele>1513.0</ele><time>2026-04-11T08:30:28Z</time></trkpt><trkpt lat="46.091250395393274" lon="11.416699981628778"><ele>1509.5</ele><time>2026-04-11T08:30:29Z</time></trkpt><trkpt lat="46.091195728537095" lon="11.416840128575336"><ele>1506.0</ele><time>2026-04-11T08:30:30Z</time></trkpt><trkpt lat="46.091156654113796" lon="11.41695954297294"><ele>1506.0</ele><time>2026-04-11T08:30:31Z</time></trkpt><trkpt lat="46.09110235853789" lon="11.417051844955783"><ele>1506.0</ele><time>2026-04-11T08:30:32Z</time></trkpt><trkpt lat="46.09103695928565" lon="11.417150260917307"><ele>1506.0</ele><time>2026-04-11T08:30:33Z</time></trkpt><trkpt lat="46.09101323377354" lon="11.417283264356968"><ele>1506.0</ele><time>2026-04-11T08:30:34Z</time></trkpt><trkpt lat="46.091017441344505" lon="11.41744658431465"><ele>1506.0</ele><time>2026-04-11T08:30:35Z</time></trkpt><trkpt lat="46.09100653134805" lon="11.417546182037036"><ele>1504.0</ele><time>2026-04-11T08:30:36Z</time></trkpt><trkpt lat="46.091010891152145" lon="11.417680273146068"><ele>1502.0</ele><time>2026-04-11T08:30:37Z</time></trkpt><trkpt lat="46.09100502202493" lon="11.417830487592052"><ele>1500.0</ele><time>2026-04-11T08:30:38Z</time></trkpt><trkpt lat="46.090971146624305" lon="11.418020962080302"><ele>1498.0</ele><time>2026-04-11T08:30:39Z</time></trkpt><trkpt lat="46.09092625651229" lon="11.418171155601561"><ele>1496.0</ele><time>2026-04-11T08:30:40Z</time></trkpt><trkpt lat="46.09086952771701" lon="11.418297690002767"><ele>1494.5</ele><time>2026-04-11T08:30:41Z</time></trkpt><trkpt lat="46.09080413148423" lon="11.418420396594412"><ele>1493.0</ele><time>2026-04-11T08:30:42Z</time></trkpt><trkpt lat="46.09072451968497" lon="11.418596831733932"><ele>1491.5</ele><time>2026-04-11T08:30:43Z</time></trkpt><trkpt lat="46.090619791873785" lon="11.4187511441097"><ele>1490.0</ele><time>2026-04-11T08:30:44Z</time></trkpt><trkpt lat="46.09049792267865" lon="11.418919176444613"><ele>1490.0</ele><time>2026-04-11T08:30:45Z</time></trkpt><trkpt lat="46.09039371740708" lon="11.41905631511474"><ele>1490.0</ele><time>2026-04-11T08:30:46Z</time></trkpt><trkpt lat="46.090303174761885" lon="11.41917092360662"><ele>1490.0</ele><time>2026-04-11T08:30:47Z</time></trkpt><trkpt lat="46.09020069324922" lon="11.41928619487245"><ele>1490.0</ele><time>2026-04-11T08:30:48Z</time></trkpt><trkpt lat="46.09008647961044" lon="11.419412428315168"><ele>1490.0</ele><time>2026-04-11T08:30:49Z</time></trkpt><trkpt lat="46.089955477369585" lon="11.419558468207358"><ele>1490.0</ele><time>2026-04-11T08:30:50Z</time></trkpt><trkpt lat="46.08985318122833" lon="11.419677600267509"><ele>1490.0</ele><time>2026-04-11T08:30:51Z</time></trkpt><trkpt lat="46.08975441095671" lon="11.419788831947235"><ele>1490.0</ele><time>2026-04-11T08:30:52Z</time></trkpt><trkpt lat="46.08964423344497" lon="11.41988376761165"><ele>1487.5</ele><time>2026-04-11T08:30:53Z</time></trkpt><trkpt lat="46.08952586074842" lon="11.419971350653737"><ele>1485.0</ele><time>2026-04-11T08:30:54Z</time></trkpt><trkpt lat="46.08938651649569" lon="11.420068002394924"><ele>1482.5</ele><time>2026-04-11T08:30:55Z</time></trkpt><trkpt lat="46.08927989977802" lon="11.420105742481148"><ele>1480.0</ele><time>2026-04-11T08:30:56Z</time></trkpt><trkpt lat="46.08919182009463" lon="11.420121454467907"><ele>1479.75</ele><time>2026-04-11T08:30:57Z</time></trkpt><trkpt lat="46.08908946161881" lon="11.420017113105606"><ele>1479.5</ele><time>2026-04-11T08:30:58Z</time></trkpt><trkpt lat="46.088974752618164" lon="11.419938714305164"><ele>1479.25</ele><time>2026-04-11T08:30:59Z</time></trkpt><trkpt lat="46.088872927579345" lon="11.419887443741942"><ele>1479.0</ele><time>2026-04-11T08:31:00Z</time></trkpt><trkpt lat="46.08878850091953" lon="11.419842195457207"><ele>1479.0</ele><time>2026-04-11T08:31:01Z</time></trkpt><trkpt lat="46.08867562216685" lon="11.419805373997034"><ele>1479.0</ele><time>2026-04-11T08:31:02Z</time></trkpt><trkpt lat="46.088545771369745" lon="11.419767229306665"><ele>1479.0</ele><time>2026-04-11T08:31:03Z</time></trkpt><trkpt lat="46.08838244067086" lon="11.419804680840024"><ele>1479.0</ele><time>2026-04-11T08:31:04Z</time></trkpt><trkpt lat="46.08823687609409" lon="11.419865497981576"><ele>1483.25</ele><time>2026-04-11T08:31:05Z</time></trkpt><trkpt lat="46.08808630524191" lon="11.419939771234459"><ele>1487.5</ele><time>2026-04-11T08:31:06Z</time></trkpt><trkpt lat="46.087943943769986" lon="11.420016933320204"><ele>1491.75</ele><time>2026-04-11T08:31:07Z</time></trkpt><trkpt lat="46.087822898133155" lon="11.420098741076055"><ele>1496.0</ele><time>2026-04-11T08:31:08Z</time></trkpt><trkpt lat="46.087751876836016" lon="11.42023800336895"><ele>1496.0</ele><time>2026-04-11T08:31:09Z</time></trkpt><trkpt lat="46.087658928006775" lon="11.420358460673155"><ele>1496.0</ele><time>2026-04-11T08:31:10Z</time></trkpt><trkpt lat="46.08757569504796" lon="11.420543660069535"><ele>1496.0</ele><time>2026-04-11T08:31:11Z</time></trkpt><trkpt lat="46.08750977591264" lon="11.420680203810472"><ele>1496.0</ele><time>2026-04-11T08:31:12Z</time></trkpt><trkpt lat="46.087401913053505" lon="11.42083487313148"><ele>1497.25</ele><time>2026-04-11T08:31:12.999Z</time></trkpt><trkpt lat="46.08731171505708" lon="11.420989604897779"><ele>1498.5</ele><time>2026-04-11T08:31:13.999Z</time></trkpt><trkpt lat="46.08724413244335" lon="11.42115790653285"><ele>1499.75</ele><time>2026-04-11T08:31:14.999Z</time></trkpt><trkpt lat="46.08721144115639" lon="11.421323424800994"><ele>1501.0</ele><time>2026-04-11T08:31:15.999Z</time></trkpt><trkpt lat="46.0872005886799" lon="11.42153507233024"><ele>1501.0</ele><time>2026-04-11T08:31:16.999Z</time></trkpt><trkpt lat="46.08718595908544" lon="11.421727549885569"><ele>1501.0</ele><time>2026-04-11T08:31:17.999Z</time></trkpt><trkpt lat="46.08716206311955" lon="11.421891946278006"><ele>1501.0</ele><time>2026-04-11T08:31:18.999Z</time></trkpt><trkpt lat="46.08712159194396" lon="11.422007448941503"><ele>1501.0</ele><time>2026-04-11T08:31:19.999Z</time></trkpt><trkpt lat="46.087042969409055" lon="11.422102828438257"><ele>1501.0</ele><time>2026-04-11T08:31:20.999Z</time></trkpt><trkpt lat="46.08697827195786" lon="11.42216081526327"><ele>1500.75</ele><time>2026-04-11T08:31:21.999Z</time></trkpt><trkpt lat="46.086872219631964" lon="11.422254956665693"><ele>1500.5</ele><time>2026-04-11T08:31:22.999Z</time></trkpt><trkpt lat="46.086734993640064" lon="11.422343051339373"><ele>1500.25</ele><time>2026-04-11T08:31:23.999Z</time></trkpt><trkpt lat="46.08658815169621" lon="11.422450933898666"><ele>1500.0</ele><time>2026-04-11T08:31:24.999Z</time></trkpt><trkpt lat="46.08642520076967" lon="11.42252898236437"><ele>1500.0</ele><time>2026-04-11T08:31:25.999Z</time></trkpt><trkpt lat="46.086231106283634" lon="11.422655701966734"><ele>1500.0</ele><time>2026-04-11T08:31:26.999Z</time></trkpt><trkpt lat="46.08603404909973" lon="11.422832545451833"><ele>1500.0</ele><time>2026-04-11T08:31:27.999Z</time></trkpt><trkpt lat="46.08588732933227" lon="11.42295312682627"><ele>1498.8</ele><time>2026-04-11T08:31:28.999Z</time></trkpt><trkpt lat="46.085794472832006" lon="11.423024738398349"><ele>1497.6</ele><time>2026-04-11T08:31:29.999Z</time></trkpt><trkpt lat="46.0856941421775" lon="11.423065935023672"><ele>1496.4</ele><time>2026-04-11T08:31:30.999Z</time></trkpt><trkpt lat="46.085611922675085" lon="11.423101597800128"><ele>1495.2</ele><time>2026-04-11T08:31:31.999Z</time></trkpt><trkpt lat="46.08547016589433" lon="11.423171296865794"><ele>1494.0</ele><time>2026-04-11T08:31:32.999Z</time></trkpt><trkpt lat="46.085331584940086" lon="11.42323211993123"><ele>1494.0</ele><time>2026-04-11T08:31:33.999Z</time></trkpt><trkpt lat="46.08519386517754" lon="11.423307376323125"><ele>1494.0</ele><time>2026-04-11T08:31:34.999Z</time></trkpt><trkpt lat="46.08507093773485" lon="11.423373061830878"><ele>1494.0</ele><time>2026-04-11T08:31:35.999Z</time></trkpt><trkpt lat="46.08497109749132" lon="11.423429025173194"><ele>1494.0</ele><time>2026-04-11T08:31:36.999Z</time></trkpt><trkpt lat="46.08484884271803" lon="11.423488106456197"><ele>1496.5</ele><time>2026-04-11T08:31:37.999Z</time></trkpt><trkpt lat="46.08472313683522" lon="11.423525261665809"><ele>1499.0</ele><time>2026-04-11T08:31:38.999Z</time></trkpt><trkpt lat="46.08459861940527" lon="11.423537926485915"><ele>1501.5</ele><time>2026-04-11T08:31:39.999Z</time></trkpt><trkpt lat="46.08448439492923" lon="11.423535845897879"><ele>1504.0</ele><time>2026-04-11T08:31:40.999Z</time></trkpt><trkpt lat="46.08437486486688" lon="11.423552303339156"><ele>1504.0</ele><time>2026-04-11T08:31:41.999Z</time></trkpt><trkpt lat="46.0842656702749" lon="11.42353071587598"><ele>1504.0</ele><time>2026-04-11T08:31:42.999Z</time></trkpt><trkpt lat="46.08416249551548" lon="11.423523625409818"><ele>1504.0</ele><time>2026-04-11T08:31:43.999Z</time></trkpt><trkpt lat="46.08406557191595" lon="11.423541076756155"><ele>1504.0</ele><time>2026-04-11T08:31:44.999Z</time></trkpt><trkpt lat="46.0839686000576" lon="11.423565991296595"><ele>1504.0</ele><time>2026-04-11T08:31:45.999Z</time></trkpt><trkpt lat="46.083872545214405" lon="11.423612684250012"><ele>1506.5</ele><time>2026-04-11T08:31:46.999Z</time></trkpt><trkpt lat="46.08377319937216" lon="11.42365219799639"><ele>1509.0</ele><time>2026-04-11T08:31:47.999Z</time></trkpt><trkpt lat="46.083667767012756" lon="11.423700061579215"><ele>1511.5</ele><time>2026-04-11T08:31:48.999Z</time></trkpt><trkpt lat="46.08354216172477" lon="11.423710905881832"><ele>1514.0</ele><time>2026-04-11T08:31:49.999Z</time></trkpt><trkpt lat="46.083423943569585" lon="11.423702528108247"><ele>1514.0</ele><time>2026-04-11T08:31:50.999Z</time></trkpt><trkpt lat="46.0832884655731" lon="11.423688165142568"><ele>1514.0</ele><time>2026-04-11T08:31:51.999Z</time></trkpt><trkpt lat="46.08314928655089" lon="11.423658173620945"><ele>1514.0</ele><time>2026-04-11T08:31:52.999Z</time></trkpt><trkpt lat="46.08303129899245" lon="11.423614190660079"><ele>1514.0</ele><time>2026-04-11T08:31:53.999Z</time></trkpt><trkpt lat="46.08294847151838" lon="11.423546438471718"><ele>1512.5</ele><time>2026-04-11T08:31:54.999Z</time></trkpt><trkpt lat="46.082874691696944" lon="11.423447606735424"><ele>1511.0</ele><time>2026-04-11T08:31:55.999Z</time></trkpt><trkpt lat="46.082808364874005" lon="11.423315344053064"><ele>1509.5</ele><time>2026-04-11T08:31:56.999Z</time></trkpt><trkpt lat="46.082728888757075" lon="11.423158712407721"><ele>1508.0</ele><time>2026-04-11T08:31:57.999Z</time></trkpt><trkpt lat="46.08264261340884" lon="11.42300708183544"><ele>1508.6666666666667</ele><time>2026-04-11T08:31:58.999Z</time></trkpt><trkpt lat="46.08252229781278" lon="11.422877832728616"><ele>1509.3333333333333</ele><time>2026-04-11T08:31:59.999Z</time></trkpt><trkpt lat="46.0824087972635" lon="11.422726008179522"><ele>1510.0</ele><time>2026-04-11T08:32:00.999Z</time></trkpt><trkpt lat="46.082230789203074" lon="11.422562584767018"><ele>1510.0</ele><time>2026-04-11T08:32:01.999Z</time></trkpt><trkpt lat="46.08207027713612" lon="11.42241229880834"><ele>1510.0</ele><time>2026-04-11T08:32:02.999Z</time></trkpt><trkpt lat="46.08194292056349" lon="11.422274177483814"><ele>1510.0</ele><time>2026-04-11T08:32:03.999Z</time></trkpt><trkpt lat="46.08184396990224" lon="11.42213300755146"><ele>1512.3333333333333</ele><time>2026-04-11T08:32:04.999Z</time></trkpt><trkpt lat="46.08175386980287" lon="11.421944632863877"><ele>1514.6666666666667</ele><time>2026-04-11T08:32:05.999Z</time></trkpt><trkpt lat="46.08164297290417" lon="11.421762082701575"><ele>1517.0</ele><time>2026-04-11T08:32:06.999Z</time></trkpt><trkpt lat="46.08152799296028" lon="11.421616203455294"><ele>1517.0</ele><time>2026-04-11T08:32:07.999Z</time></trkpt><trkpt lat="46.081385304396136" lon="11.421507461802271"><ele>1517.0</ele><time>2026-04-11T08:32:08.999Z</time></trkpt><trkpt lat="46.081241728432374" lon="11.42136474706269"><ele>1517.0</ele><time>2026-04-11T08:32:09.999Z</time></trkpt><trkpt lat="46.0811051485837" lon="11.421192670687693"><ele>1521.0</ele><time>2026-04-11T08:32:10.999Z</time></trkpt><trkpt lat="46.08098228271466" lon="11.421066481094327"><ele>1525.0</ele><time>2026-04-11T08:32:11.999Z</time></trkpt><trkpt lat="46.08087438884505" lon="11.420906179469023"><ele>1529.0</ele><time>2026-04-11T08:32:13Z</time></trkpt><trkpt lat="46.08080132104374" lon="11.42074719018186"><ele>1533.0</ele><time>2026-04-11T08:32:14Z</time></trkpt><trkpt lat="46.08073119147093" lon="11.420629854360262"><ele>1533.0</ele><time>2026-04-11T08:32:15Z</time></trkpt><trkpt lat="46.08064398207478" lon="11.420543454959722"><ele>1533.0</ele><time>2026-04-11T08:32:16Z</time></trkpt><trkpt lat="46.080560972587854" lon="11.420535025953148"><ele>1533.0</ele><time>2026-04-11T08:32:17Z</time></trkpt><trkpt lat="46.0804643218227" lon="11.42049658503983"><ele>1533.0</ele><time>2026-04-11T08:32:18Z</time></trkpt><trkpt lat="46.08037092867693" lon="11.420515258784187"><ele>1533.0</ele><time>2026-04-11T08:32:19Z</time></trkpt><trkpt lat="46.08027342837176" lon="11.42052357717824"><ele>1533.0</ele><time>2026-04-11T08:32:20Z</time></trkpt><trkpt lat="46.080142305750144" lon="11.42052583975224"><ele>1533.0</ele><time>2026-04-11T08:32:21Z</time></trkpt><trkpt lat="46.08001498554286" lon="11.420511575852037"><ele>1533.0</ele><time>2026-04-11T08:32:22Z</time></trkpt><trkpt lat="46.07989345610897" lon="11.420474852590635"><ele>1533.0</ele><time>2026-04-11T08:32:23Z</time></trkpt><trkpt lat="46.07977310148087" lon="11.420418173105094"><ele>1534.0</ele><time>2026-04-11T08:32:24Z</time></trkpt><trkpt lat="46.07965420061287" lon="11.420370868841529"><ele>1535.0</ele><time>2026-04-11T08:32:25Z</time></trkpt><trkpt lat="46.07954693276589" lon="11.420285569181846"><ele>1536.0</ele><time>2026-04-11T08:32:26Z</time></trkpt><trkpt lat="46.07945577803049" lon="11.420169560881288"><ele>1537.0</ele><time>2026-04-11T08:32:27Z</time></trkpt><trkpt lat="46.07935940825292" lon="11.420046524289187"><ele>1537.0</ele><time>2026-04-11T08:32:28Z</time></trkpt><trkpt lat="46.079256381560306" lon="11.419896157035437"><ele>1537.0</ele><time>2026-04-11T08:32:29Z</time></trkpt><trkpt lat="46.079163361337635" lon="11.419750709593393"><ele>1537.0</ele><time>2026-04-11T08:32:30Z</time></trkpt><trkpt lat="46.07908422155205" lon="11.419605269579359"><ele>1537.0</ele><time>2026-04-11T08:32:31Z</time></trkpt><trkpt lat="46.07901362976903" lon="11.419452753940526"><ele>1531.25</ele><time>2026-04-11T08:32:32Z</time></trkpt><trkpt lat="46.07893256068024" lon="11.419330814279503"><ele>1525.5</ele><time>2026-04-11T08:32:33Z</time></trkpt><trkpt lat="46.078864605178005" lon="11.419226012578235"><ele>1519.75</ele><time>2026-04-11T08:32:34Z</time></trkpt><trkpt lat="46.07883804688375" lon="11.419022484844936"><ele>1514.0</ele><time>2026-04-11T08:32:36Z</time></trkpt><trkpt lat="46.07881982882437" lon="11.418855404250241"><ele>1513.25</ele><time>2026-04-11T08:32:37Z</time></trkpt><trkpt lat="46.07879741949681" lon="11.418730775793243"><ele>1512.5</ele><time>2026-04-11T08:32:38Z</time></trkpt><trkpt lat="46.0787699143218" lon="11.418524277437983"><ele>1511.75</ele><time>2026-04-11T08:32:39Z</time></trkpt><trkpt lat="46.078712313042416" lon="11.418365889792783"><ele>1511.0</ele><time>2026-04-11T08:32:40Z</time></trkpt><trkpt lat="46.078637738221815" lon="11.41823722133152"><ele>1511.0</ele><time>2026-04-11T08:32:41Z</time></trkpt><trkpt lat="46.0785599000004" lon="11.418107092714514"><ele>1511.0</ele><time>2026-04-11T08:32:42Z</time></trkpt><trkpt lat="46.078499334081606" lon="11.417988828913616"><ele>1511.0</ele><time>2026-04-11T08:32:43Z</time></trkpt><trkpt lat="46.07843029007723" lon="11.417871934052455"><ele>1511.0</ele><time>2026-04-11T08:32:44Z</time></trkpt><trkpt lat="46.07837831595373" lon="11.41773497426462"><ele>1511.0</ele><time>2026-04-11T08:32:45Z</time></trkpt><trkpt lat="46.07831117202916" lon="11.417598863589438"><ele>1504.6</ele><time>2026-04-11T08:32:46Z</time></trkpt><trkpt lat="46.078231128405925" lon="11.417485736832797"><ele>1498.1999999999998</ele><time>2026-04-11T08:32:47Z</time></trkpt><trkpt lat="46.078162989576846" lon="11.417370053518633"><ele>1491.8000000000002</ele><time>2026-04-11T08:32:48Z</time></trkpt><trkpt lat="46.0781154771567" lon="11.417257961108533"><ele>1485.4</ele><time>2026-04-11T08:32:49Z</time></trkpt><trkpt lat="46.0780945674264" lon="11.417134436470418"><ele>1479.0</ele><time>2026-04-11T08:32:50Z</time></trkpt><trkpt lat="46.07809209627511" lon="11.417013351566943"><ele>1479.0</ele><time>2026-04-11T08:32:51Z</time></trkpt><trkpt lat="46.078098125084416" lon="11.41683965614531"><ele>1479.0</ele><time>2026-04-11T08:32:52Z</time></trkpt><trkpt lat="46.07810590663119" lon="11.41669221064012"><ele>1479.0</ele><time>2026-04-11T08:32:53Z</time></trkpt><trkpt lat="46.078115564555645" lon="11.416531088181689"><ele>1479.0</ele><time>2026-04-11T08:32:54Z</time></trkpt><trkpt lat="46.07812246065371" lon="11.416375176571984"><ele>1479.0</ele><time>2026-04-11T08:32:55Z</time></trkpt><trkpt lat="46.07811027202008" lon="11.416219226593798"><ele>1479.2</ele><time>2026-04-11T08:32:56Z</time></trkpt><trkpt lat="46.078111234114665" lon="11.416070805522132"><ele>1479.4</ele><time>2026-04-11T08:32:57Z</time></trkpt><trkpt lat="46.078130750898154" lon="11.415931670397288"><ele>1479.6</ele><time>2026-04-11T08:32:58Z</time></trkpt><trkpt lat="46.078157432813626" lon="11.415789317638936"><ele>1479.8</ele><time>2026-04-11T08:32:59Z</time></trkpt><trkpt lat="46.078177706125345" lon="11.415641832720027"><ele>1480.0</ele><time>2026-04-11T08:33:00Z</time></trkpt><trkpt lat="46.07818577645063" lon="11.41548552212187"><ele>1480.0</ele><time>2026-04-11T08:33:01Z</time></trkpt><trkpt lat="46.07818049851611" lon="11.415320450187858"><ele>1480.0</ele><time>2026-04-11T08:33:02Z</time></trkpt><trkpt lat="46.078171545191225" lon="11.415147063832803"><ele>1480.0</ele><time>2026-04-11T08:33:03Z</time></trkpt><trkpt lat="46.078173566123596" lon="11.414978186452071"><ele>1480.0</ele><time>2026-04-11T08:33:04Z</time></trkpt><trkpt lat="46.07818777177208" lon="11.414811556437543"><ele>1479.8</ele><time>2026-04-11T08:33:05Z</time></trkpt><trkpt lat="46.078200234108515" lon="11.414644952625054"><ele>1479.6</ele><time>2026-04-11T08:33:06Z</time></trkpt><trkpt lat="46.07820798614315" lon="11.414484677713293"><ele>1479.4</ele><time>2026-04-11T08:33:07Z</time></trkpt><trkpt lat="46.07822146622706" lon="11.414339403280078"><ele>1479.2</ele><time>2026-04-11T08:33:08Z</time></trkpt><trkpt lat="46.07821840178867" lon="11.414206633490707"><ele>1479.0</ele><time>2026-04-11T08:33:09Z</time></trkpt><trkpt lat="46.078188567133026" lon="11.41409172232994"><ele>1479.0</ele><time>2026-04-11T08:33:10Z</time></trkpt><trkpt lat="46.078185981485056" lon="11.413988424828307"><ele>1479.0</ele><time>2026-04-11T08:33:11Z</time></trkpt><trkpt lat="46.07817424846353" lon="11.413893936053777"><ele>1479.0</ele><time>2026-04-11T08:33:12Z</time></trkpt><trkpt lat="46.07818513982814" lon="11.413788671227355"><ele>1479.0</ele><time>2026-04-11T08:33:14Z</time></trkpt><trkpt lat="46.078052769877374" lon="11.413725439068825"><ele>1479.0</ele><time>2026-04-11T08:33:16.999Z</time></trkpt><trkpt lat="46.07793151309334" lon="11.413771025515814"><ele>1479.0</ele><time>2026-04-11T08:33:18.999Z</time></trkpt><trkpt lat="46.07786512442264" lon="11.413800032401053"><ele>1479.0</ele><time>2026-04-11T08:33:19.999Z</time></trkpt><trkpt lat="46.07780229788274" lon="11.413829773846325"><ele>1479.0</ele><time>2026-04-11T08:33:20.999Z</time></trkpt><trkpt lat="46.07769043422862" lon="11.413834966104893"><ele>1479.0</ele><time>2026-04-11T08:33:22.999Z</time></trkpt><trkpt lat="46.07758361271129" lon="11.413710885483182"><ele>1479.0</ele><time>2026-04-11T08:33:24.999Z</time></trkpt><trkpt lat="46.077534399316946" lon="11.41361974083425"><ele>1479.0</ele><time>2026-04-11T08:33:25.999Z</time></trkpt><trkpt lat="46.07747780894634" lon="11.413523986145245"><ele>1479.0</ele><time>2026-04-11T08:33:26.999Z</time></trkpt><trkpt lat="46.077416302566014" lon="11.413437589290755"><ele>1479.0</ele><time>2026-04-11T08:33:27.999Z</time></trkpt><trkpt lat="46.077345401413666" lon="11.413347096857756"><ele>1479.0</ele><time>2026-04-11T08:33:28.999Z</time></trkpt><trkpt lat="46.077273208687146" lon="11.41327080735323"><ele>1479.0</ele><time>2026-04-11T08:33:29.999Z</time></trkpt><trkpt lat="46.07719022338143" lon="11.413207938129956"><ele>1474.3333333333333</ele><time>2026-04-11T08:33:30.999Z</time></trkpt><trkpt lat="46.077104149170005" lon="11.41316067607932"><ele>1469.6666666666667</ele><time>2026-04-11T08:33:31.999Z</time></trkpt><trkpt lat="46.07701583932027" lon="11.413122617687378"><ele>1465.0</ele><time>2026-04-11T08:33:32.999Z</time></trkpt><trkpt lat="46.07693205295985" lon="11.413103543007209"><ele>1460.3333333333335</ele><time>2026-04-11T08:33:33.999Z</time></trkpt><trkpt lat="46.07684049995762" lon="11.41308946985132"><ele>1455.6666666666667</ele><time>2026-04-11T08:33:34.999Z</time></trkpt><trkpt lat="46.07675422176469" lon="11.413083145471902"><ele>1451.0</ele><time>2026-04-11T08:33:35.999Z</time></trkpt><trkpt lat="46.07667353685426" lon="11.413076026193792"><ele>1451.0</ele><time>2026-04-11T08:33:36.999Z</time></trkpt><trkpt lat="46.076605598273964" lon="11.413076941717456"><ele>1451.0</ele><time>2026-04-11T08:33:37.999Z</time></trkpt><trkpt lat="46.07651074661719" lon="11.413085975737054"><ele>1451.0</ele><time>2026-04-11T08:33:39.999Z</time></trkpt><trkpt lat="46.07644085613926" lon="11.413103739869644"><ele>1451.0</ele><time>2026-04-11T08:33:45.999Z</time></trkpt><trkpt lat="46.07640041936138" lon="11.413183468798064"><ele>1451.0</ele><time>2026-04-11T08:33:48.999Z</time></trkpt><trkpt lat="46.07638969514732" lon="11.413274910984759"><ele>1451.0</ele><time>2026-04-11T08:33:50.999Z</time></trkpt><trkpt lat="46.0763306017187" lon="11.413361385341295"><ele>1445.6</ele><time>2026-04-11T08:33:59.999Z</time></trkpt><trkpt lat="46.07622455144735" lon="11.413344783190809"><ele>1440.1999999999998</ele><time>2026-04-11T08:34:01.999Z</time></trkpt><trkpt lat="46.07610209731061" lon="11.413285102119426"><ele>1434.8000000000002</ele><time>2026-04-11T08:34:03.999Z</time></trkpt><trkpt lat="46.07602967619265" lon="11.413222666619655"><ele>1429.4</ele><time>2026-04-11T08:34:04.999Z</time></trkpt><trkpt lat="46.075956383778305" lon="11.413177181491518"><ele>1424.0</ele><time>2026-04-11T08:34:05.999Z</time></trkpt><trkpt lat="46.07587368558047" lon="11.413115948613713"><ele>1424.0</ele><time>2026-04-11T08:34:06.999Z</time></trkpt><trkpt lat="46.07578227430981" lon="11.413050492313651"><ele>1424.0</ele><time>2026-04-11T08:34:07.999Z</time></trkpt><trkpt lat="46.0756849668123" lon="11.412994409729924"><ele>1424.0</ele><time>2026-04-11T08:34:08.999Z</time></trkpt><trkpt lat="46.07559023564027" lon="11.412942682642948"><ele>1424.0</ele><time>2026-04-11T08:34:09.999Z</time></trkpt><trkpt lat="46.07550324499837" lon="11.412897361217892"><ele>1424.0</ele><time>2026-04-11T08:34:10.999Z</time></trkpt><trkpt lat="46.07542227324071" lon="11.41284617074164"><ele>1421.9999999999998</ele><time>2026-04-11T08:34:11.999Z</time></trkpt><trkpt lat="46.0753556135326" lon="11.412810508004249"><ele>1420.0</ele><time>2026-04-11T08:34:12.999Z</time></trkpt><trkpt lat="46.075306183340686" lon="11.412709088368187"><ele>1418.0</ele><time>2026-04-11T08:34:13.999Z</time></trkpt><trkpt lat="46.0752384426695" lon="11.412668399253619"><ele>1416.0</ele><time>2026-04-11T08:34:14.999Z</time></trkpt><trkpt lat="46.0751735966518" lon="11.412619250035108"><ele>1414.0</ele><time>2026-04-11T08:34:15.999Z</time></trkpt><trkpt lat="46.07511627201249" lon="11.412563098172566"><ele>1411.9999999999998</ele><time>2026-04-11T08:34:16.999Z</time></trkpt><trkpt lat="46.07504702577858" lon="11.412526477476053"><ele>1410.0</ele><time>2026-04-11T08:34:19Z</time></trkpt><trkpt lat="46.074978050228886" lon="11.412640789726268"><ele>1410.0</ele><time>2026-04-11T08:34:25Z</time></trkpt><trkpt lat="46.07502203069642" lon="11.412808974681719"><ele>1410.0</ele><time>2026-04-11T08:34:27Z</time></trkpt><trkpt lat="46.0750408422106" lon="11.412962334596518"><ele>1410.0</ele><time>2026-04-11T08:34:29Z</time></trkpt><trkpt lat="46.07505010226509" lon="11.413070879712226"><ele>1410.0</ele><time>2026-04-11T08:34:30Z</time></trkpt><trkpt lat="46.07506520374339" lon="11.41319361212162"><ele>1410.0</ele><time>2026-04-11T08:34:31Z</time></trkpt><trkpt lat="46.07509492336097" lon="11.413279226552174"><ele>1408.9999999999998</ele><time>2026-04-11T08:34:32Z</time></trkpt><trkpt lat="46.07511870776795" lon="11.413378324006189"><ele>1408.0</ele><time>2026-04-11T08:34:33Z</time></trkpt><trkpt lat="46.07513226318172" lon="11.413474682409655"><ele>1407.0</ele><time>2026-04-11T08:34:34Z</time></trkpt><trkpt lat="46.07515364133173" lon="11.413579585027165"><ele>1406.0</ele><time>2026-04-11T08:34:35Z</time></trkpt><trkpt lat="46.07517743781561" lon="11.413673574559967"><ele>1405.0</ele><time>2026-04-11T08:34:36Z</time></trkpt><trkpt lat="46.07520108531965" lon="11.413773551587505"><ele>1403.9999999999998</ele><time>2026-04-11T08:34:37Z</time></trkpt><trkpt lat="46.07523178639805" lon="11.41387199149522"><ele>1403.0</ele><time>2026-04-11T08:34:38Z</time></trkpt><trkpt lat="46.075270592519225" lon="11.413977527199483"><ele>1401.4</ele><time>2026-04-11T08:34:39Z</time></trkpt><trkpt lat="46.075303222273845" lon="11.414092724842407"><ele>1399.8000000000002</ele><time>2026-04-11T08:34:40Z</time></trkpt><trkpt lat="46.07532642033392" lon="11.414227137098402"><ele>1398.2</ele><time>2026-04-11T08:34:41Z</time></trkpt><trkpt lat="46.075322965967366" lon="11.414374245207116"><ele>1396.6</ele><time>2026-04-11T08:34:42Z</time></trkpt><trkpt lat="46.075316470267936" lon="11.414534273059306"><ele>1395.0</ele><time>2026-04-11T08:34:43Z</time></trkpt><trkpt lat="46.0753161409012" lon="11.414685263672382"><ele>1393.8</ele><time>2026-04-11T08:34:44Z</time></trkpt><trkpt lat="46.075265931787925" lon="11.41481868514913"><ele>1392.6</ele><time>2026-04-11T08:34:45Z</time></trkpt><trkpt lat="46.07523981963164" lon="11.414949514839382"><ele>1391.4</ele><time>2026-04-11T08:34:46Z</time></trkpt><trkpt lat="46.07522373061248" lon="11.415063486152647"><ele>1390.2</ele><time>2026-04-11T08:34:47Z</time></trkpt><trkpt lat="46.07521208544042" lon="11.415214747963923"><ele>1389.0</ele><time>2026-04-11T08:34:48Z</time></trkpt><trkpt lat="46.07520599545523" lon="11.415354653435639"><ele>1389.4</ele><time>2026-04-11T08:34:49Z</time></trkpt><trkpt lat="46.07519906074823" lon="11.415498606893852"><ele>1389.8000000000002</ele><time>2026-04-11T08:34:50Z</time></trkpt><trkpt lat="46.075207689819415" lon="11.415651185804629"><ele>1390.1999999999998</ele><time>2026-04-11T08:34:51Z</time></trkpt><trkpt lat="46.0752135037873" lon="11.415797955679881"><ele>1390.6</ele><time>2026-04-11T08:34:52Z</time></trkpt><trkpt lat="46.075215989744244" lon="11.415950380233054"><ele>1391.0</ele><time>2026-04-11T08:34:53Z</time></trkpt><trkpt lat="46.07522448687312" lon="11.416091007503928"><ele>1391.0</ele><time>2026-04-11T08:34:54Z</time></trkpt><trkpt lat="46.07523952082227" lon="11.416220718916371"><ele>1391.0</ele><time>2026-04-11T08:34:55Z</time></trkpt><trkpt lat="46.07528891863235" lon="11.416349299171218"><ele>1391.0</ele><time>2026-04-11T08:34:56Z</time></trkpt><trkpt lat="46.07535001478195" lon="11.416495619194018"><ele>1391.0</ele><time>2026-04-11T08:34:57Z</time></trkpt><trkpt lat="46.07537683697024" lon="11.41664581261433"><ele>1391.0</ele><time>2026-04-11T08:34:58Z</time></trkpt><trkpt lat="46.07540944274789" lon="11.416768565689008"><ele>1390.6666666666667</ele><time>2026-04-11T08:34:59Z</time></trkpt><trkpt lat="46.07545025616787" lon="11.416876940117696"><ele>1390.3333333333335</ele><time>2026-04-11T08:35:00Z</time></trkpt><trkpt lat="46.07549787341688" lon="11.416974170490716"><ele>1390.0</ele><time>2026-04-11T08:35:01Z</time></trkpt><trkpt lat="46.07555722148843" lon="11.417054444273537"><ele>1389.6666666666667</ele><time>2026-04-11T08:35:02Z</time></trkpt><trkpt lat="46.07555250601696" lon="11.417213061653618"><ele>1389.3333333333333</ele><time>2026-04-11T08:35:03Z</time></trkpt><trkpt lat="46.07558146924539" lon="11.417314653074438"><ele>1389.0</ele><time>2026-04-11T08:35:04Z</time></trkpt><trkpt lat="46.0756995509975" lon="11.417429505701328"><ele>1388.0</ele><time>2026-04-11T08:35:06Z</time></trkpt><trkpt lat="46.07574637590026" lon="11.41749320820949"><ele>1387.0</ele><time>2026-04-11T08:35:07Z</time></trkpt><trkpt lat="46.07577545889709" lon="11.417614980682375"><ele>1386.0</ele><time>2026-04-11T08:35:09Z</time></trkpt><trkpt lat="46.075704503541445" lon="11.417738299547748"><ele>1385.0</ele><time>2026-04-11T08:35:11Z</time></trkpt><trkpt lat="46.075647093781896" lon="11.417816310539672"><ele>1384.0</ele><time>2026-04-11T08:35:12Z</time></trkpt><trkpt lat="46.07563611556954" lon="11.41794026060794"><ele>1383.0</ele><time>2026-04-11T08:35:13Z</time></trkpt><trkpt lat="46.07561907950515" lon="11.418057564728796"><ele>1378.75</ele><time>2026-04-11T08:35:14Z</time></trkpt><trkpt lat="46.07562701024823" lon="11.418210412854403"><ele>1374.5</ele><time>2026-04-11T08:35:15Z</time></trkpt><trkpt lat="46.075656581193286" lon="11.418367287624067"><ele>1370.25</ele><time>2026-04-11T08:35:16Z</time></trkpt><trkpt lat="46.075673701024336" lon="11.418539963273494"><ele>1366.0</ele><time>2026-04-11T08:35:17Z</time></trkpt><trkpt lat="46.075716361581755" lon="11.418728221166097"><ele>1364.75</ele><time>2026-04-11T08:35:18Z</time></trkpt><trkpt lat="46.07576009904172" lon="11.418921605949638"><ele>1363.5</ele><time>2026-04-11T08:35:19Z</time></trkpt><trkpt lat="46.07579773811591" lon="11.419119891525492"><ele>1362.25</ele><time>2026-04-11T08:35:19.999Z</time></trkpt><trkpt lat="46.07580661765008" lon="11.41932093390054"><ele>1361.0</ele><time>2026-04-11T08:35:20.999Z</time></trkpt><trkpt lat="46.0757984446614" lon="11.419533089360066"><ele>1370.25</ele><time>2026-04-11T08:35:21.999Z</time></trkpt><trkpt lat="46.07579769417883" lon="11.419741850416743"><ele>1379.5</ele><time>2026-04-11T08:35:22.999Z</time></trkpt><trkpt lat="46.0758135716924" lon="11.419936678832142"><ele>1388.75</ele><time>2026-04-11T08:35:23.999Z</time></trkpt><trkpt lat="46.07582285557482" lon="11.420135452171335"><ele>1398.0</ele><time>2026-04-11T08:35:24.999Z</time></trkpt><trkpt lat="46.075847962775555" lon="11.42032598496052"><ele>1394.25</ele><time>2026-04-11T08:35:25.999Z</time></trkpt><trkpt lat="46.075831294510586" lon="11.420520013331318"><ele>1390.5</ele><time>2026-04-11T08:35:26.999Z</time></trkpt><trkpt lat="46.07583156344449" lon="11.420709980761728"><ele>1386.75</ele><time>2026-04-11T08:35:27.999Z</time></trkpt><trkpt lat="46.075780070744905" lon="11.420879852728705"><ele>1383.0</ele><time>2026-04-11T08:35:28.999Z</time></trkpt><trkpt lat="46.075734081521546" lon="11.421039265028465"><ele>1374.0</ele><time>2026-04-11T08:35:29.999Z</time></trkpt><trkpt lat="46.075699359321305" lon="11.4211976290726"><ele>1365.0</ele><time>2026-04-11T08:35:30.999Z</time></trkpt><trkpt lat="46.07570564111412" lon="11.421354977079927"><ele>1356.0</ele><time>2026-04-11T08:35:31.999Z</time></trkpt><trkpt lat="46.0757148404794" lon="11.421528041993238"><ele>1347.0</ele><time>2026-04-11T08:35:32.999Z</time></trkpt><trkpt lat="46.075724041134556" lon="11.421706700433731"><ele>1346.5</ele><time>2026-04-11T08:35:33.999Z</time></trkpt><trkpt lat="46.07575015963565" lon="11.421894514327516"><ele>1346.0</ele><time>2026-04-11T08:35:34.999Z</time></trkpt><trkpt lat="46.07576562008252" lon="11.422065931530678"><ele>1345.5</ele><time>2026-04-11T08:35:35.999Z</time></trkpt><trkpt lat="46.075781669237195" lon="11.422221276688719"><ele>1345.0</ele><time>2026-04-11T08:35:36.999Z</time></trkpt><trkpt lat="46.0758347302434" lon="11.422345928178759"><ele>1351.25</ele><time>2026-04-11T08:35:37.999Z</time></trkpt><trkpt lat="46.07588658990443" lon="11.422478454019233"><ele>1357.5</ele><time>2026-04-11T08:35:38.999Z</time></trkpt><trkpt lat="46.07596020033265" lon="11.42260497791454"><ele>1363.75</ele><time>2026-04-11T08:35:39.999Z</time></trkpt><trkpt lat="46.07602751869971" lon="11.422750059339224"><ele>1370.0</ele><time>2026-04-11T08:35:40.999Z</time></trkpt><trkpt lat="46.0760829052268" lon="11.422913970476943"><ele>1364.8</ele><time>2026-04-11T08:35:41.999Z</time></trkpt><trkpt lat="46.07614316656135" lon="11.423074936485934"><ele>1359.6</ele><time>2026-04-11T08:35:42.999Z</time></trkpt><trkpt lat="46.07619546370606" lon="11.42321726097741"><ele>1354.4</ele><time>2026-04-11T08:35:43.999Z</time></trkpt><trkpt lat="46.076215209818784" lon="11.423325943119025"><ele>1349.2</ele><time>2026-04-11T08:35:44.999Z</time></trkpt><trkpt lat="46.0762454744523" lon="11.423410969428575"><ele>1344.0</ele><time>2026-04-11T08:35:45.999Z</time></trkpt><trkpt lat="46.076288896030775" lon="11.423516175874436"><ele>1344.0</ele><time>2026-04-11T08:35:47.999Z</time></trkpt><trkpt lat="46.07636060226183" lon="11.423661798519502"><ele>1344.0</ele><time>2026-04-11T08:35:49.999Z</time></trkpt><trkpt lat="46.0763863927268" lon="11.423744882125954"><ele>1344.0</ele><time>2026-04-11T08:35:50.999Z</time></trkpt><trkpt lat="46.076420734418846" lon="11.42384112481704"><ele>1344.0</ele><time>2026-04-11T08:35:52.999Z</time></trkpt><trkpt lat="46.0764885465626" lon="11.423991817421228"><ele>1344.0</ele><time>2026-04-11T08:35:54.999Z</time></trkpt><trkpt lat="46.07652076046578" lon="11.424075671730305"><ele>1344.3333333333333</ele><time>2026-04-11T08:35:55.999Z</time></trkpt><trkpt lat="46.076570778019224" lon="11.424223419159674"><ele>1344.6666666666667</ele><time>2026-04-11T08:35:57.999Z</time></trkpt><trkpt lat="46.07662246039767" lon="11.424297917298375"><ele>1345.0</ele><time>2026-04-11T08:35:58.999Z</time></trkpt><trkpt lat="46.076693842080914" lon="11.424375302018651"><ele>1345.3333333333335</ele><time>2026-04-11T08:35:59.999Z</time></trkpt><trkpt lat="46.07676357808998" lon="11.42446969472014"><ele>1345.6666666666667</ele><time>2026-04-11T08:36:00.999Z</time></trkpt><trkpt lat="46.076810529634656" lon="11.424543671110172"><ele>1346.0</ele><time>2026-04-11T08:36:01.999Z</time></trkpt><trkpt lat="46.07689088433492" lon="11.424661473107456"><ele>1343.5</ele><time>2026-04-11T08:36:04.999Z</time></trkpt><trkpt lat="46.07695897802914" lon="11.424731324769452"><ele>1341.0</ele><time>2026-04-11T08:36:06.999Z</time></trkpt><trkpt lat="46.07705143040424" lon="11.4247836374822"><ele>1338.5</ele><time>2026-04-11T08:36:08.999Z</time></trkpt><trkpt lat="46.07708636434713" lon="11.424860365154156"><ele>1336.0</ele><time>2026-04-11T08:36:09.999Z</time></trkpt><trkpt lat="46.077146806027095" lon="11.42495303128615"><ele>1333.5</ele><time>2026-04-11T08:36:10.999Z</time></trkpt><trkpt lat="46.077229640475245" lon="11.424997104744548"><ele>1331.0</ele><time>2026-04-11T08:36:11.999Z</time></trkpt><trkpt lat="46.077330249944154" lon="11.425040048970468"><ele>1331.0</ele><time>2026-04-11T08:36:12.999Z</time></trkpt><trkpt lat="46.07742454271698" lon="11.425140952966505"><ele>1331.0</ele><time>2026-04-11T08:36:13.999Z</time></trkpt><trkpt lat="46.077523177973305" lon="11.425218414437195"><ele>1331.0</ele><time>2026-04-11T08:36:14.999Z</time></trkpt><trkpt lat="46.077621665475114" lon="11.425302815102375"><ele>1331.0</ele><time>2026-04-11T08:36:15.999Z</time></trkpt><trkpt lat="46.077732410998706" lon="11.425373771550932"><ele>1332.0</ele><time>2026-04-11T08:36:16.999Z</time></trkpt><trkpt lat="46.07782651949131" lon="11.425440320393788"><ele>1333.0</ele><time>2026-04-11T08:36:17.999Z</time></trkpt><trkpt lat="46.077933516575584" lon="11.425464504532833"><ele>1334.0</ele><time>2026-04-11T08:36:18.999Z</time></trkpt><trkpt lat="46.07804243864482" lon="11.42549471881012"><ele>1335.0</ele><time>2026-04-11T08:36:19.999Z</time></trkpt><trkpt lat="46.078155009203684" lon="11.425556795978478"><ele>1336.0</ele><time>2026-04-11T08:36:20.999Z</time></trkpt><trkpt lat="46.07826880094868" lon="11.425624711118035"><ele>1336.0</ele><time>2026-04-11T08:36:21.999Z</time></trkpt><trkpt lat="46.078365296223964" lon="11.425705378508425"><ele>1336.0</ele><time>2026-04-11T08:36:22.999Z</time></trkpt><trkpt lat="46.07843405656558" lon="11.425820195775632"><ele>1336.0</ele><time>2026-04-11T08:36:23.999Z</time></trkpt><trkpt lat="46.078522139475886" lon="11.425934253219188"><ele>1336.0</ele><time>2026-04-11T08:36:25Z</time></trkpt><trkpt lat="46.078614766490595" lon="11.42604476618655"><ele>1336.0</ele><time>2026-04-11T08:36:26Z</time></trkpt><trkpt lat="46.07872395119172" lon="11.426114901366638"><ele>1336.0</ele><time>2026-04-11T08:36:27Z</time></trkpt><trkpt lat="46.07882768957861" lon="11.426174000660655"><ele>1336.0</ele><time>2026-04-11T08:36:28Z</time></trkpt><trkpt lat="46.078912240053256" lon="11.426275821691245"><ele>1336.0</ele><time>2026-04-11T08:36:29Z</time></trkpt><trkpt lat="46.0790330729707" lon="11.426364614941146"><ele>1334.5</ele><time>2026-04-11T08:36:30Z</time></trkpt><trkpt lat="46.07910446912694" lon="11.426486003160433"><ele>1333.0</ele><time>2026-04-11T08:36:31Z</time></trkpt><trkpt lat="46.07915547997682" lon="11.426633630951716"><ele>1331.5</ele><time>2026-04-11T08:36:32Z</time></trkpt><trkpt lat="46.079210790237134" lon="11.426781814993184"><ele>1330.0</ele><time>2026-04-11T08:36:33Z</time></trkpt><trkpt lat="46.07928920019517" lon="11.426909115383594"><ele>1330.0</ele><time>2026-04-11T08:36:34Z</time></trkpt><trkpt lat="46.079358435722405" lon="11.427029548950664"><ele>1330.0</ele><time>2026-04-11T08:36:35Z</time></trkpt><trkpt lat="46.0794172048595" lon="11.427169332957023"><ele>1330.0</ele><time>2026-04-11T08:36:36Z</time></trkpt><trkpt lat="46.07946808437957" lon="11.427326281544133"><ele>1330.0</ele><time>2026-04-11T08:36:37Z</time></trkpt><trkpt lat="46.07951455556069" lon="11.42747854154613"><ele>1325.0</ele><time>2026-04-11T08:36:38Z</time></trkpt><trkpt lat="46.079579719766556" lon="11.427620321426888"><ele>1320.0</ele><time>2026-04-11T08:36:39Z</time></trkpt><trkpt lat="46.07964058189812" lon="11.427745204590387"><ele>1315.0</ele><time>2026-04-11T08:36:40Z</time></trkpt><trkpt lat="46.079719696038566" lon="11.427847864832563"><ele>1310.0</ele><time>2026-04-11T08:36:41Z</time></trkpt><trkpt lat="46.07978537145179" lon="11.427942786342442"><ele>1305.0</ele><time>2026-04-11T08:36:42Z</time></trkpt><trkpt lat="46.07984383089868" lon="11.428044541114874"><ele>1303.1666666666667</ele><time>2026-04-11T08:36:43Z</time></trkpt><trkpt lat="46.07988102088829" lon="11.428156429681279"><ele>1301.3333333333333</ele><time>2026-04-11T08:36:44Z</time></trkpt><trkpt lat="46.07989052625072" lon="11.428260222172662"><ele>1299.5</ele><time>2026-04-11T08:36:45Z</time></trkpt><trkpt lat="46.079857583851314" lon="11.428357161479138"><ele>1297.6666666666665</ele><time>2026-04-11T08:36:46Z</time></trkpt><trkpt lat="46.079781819804545" lon="11.428463142949273"><ele>1295.8333333333333</ele><time>2026-04-11T08:36:48Z</time></trkpt><trkpt lat="46.0797734992217" lon="11.428598163845873"><ele>1294.0</ele><time>2026-04-11T08:36:51Z</time></trkpt><trkpt lat="46.07974543153109" lon="11.428757410625062"><ele>1292.8333333333333</ele><time>2026-04-11T08:36:53Z</time></trkpt><trkpt lat="46.079713844124555" lon="11.428905084517464"><ele>1291.6666666666665</ele><time>2026-04-11T08:36:55Z</time></trkpt><trkpt lat="46.079764385181406" lon="11.429014596260997"><ele>1290.5</ele><time>2026-04-11T08:36:58Z</time></trkpt><trkpt lat="46.07983053884839" lon="11.429104961372175"><ele>1289.3333333333333</ele><time>2026-04-11T08:37:00Z</time></trkpt><trkpt lat="46.07989808361904" lon="11.429169435145859"><ele>1288.1666666666667</ele><time>2026-04-11T08:37:02Z</time></trkpt><trkpt lat="46.079961814802" lon="11.429205622414628"><ele>1287.0</ele><time>2026-04-11T08:37:13Z</time></trkpt><trkpt lat="46.08003179367074" lon="11.42921962887212"><ele>1287.0</ele><time>2026-04-11T08:37:35.999Z</time></trkpt><trkpt lat="46.079960159321395" lon="11.429178301596645"><ele>1287.0</ele><time>2026-04-11T08:37:40.999Z</time></trkpt><trkpt lat="46.07989466609745" lon="11.429133439942673"><ele>1287.0</ele><time>2026-04-11T08:37:43.999Z</time></trkpt><trkpt lat="46.079830009873824" lon="11.429061948038301"><ele>1287.0</ele><time>2026-04-11T08:37:47.999Z</time></trkpt><trkpt lat="46.079823786057254" lon="11.428946831047629"><ele>1287.0</ele><time>2026-04-11T08:37:50.999Z</time></trkpt><trkpt lat="46.07984029707724" lon="11.42884416878983"><ele>1287.0</ele><time>2026-04-11T08:37:51.999Z</time></trkpt><trkpt lat="46.07985505219049" lon="11.4286826334847"><ele>1288.3999999999999</ele><time>2026-04-11T08:37:53.999Z</time></trkpt><trkpt lat="46.0798771031999" lon="11.428558893336536"><ele>1289.8</ele><time>2026-04-11T08:37:54.999Z</time></trkpt><trkpt lat="46.079892819185254" lon="11.428465716625242"><ele>1291.2</ele><time>2026-04-11T08:37:55.999Z</time></trkpt><trkpt lat="46.07987241228864" lon="11.428270040873686"><ele>1292.6</ele><time>2026-04-11T08:37:57.999Z</time></trkpt><trkpt lat="46.079828682732774" lon="11.428111133338225"><ele>1294.0</ele><time>2026-04-11T08:37:59.999Z</time></trkpt><trkpt lat="46.07981418013065" lon="11.427979075810052"><ele>1296.2</ele><time>2026-04-11T08:38:00.999Z</time></trkpt><trkpt lat="46.07977182994222" lon="11.427892916666936"><ele>1298.4</ele><time>2026-04-11T08:38:01.999Z</time></trkpt><trkpt lat="46.079722257000434" lon="11.427811241965149"><ele>1300.6</ele><time>2026-04-11T08:38:02.999Z</time></trkpt><trkpt lat="46.07965455449158" lon="11.427730502228437"><ele>1302.8</ele><time>2026-04-11T08:38:03.999Z</time></trkpt><trkpt lat="46.07956240584644" lon="11.427622086545265"><ele>1305.0</ele><time>2026-04-11T08:38:04.999Z</time></trkpt><trkpt lat="46.07950163423462" lon="11.427466436921122"><ele>1305.0</ele><time>2026-04-11T08:38:05.999Z</time></trkpt><trkpt lat="46.07944600427443" lon="11.427273773476148"><ele>1305.0</ele><time>2026-04-11T08:38:06.999Z</time></trkpt><trkpt lat="46.07938095746185" lon="11.427082353468007"><ele>1305.0</ele><time>2026-04-11T08:38:07.999Z</time></trkpt><trkpt lat="46.07930772551022" lon="11.426907397228414"><ele>1305.0</ele><time>2026-04-11T08:38:08.999Z</time></trkpt><trkpt lat="46.07923161537903" lon="11.42675325366021"><ele>1304.75</ele><time>2026-04-11T08:38:09.999Z</time></trkpt><trkpt lat="46.07914265053342" lon="11.42662339206646"><ele>1304.5</ele><time>2026-04-11T08:38:10.999Z</time></trkpt><trkpt lat="46.07907146114106" lon="11.42647186069631"><ele>1304.25</ele><time>2026-04-11T08:38:11.999Z</time></trkpt><trkpt lat="46.07901603676712" lon="11.426354863255547"><ele>1304.0</ele><time>2026-04-11T08:38:12.999Z</time></trkpt><trkpt lat="46.07893884398138" lon="11.426261065833874"><ele>1312.0</ele><time>2026-04-11T08:38:13.999Z</time></trkpt><trkpt lat="46.07884381548075" lon="11.426173062435351"><ele>1320.0</ele><time>2026-04-11T08:38:14.999Z</time></trkpt><trkpt lat="46.07874592917126" lon="11.42609853443479"><ele>1328.0</ele><time>2026-04-11T08:38:15.999Z</time></trkpt><trkpt lat="46.078633381472855" lon="11.426021299390941"><ele>1336.0</ele><time>2026-04-11T08:38:16.999Z</time></trkpt><trkpt lat="46.078536705436" lon="11.425926103695437"><ele>1336.0</ele><time>2026-04-11T08:38:17.999Z</time></trkpt><trkpt lat="46.07843721331718" lon="11.425823881383469"><ele>1336.0</ele><time>2026-04-11T08:38:18.999Z</time></trkpt><trkpt lat="46.078345206972365" lon="11.425732224090245"><ele>1336.0</ele><time>2026-04-11T08:38:19.999Z</time></trkpt><trkpt lat="46.07824516095406" lon="11.42564093517751"><ele>1336.0</ele><time>2026-04-11T08:38:20.999Z</time></trkpt><trkpt lat="46.07815270711802" lon="11.425554799354043"><ele>1339.6</ele><time>2026-04-11T08:38:21.999Z</time></trkpt><trkpt lat="46.07804743913325" lon="11.425460354650728"><ele>1343.1999999999998</ele><time>2026-04-11T08:38:22.999Z</time></trkpt><trkpt lat="46.077952842064434" lon="11.425431391637163"><ele>1346.8000000000002</ele><time>2026-04-11T08:38:23.999Z</time></trkpt><trkpt lat="46.07785097086285" lon="11.425419610320517"><ele>1350.4</ele><time>2026-04-11T08:38:24.999Z</time></trkpt><trkpt lat="46.0777466083837" lon="11.425342906335027"><ele>1354.0</ele><time>2026-04-11T08:38:25.999Z</time></trkpt><trkpt lat="46.077625420274565" lon="11.42525694150649"><ele>1354.0</ele><time>2026-04-11T08:38:26.999Z</time></trkpt><trkpt lat="46.07751620272334" lon="11.425168859373194"><ele>1354.0</ele><time>2026-04-11T08:38:27.999Z</time></trkpt><trkpt lat="46.07742031183602" lon="11.425084851346769"><ele>1354.0</ele><time>2026-04-11T08:38:28.999Z</time></trkpt><trkpt lat="46.077315230617266" lon="11.424951493774854"><ele>1354.0</ele><time>2026-04-11T08:38:29.999Z</time></trkpt><trkpt lat="46.077239433207666" lon="11.424917334609006"><ele>1352.4</ele><time>2026-04-11T08:38:31Z</time></trkpt><trkpt lat="46.07715925470543" lon="11.424830903284501"><ele>1350.8000000000002</ele><time>2026-04-11T08:38:32Z</time></trkpt><trkpt lat="46.077056804093175" lon="11.424756349421834"><ele>1349.1999999999998</ele><time>2026-04-11T08:38:33Z</time></trkpt><trkpt lat="46.07696509328063" lon="11.424694933937534"><ele>1347.6</ele><time>2026-04-11T08:38:34Z</time></trkpt><trkpt lat="46.07688942229592" lon="11.424600333139269"><ele>1346.0</ele><time>2026-04-11T08:38:35Z</time></trkpt><trkpt lat="46.07682736862268" lon="11.424507333991519"><ele>1346.0</ele><time>2026-04-11T08:38:36Z</time></trkpt><trkpt lat="46.07675911711437" lon="11.424411201656143"><ele>1346.0</ele><time>2026-04-11T08:38:37Z</time></trkpt><trkpt lat="46.07668934453457" lon="11.424312926911915"><ele>1346.0</ele><time>2026-04-11T08:38:38Z</time></trkpt><trkpt lat="46.07663203383894" lon="11.424227142077962"><ele>1346.0</ele><time>2026-04-11T08:38:39Z</time></trkpt><trkpt lat="46.07657693656236" lon="11.424140524263581"><ele>1346.0</ele><time>2026-04-11T08:38:40Z</time></trkpt><trkpt lat="46.076508646122576" lon="11.423904378557966"><ele>1345.5</ele><time>2026-04-11T08:38:42Z</time></trkpt><trkpt lat="46.07643039466248" lon="11.42373418235136"><ele>1345.0</ele><time>2026-04-11T08:38:43Z</time></trkpt><trkpt lat="46.0763390365353" lon="11.423538139359149"><ele>1344.5</ele><time>2026-04-11T08:38:44Z</time></trkpt><trkpt lat="46.07627640272635" lon="11.423392277139781"><ele>1344.0</ele><time>2026-04-11T08:38:45Z</time></trkpt><trkpt lat="46.076217972584445" lon="11.423229248361805"><ele>1344.0</ele><time>2026-04-11T08:38:46Z</time></trkpt><trkpt lat="46.076164345152094" lon="11.423098074732842"><ele>1344.0</ele><time>2026-04-11T08:38:47Z</time></trkpt><trkpt lat="46.076090783553106" lon="11.422931307556878"><ele>1344.0</ele><time>2026-04-11T08:38:48Z</time></trkpt><trkpt lat="46.07595050301271" lon="11.422642284420714"><ele>1357.0</ele><time>2026-04-11T08:38:49Z</time></trkpt><trkpt lat="46.0758371962191" lon="11.422479371635083"><ele>1370.0</ele><time>2026-04-11T08:38:50Z</time></trkpt><trkpt lat="46.07510635194642" lon="11.423018464516959"><ele>1359.5</ele><time>2026-04-11T08:38:51Z</time></trkpt><trkpt lat="46.0750237238653" lon="11.422891262027944"><ele>1349.0</ele><time>2026-04-11T08:38:52Z</time></trkpt><trkpt lat="46.07494835731135" lon="11.42272745730439"><ele>1338.5</ele><time>2026-04-11T08:38:53Z</time></trkpt><trkpt lat="46.074846314421535" lon="11.422569845718177"><ele>1328.0</ele><time>2026-04-11T08:38:54Z</time></trkpt><trkpt lat="46.0747298162315" lon="11.422380336604343"><ele>1318.0</ele><time>2026-04-11T08:38:55Z</time></trkpt><trkpt lat="46.07460416388132" lon="11.422202763655402"><ele>1308.0</ele><time>2026-04-11T08:38:56Z</time></trkpt><trkpt lat="46.07449209473645" lon="11.422045972524716"><ele>1298.0</ele><time>2026-04-11T08:38:57Z</time></trkpt><trkpt lat="46.07441373967646" lon="11.421855556857578"><ele>1298.0</ele><time>2026-04-11T08:38:58Z</time></trkpt><trkpt lat="46.07437214520323" lon="11.421665174115754"><ele>1298.0</ele><time>2026-04-11T08:38:59Z</time></trkpt><trkpt lat="46.074333611081265" lon="11.421454990632505"><ele>1298.0</ele><time>2026-04-11T08:39:00Z</time></trkpt><trkpt lat="46.074298842426785" lon="11.421236192720013"><ele>1298.0</ele><time>2026-04-11T08:39:01Z</time></trkpt><trkpt lat="46.07425823429605" lon="11.421008632095196"><ele>1300.0</ele><time>2026-04-11T08:39:02Z</time></trkpt><trkpt lat="46.07421150536375" lon="11.420816480470206"><ele>1302.0</ele><time>2026-04-11T08:39:03Z</time></trkpt><trkpt lat="46.07414543372747" lon="11.420611809695187"><ele>1304.0</ele><time>2026-04-11T08:39:04Z</time></trkpt><trkpt lat="46.07408494035082" lon="11.420418110806255"><ele>1306.0</ele><time>2026-04-11T08:39:05Z</time></trkpt><trkpt lat="46.07397836609771" lon="11.420224734544195"><ele>1292.6666666666665</ele><time>2026-04-11T08:39:06Z</time></trkpt><trkpt lat="46.07388064184721" lon="11.420055628014342"><ele>1279.3333333333333</ele><time>2026-04-11T08:39:07Z</time></trkpt><trkpt lat="46.073801937678624" lon="11.419880212322271"><ele>1266.0</ele><time>2026-04-11T08:39:08Z</time></trkpt><trkpt lat="46.07371690791774" lon="11.419651126265524"><ele>1269.0</ele><time>2026-04-11T08:39:09Z</time></trkpt><trkpt lat="46.07364314235044" lon="11.41952498341697"><ele>1272.0</ele><time>2026-04-11T08:39:10Z</time></trkpt><trkpt lat="46.073588084257736" lon="11.419375693672798"><ele>1275.0</ele><time>2026-04-11T08:39:11Z</time></trkpt><trkpt lat="46.07351850385382" lon="11.419168950945354"><ele>1278.0</ele><time>2026-04-11T08:39:12Z</time></trkpt><trkpt lat="46.07346345855284" lon="11.418977667269658"><ele>1280.6666666666667</ele><time>2026-04-11T08:39:13Z</time></trkpt><trkpt lat="46.07340888684983" lon="11.418749660572932"><ele>1283.3333333333335</ele><time>2026-04-11T08:39:14Z</time></trkpt><trkpt lat="46.073344942433074" lon="11.41851773905445"><ele>1286.0</ele><time>2026-04-11T08:39:15Z</time></trkpt><trkpt lat="46.0732776439192" lon="11.418290760780248"><ele>1274.0</ele><time>2026-04-11T08:39:16Z</time></trkpt><trkpt lat="46.073243100961875" lon="11.418060668738798"><ele>1262.0</ele><time>2026-04-11T08:39:17Z</time></trkpt><trkpt lat="46.07321355777257" lon="11.417877244498124"><ele>1250.0</ele><time>2026-04-11T08:39:18Z</time></trkpt><trkpt lat="46.073168979935716" lon="11.417698071568275"><ele>1238.0</ele><time>2026-04-11T08:39:19Z</time></trkpt><trkpt lat="46.07315273351258" lon="11.417554551427896"><ele>1237.8</ele><time>2026-04-11T08:39:20Z</time></trkpt><trkpt lat="46.07313280448796" lon="11.41744215647452"><ele>1237.6</ele><time>2026-04-11T08:39:21Z</time></trkpt><trkpt lat="46.07308039647505" lon="11.417377914802401"><ele>1237.4</ele><time>2026-04-11T08:39:23Z</time></trkpt><trkpt lat="46.073014991109545" lon="11.417392156296195"><ele>1237.2</ele><time>2026-04-11T08:39:25Z</time></trkpt><trkpt lat="46.07301343382632" lon="11.417672674735874"><ele>1237.0</ele><time>2026-04-11T08:39:26Z</time></trkpt><trkpt lat="46.0730328777626" lon="11.417825767838584"><ele>1237.25</ele><time>2026-04-11T08:39:27Z</time></trkpt><trkpt lat="46.073011449993025" lon="11.418009421233656"><ele>1237.5</ele><time>2026-04-11T08:39:28Z</time></trkpt><trkpt lat="46.07298096722397" lon="11.418225925538254"><ele>1237.75</ele><time>2026-04-11T08:39:29Z</time></trkpt><trkpt lat="46.07292455381297" lon="11.418427631464622"><ele>1238.0</ele><time>2026-04-11T08:39:30Z</time></trkpt><trkpt lat="46.072868244193785" lon="11.418595493056563"><ele>1238.0</ele><time>2026-04-11T08:39:31Z</time></trkpt><trkpt lat="46.072832462999834" lon="11.418749405557602"><ele>1238.0</ele><time>2026-04-11T08:39:32Z</time></trkpt><trkpt lat="46.07283570850886" lon="11.418915861344622"><ele>1238.0</ele><time>2026-04-11T08:39:33Z</time></trkpt><trkpt lat="46.07288438138639" lon="11.419094711973434"><ele>1238.0</ele><time>2026-04-11T08:39:33.999Z</time></trkpt><trkpt lat="46.072947909585935" lon="11.419260301636637"><ele>1236.8</ele><time>2026-04-11T08:39:34.999Z</time></trkpt><trkpt lat="46.072974972701125" lon="11.419449898985263"><ele>1235.6</ele><time>2026-04-11T08:39:35.999Z</time></trkpt><trkpt lat="46.07299829400471" lon="11.419598778606657"><ele>1234.4</ele><time>2026-04-11T08:39:36.999Z</time></trkpt><trkpt lat="46.07301424121474" lon="11.419721757030713"><ele>1233.2</ele><time>2026-04-11T08:39:37.999Z</time></trkpt><trkpt lat="46.07303392444979" lon="11.41982595552549"><ele>1232.0</ele><time>2026-04-11T08:39:38.999Z</time></trkpt><trkpt lat="46.07302989338432" lon="11.419926332610656"><ele>1230.0</ele><time>2026-04-11T08:39:39.999Z</time></trkpt><trkpt lat="46.073012375462255" lon="11.420068489922384"><ele>1228.0</ele><time>2026-04-11T08:39:41.999Z</time></trkpt><trkpt lat="46.073028031486686" lon="11.420170310883256"><ele>1226.0</ele><time>2026-04-11T08:39:43.999Z</time></trkpt><trkpt lat="46.073034354050144" lon="11.42030794716081"><ele>1224.0</ele><time>2026-04-11T08:39:45.999Z</time></trkpt><trkpt lat="46.07306268164316" lon="11.420490224525606"><ele>1222.0</ele><time>2026-04-11T08:39:47.999Z</time></trkpt><trkpt lat="46.0730824258377" lon="11.420620647571543"><ele>1220.8</ele><time>2026-04-11T08:39:48.999Z</time></trkpt><trkpt lat="46.073099466790225" lon="11.420754886130949"><ele>1219.6</ele><time>2026-04-11T08:39:49.999Z</time></trkpt><trkpt lat="46.07311360929818" lon="11.420898111520556"><ele>1218.3999999999999</ele><time>2026-04-11T08:39:50.999Z</time></trkpt><trkpt lat="46.07312742105709" lon="11.421068272779626"><ele>1217.2</ele><time>2026-04-11T08:39:51.999Z</time></trkpt><trkpt lat="46.0731385580855" lon="11.421245663432897"><ele>1216.0</ele><time>2026-04-11T08:39:52.999Z</time></trkpt><trkpt lat="46.07316381049627" lon="11.421439389373152"><ele>1212.75</ele><time>2026-04-11T08:39:53.999Z</time></trkpt><trkpt lat="46.07318704018586" lon="11.421629478287414"><ele>1209.5</ele><time>2026-04-11T08:39:54.999Z</time></trkpt><trkpt lat="46.07320137226183" lon="11.421832579726933"><ele>1206.25</ele><time>2026-04-11T08:39:55.999Z</time></trkpt><trkpt lat="46.07322464912974" lon="11.421991069043868"><ele>1203.0</ele><time>2026-04-11T08:39:56.999Z</time></trkpt><trkpt lat="46.07327266282667" lon="11.422131543271904"><ele>1207.8</ele><time>2026-04-11T08:39:57.999Z</time></trkpt><trkpt lat="46.07328453277587" lon="11.42223984434093"><ele>1212.6</ele><time>2026-04-11T08:39:58.999Z</time></trkpt><trkpt lat="46.073352054312956" lon="11.422331794506375"><ele>1217.4</ele><time>2026-04-11T08:39:59.999Z</time></trkpt><trkpt lat="46.07343663009127" lon="11.422397704746817"><ele>1222.2</ele><time>2026-04-11T08:40:00.999Z</time></trkpt><trkpt lat="46.07352530385176" lon="11.422455044839635"><ele>1227.0</ele><time>2026-04-11T08:40:01.999Z</time></trkpt><trkpt lat="46.07360628491554" lon="11.422515284289455"><ele>1227.0</ele><time>2026-04-11T08:40:02.999Z</time></trkpt><trkpt lat="46.07366906901004" lon="11.422594037291542"><ele>1227.0</ele><time>2026-04-11T08:40:03.999Z</time></trkpt><trkpt lat="46.073671506215526" lon="11.422716758220849"><ele>1227.0</ele><time>2026-04-11T08:40:04.999Z</time></trkpt><trkpt lat="46.07370284505068" lon="11.422866641036261"><ele>1227.0</ele><time>2026-04-11T08:40:05.999Z</time></trkpt><trkpt lat="46.07369743016122" lon="11.423004816944534"><ele>1227.0</ele><time>2026-04-11T08:40:07.999Z</time></trkpt><trkpt lat="46.073634662185526" lon="11.422976757373227"><ele>1227.0</ele><time>2026-04-11T08:40:08.999Z</time></trkpt><trkpt lat="46.07359152239597" lon="11.42290099649591"><ele>1227.0</ele><time>2026-04-11T08:40:09.999Z</time></trkpt><trkpt lat="46.07354817189369" lon="11.422786514887134"><ele>1227.0</ele><time>2026-04-11T08:40:10.999Z</time></trkpt><trkpt lat="46.07348895253404" lon="11.422659716194007"><ele>1227.0</ele><time>2026-04-11T08:40:11.999Z</time></trkpt><trkpt lat="46.07334220151521" lon="11.422557236228556"><ele>1227.0</ele><time>2026-04-11T08:40:12.999Z</time></trkpt><trkpt lat="46.07316323075319" lon="11.422535339204426"><ele>1222.2</ele><time>2026-04-11T08:40:13.999Z</time></trkpt><trkpt lat="46.073016876964864" lon="11.422467480988235"><ele>1217.4</ele><time>2026-04-11T08:40:14.999Z</time></trkpt><trkpt lat="46.07293624978684" lon="11.422387048132071"><ele>1212.6</ele><time>2026-04-11T08:40:15.999Z</time></trkpt><trkpt lat="46.072885721491765" lon="11.422312495019666"><ele>1207.8</ele><time>2026-04-11T08:40:16.999Z</time></trkpt><trkpt lat="46.07280903823571" lon="11.422171279379"><ele>1203.0</ele><time>2026-04-11T08:40:17.999Z</time></trkpt><trkpt lat="46.07272478771117" lon="11.422023736420243"><ele>1203.0</ele><time>2026-04-11T08:40:18.999Z</time></trkpt><trkpt lat="46.072621254061275" lon="11.421852783285377"><ele>1203.0</ele><time>2026-04-11T08:40:19.999Z</time></trkpt><trkpt lat="46.07251487194251" lon="11.421693055641775"><ele>1203.0</ele><time>2026-04-11T08:40:20.999Z</time></trkpt><trkpt lat="46.072375032370864" lon="11.421548086000543"><ele>1196.75</ele><time>2026-04-11T08:40:21.999Z</time></trkpt><trkpt lat="46.0722497301924" lon="11.421428852596438"><ele>1190.5</ele><time>2026-04-11T08:40:22.999Z</time></trkpt><trkpt lat="46.07216791980372" lon="11.42132592891332"><ele>1184.25</ele><time>2026-04-11T08:40:23.999Z</time></trkpt><trkpt lat="46.072090439677105" lon="11.421211740803553"><ele>1178.0</ele><time>2026-04-11T08:40:24.999Z</time></trkpt><trkpt lat="46.07202998965293" lon="11.421113803348796"><ele>1178.0</ele><time>2026-04-11T08:40:25.999Z</time></trkpt><trkpt lat="46.071983039983806" lon="11.42103181318748"><ele>1178.0</ele><time>2026-04-11T08:40:26.999Z</time></trkpt><trkpt lat="46.071934754221765" lon="11.420937899617256"><ele>1178.0</ele><time>2026-04-11T08:40:28.999Z</time></trkpt><trkpt lat="46.071882803203266" lon="11.420831166862621"><ele>1178.0</ele><time>2026-04-11T08:40:31.999Z</time></trkpt><trkpt lat="46.07182669335617" lon="11.420775487974769"><ele>1178.0</ele><time>2026-04-11T08:40:33.999Z</time></trkpt><trkpt lat="46.07164741312425" lon="11.420924287445967"><ele>1172.4</ele><time>2026-04-11T08:40:34.999Z</time></trkpt><trkpt lat="46.07158071268148" lon="11.421010802911288"><ele>1166.8</ele><time>2026-04-11T08:40:38Z</time></trkpt><trkpt lat="46.071533968338" lon="11.421171109672482"><ele>1161.2</ele><time>2026-04-11T08:40:40Z</time></trkpt><trkpt lat="46.07146895546431" lon="11.42130423797082"><ele>1155.6</ele><time>2026-04-11T08:40:42Z</time></trkpt><trkpt lat="46.07144225400558" lon="11.421428159655362"><ele>1150.0</ele><time>2026-04-11T08:40:44Z</time></trkpt><trkpt lat="46.07142561711182" lon="11.421528099177205"><ele>1149.1666666666665</ele><time>2026-04-11T08:40:45Z</time></trkpt><trkpt lat="46.07142825098224" lon="11.421624924815402"><ele>1148.3333333333333</ele><time>2026-04-11T08:40:46Z</time></trkpt><trkpt lat="46.071429029559816" lon="11.421733129355385"><ele>1147.5</ele><time>2026-04-11T08:40:47Z</time></trkpt><trkpt lat="46.07157528020196" lon="11.421827105460133"><ele>1146.6666666666667</ele><time>2026-04-11T08:40:48Z</time></trkpt><trkpt lat="46.071578666015284" lon="11.421922729732962"><ele>1145.8333333333335</ele><time>2026-04-11T08:40:49Z</time></trkpt><trkpt lat="46.07158080433058" lon="11.422020460252698"><ele>1145.0</ele><time>2026-04-11T08:40:51Z</time></trkpt><trkpt lat="46.07159901225016" lon="11.422150749562404"><ele>1143.6666666666667</ele><time>2026-04-11T08:40:53Z</time></trkpt><trkpt lat="46.07161044807693" lon="11.422293080604382"><ele>1142.3333333333335</ele><time>2026-04-11T08:40:55Z</time></trkpt><trkpt lat="46.07159498504226" lon="11.422392677715761"><ele>1141.0</ele><time>2026-04-11T08:40:56Z</time></trkpt><trkpt lat="46.071591267630204" lon="11.422498049036884"><ele>1139.6666666666667</ele><time>2026-04-11T08:40:57Z</time></trkpt><trkpt lat="46.071593939202764" lon="11.422607963144603"><ele>1138.3333333333333</ele><time>2026-04-11T08:40:58Z</time></trkpt><trkpt lat="46.07161203925296" lon="11.42273144884898"><ele>1137.0</ele><time>2026-04-11T08:40:59Z</time></trkpt><trkpt lat="46.07163754306014" lon="11.422868576166987"><ele>1133.8</ele><time>2026-04-11T08:41:00Z</time></trkpt><trkpt lat="46.071630008903945" lon="11.423013905194072"><ele>1130.6</ele><time>2026-04-11T08:41:01Z</time></trkpt><trkpt lat="46.07159264865724" lon="11.42312784558693"><ele>1127.3999999999999</ele><time>2026-04-11T08:41:02Z</time></trkpt><trkpt lat="46.07155217465096" lon="11.42325189039385"><ele>1124.2</ele><time>2026-04-11T08:41:03Z</time></trkpt><trkpt lat="46.071505051583244" lon="11.423359633667488"><ele>1121.0</ele><time>2026-04-11T08:41:04Z</time></trkpt><trkpt lat="46.07149374506219" lon="11.423488150644404"><ele>1121.0</ele><time>2026-04-11T08:41:05Z</time></trkpt><trkpt lat="46.0715119807283" lon="11.423640786144468"><ele>1121.0</ele><time>2026-04-11T08:41:06Z</time></trkpt><trkpt lat="46.0715422584444" lon="11.42377435511069"><ele>1121.0</ele><time>2026-04-11T08:41:07Z</time></trkpt><trkpt lat="46.071603471864584" lon="11.423855440794464"><ele>1121.0</ele><time>2026-04-11T08:41:08Z</time></trkpt><trkpt lat="46.07168826849902" lon="11.423902028990824"><ele>1121.0</ele><time>2026-04-11T08:41:09Z</time></trkpt><trkpt lat="46.07177929283022" lon="11.42389192889448"><ele>1124.0</ele><time>2026-04-11T08:41:10Z</time></trkpt><trkpt lat="46.07185712954224" lon="11.423913515459502"><ele>1127.0</ele><time>2026-04-11T08:41:11Z</time></trkpt><trkpt lat="46.07195969993518" lon="11.423914016634441"><ele>1130.0</ele><time>2026-04-11T08:41:12Z</time></trkpt><trkpt lat="46.07206247004651" lon="11.423915341759844"><ele>1133.0</ele><time>2026-04-11T08:41:13Z</time></trkpt><trkpt lat="46.072169987074844" lon="11.423924959094313"><ele>1136.0</ele><time>2026-04-11T08:41:14Z</time></trkpt><trkpt lat="46.07228891279419" lon="11.423939313090878"><ele>1136.0</ele><time>2026-04-11T08:41:15Z</time></trkpt><trkpt lat="46.07240950894828" lon="11.423959913856264"><ele>1136.0</ele><time>2026-04-11T08:41:16Z</time></trkpt><trkpt lat="46.07249276302219" lon="11.424044435654938"><ele>1136.0</ele><time>2026-04-11T08:41:17Z</time></trkpt><trkpt lat="46.07257628393649" lon="11.42413406996445"><ele>1136.0</ele><time>2026-04-11T08:41:18Z</time></trkpt><trkpt lat="46.072647425713576" lon="11.424273631826075"><ele>1136.0</ele><time>2026-04-11T08:41:19Z</time></trkpt><trkpt lat="46.07273527096825" lon="11.424403768053036"><ele>1133.25</ele><time>2026-04-11T08:41:20Z</time></trkpt><trkpt lat="46.07283456758985" lon="11.424500624426596"><ele>1130.5</ele><time>2026-04-11T08:41:21Z</time></trkpt><trkpt lat="46.072939851371736" lon="11.424584021226112"><ele>1127.75</ele><time>2026-04-11T08:41:22Z</time></trkpt><trkpt lat="46.07306521084874" lon="11.424607436872064"><ele>1125.0</ele><time>2026-04-11T08:41:23Z</time></trkpt><trkpt lat="46.0731918828473" lon="11.424689174217702"><ele>1130.6</ele><time>2026-04-11T08:41:24Z</time></trkpt><trkpt lat="46.07329260633826" lon="11.424757142250309"><ele>1136.2</ele><time>2026-04-11T08:41:25Z</time></trkpt><trkpt lat="46.07337726041756" lon="11.424832267808403"><ele>1141.8</ele><time>2026-04-11T08:41:26Z</time></trkpt><trkpt lat="46.07345322987731" lon="11.424951547475823"><ele>1147.4</ele><time>2026-04-11T08:41:27Z</time></trkpt><trkpt lat="46.073451025555144" lon="11.425117254014681"><ele>1153.0</ele><time>2026-04-11T08:41:28Z</time></trkpt><trkpt lat="46.07346096334434" lon="11.425287226770875"><ele>1153.0</ele><time>2026-04-11T08:41:29Z</time></trkpt><trkpt lat="46.07347744165032" lon="11.425465179704563"><ele>1153.0</ele><time>2026-04-11T08:41:30Z</time></trkpt><trkpt lat="46.07348504582351" lon="11.425613859758544"><ele>1153.0</ele><time>2026-04-11T08:41:31Z</time></trkpt><trkpt lat="46.07353168627076" lon="11.425727683480487"><ele>1153.0</ele><time>2026-04-11T08:41:32Z</time></trkpt><trkpt lat="46.07358226491026" lon="11.425833248845473"><ele>1153.0</ele><time>2026-04-11T08:41:33Z</time></trkpt><trkpt lat="46.07362716771983" lon="11.4259933919374"><ele>1147.0</ele><time>2026-04-11T08:41:34Z</time></trkpt><trkpt lat="46.07368437258364" lon="11.426145077897598"><ele>1141.0</ele><time>2026-04-11T08:41:35Z</time></trkpt><trkpt lat="46.07374124570933" lon="11.426303386436897"><ele>1135.0</ele><time>2026-04-11T08:41:36Z</time></trkpt><trkpt lat="46.0737921807699" lon="11.426465143797206"><ele>1129.0</ele><time>2026-04-11T08:41:37Z</time></trkpt><trkpt lat="46.07385217728998" lon="11.426614859424852"><ele>1126.25</ele><time>2026-04-11T08:41:37.999Z</time></trkpt><trkpt lat="46.07388319386801" lon="11.426818759751947"><ele>1123.5</ele><time>2026-04-11T08:41:38.999Z</time></trkpt><trkpt lat="46.073911987491805" lon="11.426985106419261"><ele>1120.75</ele><time>2026-04-11T08:41:39.999Z</time></trkpt><trkpt lat="46.07392897022015" lon="11.427150949753214"><ele>1118.0</ele><time>2026-04-11T08:41:40.999Z</time></trkpt><trkpt lat="46.07392855916977" lon="11.427296511910983"><ele>1114.5</ele><time>2026-04-11T08:41:41.999Z</time></trkpt><trkpt lat="46.073879856194054" lon="11.427461339447284"><ele>1111.0</ele><time>2026-04-11T08:41:42.999Z</time></trkpt><trkpt lat="46.07385317872104" lon="11.427623575007198"><ele>1107.5</ele><time>2026-04-11T08:41:43.999Z</time></trkpt><trkpt lat="46.07384343394512" lon="11.427761544930965"><ele>1104.0</ele><time>2026-04-11T08:41:44.999Z</time></trkpt><trkpt lat="46.073837535212625" lon="11.427931901500672"><ele>1101.8333333333333</ele><time>2026-04-11T08:41:45.999Z</time></trkpt><trkpt lat="46.073844214979545" lon="11.428044819290964"><ele>1099.6666666666667</ele><time>2026-04-11T08:41:46.999Z</time></trkpt><trkpt lat="46.07390950365273" lon="11.428152814445385"><ele>1097.5</ele><time>2026-04-11T08:41:47.999Z</time></trkpt><trkpt lat="46.07399194078801" lon="11.428239072219746"><ele>1095.3333333333335</ele><time>2026-04-11T08:41:48.999Z</time></trkpt><trkpt lat="46.07404027277895" lon="11.428305476262787"><ele>1093.1666666666667</ele><time>2026-04-11T08:41:49.999Z</time></trkpt><trkpt lat="46.07407579014719" lon="11.428381270776125"><ele>1091.0</ele><time>2026-04-11T08:41:50.999Z</time></trkpt><trkpt lat="46.07406978033759" lon="11.428496395846487"><ele>1091.0</ele><time>2026-04-11T08:41:52.999Z</time></trkpt><trkpt lat="46.07396348802978" lon="11.428461188188047"><ele>1091.0</ele><time>2026-04-11T08:41:54.999Z</time></trkpt><trkpt lat="46.073859787242206" lon="11.428453606546835"><ele>1091.0</ele><time>2026-04-11T08:41:56.999Z</time></trkpt><trkpt lat="46.073791428042206" lon="11.428463925123888"><ele>1091.0</ele><time>2026-04-11T08:41:58.999Z</time></trkpt><trkpt lat="46.07371973459898" lon="11.428467457727907"><ele>1091.0</ele><time>2026-04-11T08:42:00.999Z</time></trkpt><trkpt lat="46.07364041790204" lon="11.428502528505186"><ele>1091.0</ele><time>2026-04-11T08:42:03.999Z</time></trkpt><trkpt lat="46.07357449955541" lon="11.428383691654243"><ele>1091.0</ele><time>2026-04-11T08:42:05.999Z</time></trkpt><trkpt lat="46.073601383357335" lon="11.428281015538326"><ele>1091.0</ele><time>2026-04-11T08:42:09.999Z</time></trkpt><trkpt lat="46.07360787919873" lon="11.428132477942818"><ele>1091.0</ele><time>2026-04-11T08:42:12.999Z</time></trkpt><trkpt lat="46.07361390970756" lon="11.428026234453029"><ele>1091.0</ele><time>2026-04-11T08:42:13.999Z</time></trkpt><trkpt lat="46.07362938891634" lon="11.427890445069593"><ele>1091.0</ele><time>2026-04-11T08:42:14.999Z</time></trkpt><trkpt lat="46.07365635760772" lon="11.42775009549599"><ele>1093.6</ele><time>2026-04-11T08:42:15.999Z</time></trkpt><trkpt lat="46.073616050520336" lon="11.427611275005297"><ele>1096.1999999999998</ele><time>2026-04-11T08:42:16.999Z</time></trkpt><trkpt lat="46.07355192016388" lon="11.42747873501119"><ele>1098.8000000000002</ele><time>2026-04-11T08:42:17.999Z</time></trkpt><trkpt lat="46.07348429561946" lon="11.427368456732562"><ele>1101.4</ele><time>2026-04-11T08:42:18.999Z</time></trkpt><trkpt lat="46.07337700134536" lon="11.427302885414724"><ele>1104.0</ele><time>2026-04-11T08:42:19.999Z</time></trkpt><trkpt lat="46.0732611590847" lon="11.42731089526918"><ele>1099.8</ele><time>2026-04-11T08:42:20.999Z</time></trkpt><trkpt lat="46.07315711790052" lon="11.427276861901351"><ele>1095.6000000000001</ele><time>2026-04-11T08:42:21.999Z</time></trkpt><trkpt lat="46.07305727614939" lon="11.427246052093901"><ele>1091.4</ele><time>2026-04-11T08:42:22.999Z</time></trkpt><trkpt lat="46.07295806661074" lon="11.427191095465414"><ele>1087.2</ele><time>2026-04-11T08:42:23.999Z</time></trkpt><trkpt lat="46.07287897589813" lon="11.427091676886992"><ele>1083.0</ele><time>2026-04-11T08:42:24.999Z</time></trkpt><trkpt lat="46.0728123387912" lon="11.426959184780067"><ele>1083.0</ele><time>2026-04-11T08:42:25.999Z</time></trkpt><trkpt lat="46.07274528532765" lon="11.42681527601601"><ele>1083.0</ele><time>2026-04-11T08:42:26.999Z</time></trkpt><trkpt lat="46.072678678228954" lon="11.426670605331008"><ele>1083.0</ele><time>2026-04-11T08:42:27.999Z</time></trkpt><trkpt lat="46.07261898755737" lon="11.426532053902331"><ele>1083.0</ele><time>2026-04-11T08:42:28.999Z</time></trkpt><trkpt lat="46.07251333039652" lon="11.426394225764414"><ele>1080.2</ele><time>2026-04-11T08:42:29.999Z</time></trkpt><trkpt lat="46.07241335345069" lon="11.426341595467381"><ele>1077.4</ele><time>2026-04-11T08:42:30.999Z</time></trkpt><trkpt lat="46.072292851660166" lon="11.426355782875442"><ele>1074.6000000000001</ele><time>2026-04-11T08:42:31.999Z</time></trkpt><trkpt lat="46.07218540323981" lon="11.426297849136178"><ele>1071.8</ele><time>2026-04-11T08:42:32.999Z</time></trkpt><trkpt lat="46.07209418780154" lon="11.426238968733312"><ele>1069.0</ele><time>2026-04-11T08:42:33.999Z</time></trkpt><trkpt lat="46.072023448223106" lon="11.426149647169295"><ele>1069.0</ele><time>2026-04-11T08:42:34.999Z</time></trkpt><trkpt lat="46.07197101634564" lon="11.426033365530214"><ele>1069.0</ele><time>2026-04-11T08:42:35.999Z</time></trkpt><trkpt lat="46.071912741710214" lon="11.425921263715727"><ele>1069.0</ele><time>2026-04-11T08:42:36.999Z</time></trkpt><trkpt lat="46.07184294829604" lon="11.425819049059157"><ele>1069.0</ele><time>2026-04-11T08:42:37.999Z</time></trkpt><trkpt lat="46.07177098812586" lon="11.42568405873546"><ele>1069.0</ele><time>2026-04-11T08:42:38.999Z</time></trkpt><trkpt lat="46.07170239983554" lon="11.425595211282786"><ele>1069.0</ele><time>2026-04-11T08:42:39.999Z</time></trkpt><trkpt lat="46.07162024968112" lon="11.425510683925733"><ele>1069.0</ele><time>2026-04-11T08:42:40.999Z</time></trkpt><trkpt lat="46.07155044593691" lon="11.425526263713367"><ele>1069.0</ele><time>2026-04-11T08:42:43Z</time></trkpt><trkpt lat="46.071500243066446" lon="11.42563101960026"><ele>1069.0</ele><time>2026-04-11T08:42:45Z</time></trkpt><trkpt lat="46.071543919767905" lon="11.425707736848542"><ele>1069.0</ele><time>2026-04-11T08:42:48Z</time></trkpt><trkpt lat="46.07153050389324" lon="11.425815952772831"><ele>1069.0</ele><time>2026-04-11T08:42:51Z</time></trkpt><trkpt lat="46.071465498594755" lon="11.425888890345993"><ele>1063.5</ele><time>2026-04-11T08:42:53Z</time></trkpt><trkpt lat="46.07142129790201" lon="11.42602885997932"><ele>1058.0</ele><time>2026-04-11T08:42:55Z</time></trkpt><trkpt lat="46.071416183665285" lon="11.426123271143936"><ele>1052.5</ele><time>2026-04-11T08:42:57Z</time></trkpt><trkpt lat="46.07138457535148" lon="11.4262579026254"><ele>1047.0</ele><time>2026-04-11T08:42:59Z</time></trkpt><trkpt lat="46.07140761737276" lon="11.42635314473407"><ele>1041.5</ele><time>2026-04-11T08:43:01Z</time></trkpt><trkpt lat="46.07145868160733" lon="11.426449812240461"><ele>1036.0</ele><time>2026-04-11T08:43:03Z</time></trkpt><trkpt lat="46.0714688584904" lon="11.42661783264006"><ele>1037.5</ele><time>2026-04-11T08:43:05Z</time></trkpt><trkpt lat="46.071458648129536" lon="11.426789791395235"><ele>1039.0</ele><time>2026-04-11T08:43:07Z</time></trkpt><trkpt lat="46.07145148029127" lon="11.426925172383045"><ele>1040.5</ele><time>2026-04-11T08:43:09Z</time></trkpt><trkpt lat="46.07150040525444" lon="11.426988516991251"><ele>1042.0</ele><time>2026-04-11T08:43:11Z</time></trkpt><trkpt lat="46.07158721623159" lon="11.427056117694104"><ele>1043.5</ele><time>2026-04-11T08:43:13Z</time></trkpt><trkpt lat="46.071635876973716" lon="11.427117726273789"><ele>1045.0</ele><time>2026-04-11T08:43:14Z</time></trkpt><trkpt lat="46.071671313763964" lon="11.427242509438207"><ele>1041.2</ele><time>2026-04-11T08:43:16Z</time></trkpt><trkpt lat="46.071640204328574" lon="11.427360481840621"><ele>1037.4</ele><time>2026-04-11T08:43:18Z</time></trkpt><trkpt lat="46.07157848818485" lon="11.427438161053447"><ele>1033.6</ele><time>2026-04-11T08:43:20Z</time></trkpt><trkpt lat="46.07150149127717" lon="11.427506767805763"><ele>1029.8</ele><time>2026-04-11T08:43:22Z</time></trkpt><trkpt lat="46.0714448032824" lon="11.427617322503135"><ele>1026.0</ele><time>2026-04-11T08:43:24Z</time></trkpt><trkpt lat="46.07152850412872" lon="11.427729601864678"><ele>1026.0</ele><time>2026-04-11T08:43:26Z</time></trkpt><trkpt lat="46.07163755879415" lon="11.427847751830805"><ele>1026.0</ele><time>2026-04-11T08:43:28Z</time></trkpt><trkpt lat="46.071666907876974" lon="11.427971302293157"><ele>1026.0</ele><time>2026-04-11T08:43:29Z</time></trkpt><trkpt lat="46.07168662949825" lon="11.428099295659194"><ele>1026.0</ele><time>2026-04-11T08:43:30Z</time></trkpt><trkpt lat="46.0716933708882" lon="11.428251469813896"><ele>1026.0</ele><time>2026-04-11T08:43:31Z</time></trkpt><trkpt lat="46.071691751458985" lon="11.428410540714065"><ele>1024.0</ele><time>2026-04-11T08:43:32Z</time></trkpt><trkpt lat="46.07169189990081" lon="11.428552244225557"><ele>1021.9999999999999</ele><time>2026-04-11T08:43:33Z</time></trkpt><trkpt lat="46.07171769293814" lon="11.428673216811337"><ele>1019.9999999999999</ele><time>2026-04-11T08:43:34Z</time></trkpt><trkpt lat="46.07174658545909" lon="11.428792319139598"><ele>1018.0</ele><time>2026-04-11T08:43:35Z</time></trkpt><trkpt lat="46.07177628556349" lon="11.428913762998059"><ele>1016.0</ele><time>2026-04-11T08:43:36Z</time></trkpt><trkpt lat="46.07180623629296" lon="11.42903705288888"><ele>1014.1666666666667</ele><time>2026-04-11T08:43:37Z</time></trkpt><trkpt lat="46.071801569999465" lon="11.42917528551019"><ele>1012.3333333333334</ele><time>2026-04-11T08:43:39Z</time></trkpt><trkpt lat="46.07170270701044" lon="11.429146202093532"><ele>1010.5</ele><time>2026-04-11T08:43:41Z</time></trkpt><trkpt lat="46.07168096038416" lon="11.429048657693317"><ele>1008.6666666666667</ele><time>2026-04-11T08:43:42Z</time></trkpt><trkpt lat="46.07167784753279" lon="11.428951353702926"><ele>1006.8333333333334</ele><time>2026-04-11T08:43:43Z</time></trkpt><trkpt lat="46.07163934972916" lon="11.428832346809301"><ele>1005.0</ele><time>2026-04-11T08:43:44Z</time></trkpt><trkpt lat="46.071576906213146" lon="11.428747374051646"><ele>1003.6</ele><time>2026-04-11T08:43:45Z</time></trkpt><trkpt lat="46.071466450669945" lon="11.428676524546447"><ele>1002.2</ele><time>2026-04-11T08:43:46Z</time></trkpt><trkpt lat="46.07137043038671" lon="11.42862137658401"><ele>1000.8</ele><time>2026-04-11T08:43:47Z</time></trkpt><trkpt lat="46.07126378473028" lon="11.428577072168682"><ele>999.4</ele><time>2026-04-11T08:43:48Z</time></trkpt><trkpt lat="46.07115106210631" lon="11.428602630490737"><ele>998.0</ele><time>2026-04-11T08:43:49Z</time></trkpt><trkpt lat="46.0710508061" lon="11.428613570118332"><ele>998.0</ele><time>2026-04-11T08:43:49.999Z</time></trkpt><trkpt lat="46.07093247583089" lon="11.428590752377293"><ele>998.0</ele><time>2026-04-11T08:43:50.999Z</time></trkpt><trkpt lat="46.07080588366362" lon="11.428538046224826"><ele>998.0</ele><time>2026-04-11T08:43:51.999Z</time></trkpt><trkpt lat="46.070705662446684" lon="11.428452498351707"><ele>998.0</ele><time>2026-04-11T08:43:52.999Z</time></trkpt><trkpt lat="46.07061393301682" lon="11.428429223154582"><ele>994.1666666666667</ele><time>2026-04-11T08:43:53.999Z</time></trkpt><trkpt lat="46.07053002431775" lon="11.42845230965372"><ele>990.3333333333334</ele><time>2026-04-11T08:43:54.999Z</time></trkpt><trkpt lat="46.07044590997175" lon="11.428483712846958"><ele>986.5</ele><time>2026-04-11T08:43:55.999Z</time></trkpt><trkpt lat="46.07035666061606" lon="11.428461545726515"><ele>982.6666666666667</ele><time>2026-04-11T08:43:56.999Z</time></trkpt><trkpt lat="46.070284286046636" lon="11.428405591674611"><ele>978.8333333333334</ele><time>2026-04-11T08:43:57.999Z</time></trkpt><trkpt lat="46.07022790091449" lon="11.428336716984177"><ele>975.0</ele><time>2026-04-11T08:43:58.999Z</time></trkpt><trkpt lat="46.0701541126634" lon="11.428271179692718"><ele>975.0</ele><time>2026-04-11T08:43:59.999Z</time></trkpt><trkpt lat="46.07008182770505" lon="11.428201119623623"><ele>975.0</ele><time>2026-04-11T08:44:00.999Z</time></trkpt><trkpt lat="46.07004820455504" lon="11.428115010177192"><ele>975.0</ele><time>2026-04-11T08:44:01.999Z</time></trkpt><trkpt lat="46.0700369979639" lon="11.428014480789466"><ele>975.0</ele><time>2026-04-11T08:44:02.999Z</time></trkpt><trkpt lat="46.07001402846457" lon="11.427894899470381"><ele>975.0</ele><time>2026-04-11T08:44:03.999Z</time></trkpt><trkpt lat="46.06999124990591" lon="11.427725482144595"><ele>975.0</ele><time>2026-04-11T08:44:04.999Z</time></trkpt><trkpt lat="46.069953900777314" lon="11.427571672232368"><ele>969.75</ele><time>2026-04-11T08:44:05.999Z</time></trkpt><trkpt lat="46.0699245978525" lon="11.42740098963443"><ele>964.5</ele><time>2026-04-11T08:44:06.999Z</time></trkpt><trkpt lat="46.06989861481539" lon="11.427224425616991"><ele>959.25</ele><time>2026-04-11T08:44:07.999Z</time></trkpt><trkpt lat="46.069888936235216" lon="11.42705934814678"><ele>954.0</ele><time>2026-04-11T08:44:08.999Z</time></trkpt><trkpt lat="46.0698932342046" lon="11.42688280566399"><ele>954.0</ele><time>2026-04-11T08:44:09.999Z</time></trkpt><trkpt lat="46.06989976662886" lon="11.426681483274718"><ele>954.0</ele><time>2026-04-11T08:44:10.999Z</time></trkpt><trkpt lat="46.0698788399563" lon="11.426481616649372"><ele>954.0</ele><time>2026-04-11T08:44:11.999Z</time></trkpt><trkpt lat="46.06983217616404" lon="11.426308654903625"><ele>954.0</ele><time>2026-04-11T08:44:12.999Z</time></trkpt><trkpt lat="46.06978846211712" lon="11.426173160205213"><ele>958.2</ele><time>2026-04-11T08:44:13.999Z</time></trkpt><trkpt lat="46.069734969258" lon="11.426076018844192"><ele>962.4000000000001</ele><time>2026-04-11T08:44:14.999Z</time></trkpt><trkpt lat="46.06963997440502" lon="11.426078680303835"><ele>966.6</ele><time>2026-04-11T08:44:15.999Z</time></trkpt><trkpt lat="46.069548863714665" lon="11.426094785700789"><ele>970.8</ele><time>2026-04-11T08:44:16.999Z</time></trkpt><trkpt lat="46.06942931321059" lon="11.426101635515748"><ele>975.0</ele><time>2026-04-11T08:44:17.999Z</time></trkpt><trkpt lat="46.06926143372441" lon="11.42611008864576"><ele>968.6666666666667</ele><time>2026-04-11T08:44:18.999Z</time></trkpt><trkpt lat="46.06908583698538" lon="11.426087068604456"><ele>962.3333333333334</ele><time>2026-04-11T08:44:19.999Z</time></trkpt><trkpt lat="46.068918082788805" lon="11.426049562547735"><ele>956.0</ele><time>2026-04-11T08:44:20.999Z</time></trkpt><trkpt lat="46.068745684105316" lon="11.42599210097195"><ele>956.0</ele><time>2026-04-11T08:44:21.999Z</time></trkpt><trkpt lat="46.0685853644829" lon="11.425950670164088"><ele>956.0</ele><time>2026-04-11T08:44:22.999Z</time></trkpt><trkpt lat="46.06844853728242" lon="11.425934105926446"><ele>956.0</ele><time>2026-04-11T08:44:23.999Z</time></trkpt><trkpt lat="46.06834166762573" lon="11.425904938063097"><ele>956.0</ele><time>2026-04-11T08:44:24.999Z</time></trkpt><trkpt lat="46.06826182366136" lon="11.425875677288428"><ele>957.857142857143</ele><time>2026-04-11T08:44:25.999Z</time></trkpt><trkpt lat="46.06818990169823" lon="11.425841550355168"><ele>959.7142857142858</ele><time>2026-04-11T08:44:26.999Z</time></trkpt><trkpt lat="46.06813308571901" lon="11.425778647159284"><ele>961.5714285714286</ele><time>2026-04-11T08:44:27.999Z</time></trkpt><trkpt lat="46.06808661619066" lon="11.425709791523262"><ele>963.4285714285714</ele><time>2026-04-11T08:44:28.999Z</time></trkpt><trkpt lat="46.06804219795329" lon="11.42563961248941"><ele>965.2857142857142</ele><time>2026-04-11T08:44:29.999Z</time></trkpt><trkpt lat="46.067983273065494" lon="11.425553107559201"><ele>967.142857142857</ele><time>2026-04-11T08:44:30.999Z</time></trkpt><trkpt lat="46.06793983333883" lon="11.425457492979305"><ele>968.9999999999999</ele><time>2026-04-11T08:44:31.999Z</time></trkpt><trkpt lat="46.067898221839485" lon="11.4253481947648"><ele>969.0</ele><time>2026-04-11T08:44:32.999Z</time></trkpt><trkpt lat="46.06786761439048" lon="11.425237308469827"><ele>969.0000000000001</ele><time>2026-04-11T08:44:33.999Z</time></trkpt><trkpt lat="46.06782511769594" lon="11.425116980516105"><ele>969.0000000000001</ele><time>2026-04-11T08:44:34.999Z</time></trkpt><trkpt lat="46.06776312341285" lon="11.425019834580942"><ele>969.0</ele><time>2026-04-11T08:44:35.999Z</time></trkpt><trkpt lat="46.067665282872866" lon="11.424956788547012"><ele>969.0</ele><time>2026-04-11T08:44:36.999Z</time></trkpt><trkpt lat="46.06754638434586" lon="11.424934213948067"><ele>957.6666666666667</ele><time>2026-04-11T08:44:37.999Z</time></trkpt><trkpt lat="46.0674149015492" lon="11.424875366797275"><ele>946.3333333333334</ele><time>2026-04-11T08:44:38.999Z</time></trkpt><trkpt lat="46.06725972028885" lon="11.424832990752822"><ele>935.0</ele><time>2026-04-11T08:44:39.999Z</time></trkpt><trkpt lat="46.0671075216378" lon="11.424758392639577"><ele>935.0</ele><time>2026-04-11T08:44:40.999Z</time></trkpt><trkpt lat="46.06700001609243" lon="11.424668692942847"><ele>935.0</ele><time>2026-04-11T08:44:41.999Z</time></trkpt><trkpt lat="46.06695106463015" lon="11.424573257540276"><ele>935.0</ele><time>2026-04-11T08:44:42.999Z</time></trkpt><trkpt lat="46.066902023718306" lon="11.424440166325303"><ele>935.0</ele><time>2026-04-11T08:44:43.999Z</time></trkpt><trkpt lat="46.06685400444458" lon="11.424221124647785"><ele>940.75</ele><time>2026-04-11T08:44:44.999Z</time></trkpt><trkpt lat="46.06684018497934" lon="11.424093971212704"><ele>946.5</ele><time>2026-04-11T08:44:45.999Z</time></trkpt><trkpt lat="46.06685273925677" lon="11.423914240431499"><ele>952.25</ele><time>2026-04-11T08:44:46.999Z</time></trkpt><trkpt lat="46.066876054462355" lon="11.423711806386958"><ele>958.0</ele><time>2026-04-11T08:44:47.999Z</time></trkpt><trkpt lat="46.06690416575002" lon="11.423523647501307"><ele>958.0</ele><time>2026-04-11T08:44:49Z</time></trkpt><trkpt lat="46.06689839267693" lon="11.423327862117628"><ele>958.0</ele><time>2026-04-11T08:44:50Z</time></trkpt><trkpt lat="46.06691801383045" lon="11.423123213896714"><ele>958.0</ele><time>2026-04-11T08:44:51Z</time></trkpt><trkpt lat="46.06696673659026" lon="11.422938252614001"><ele>958.0</ele><time>2026-04-11T08:44:52Z</time></trkpt><trkpt lat="46.067018623678436" lon="11.422765112700734"><ele>958.0</ele><time>2026-04-11T08:44:53Z</time></trkpt><trkpt lat="46.06704762589771" lon="11.422589813711179"><ele>958.0</ele><time>2026-04-11T08:44:54Z</time></trkpt><trkpt lat="46.067052603290364" lon="11.422428467535159"><ele>958.0</ele><time>2026-04-11T08:44:55Z</time></trkpt><trkpt lat="46.06703257154437" lon="11.422282455260367"><ele>958.0</ele><time>2026-04-11T08:44:56Z</time></trkpt><trkpt lat="46.06702005134395" lon="11.422150051706323"><ele>958.0</ele><time>2026-04-11T08:44:57Z</time></trkpt><trkpt lat="46.067010151193585" lon="11.4220552560835"><ele>958.8333333333333</ele><time>2026-04-11T08:44:58Z</time></trkpt><trkpt lat="46.06700487587401" lon="11.421920198743939"><ele>959.6666666666666</ele><time>2026-04-11T08:45:00Z</time></trkpt><trkpt lat="46.06700220349758" lon="11.42180895746632"><ele>960.5</ele><time>2026-04-11T08:45:02Z</time></trkpt><trkpt lat="46.066958994230085" lon="11.421732367465122"><ele>961.3333333333333</ele><time>2026-04-11T08:45:03Z</time></trkpt><trkpt lat="46.06691359064634" lon="11.421636511183378"><ele>962.1666666666666</ele><time>2026-04-11T08:45:04Z</time></trkpt><trkpt lat="46.06685989765276" lon="11.421549549829239"><ele>963.0</ele><time>2026-04-11T08:45:05Z</time></trkpt><trkpt lat="46.06679394586353" lon="11.421486956803252"><ele>963.0</ele><time>2026-04-11T08:45:06Z</time></trkpt><trkpt lat="46.06672996303845" lon="11.421434609236861"><ele>963.0</ele><time>2026-04-11T08:45:07Z</time></trkpt><trkpt lat="46.066679095468345" lon="11.421367399314832"><ele>963.0</ele><time>2026-04-11T08:45:08Z</time></trkpt><trkpt lat="46.066657914507765" lon="11.421271291807152"><ele>963.0</ele><time>2026-04-11T08:45:10Z</time></trkpt><trkpt lat="46.06670780318785" lon="11.421126535387817"><ele>963.0</ele><time>2026-04-11T08:45:13Z</time></trkpt><trkpt lat="46.06675191000375" lon="11.421035144865774"><ele>963.0</ele><time>2026-04-11T08:45:14Z</time></trkpt><trkpt lat="46.06684904725467" lon="11.420934612362217"><ele>965.0</ele><time>2026-04-11T08:45:16Z</time></trkpt><trkpt lat="46.06690929712058" lon="11.420988544371928"><ele>967.0</ele><time>2026-04-11T08:45:17Z</time></trkpt><trkpt lat="46.06698463035973" lon="11.42109560593094"><ele>969.0</ele><time>2026-04-11T08:45:19Z</time></trkpt><trkpt lat="46.06707364188402" lon="11.420866229209334"><ele>971.0</ele><time>2026-04-11T08:45:22Z</time></trkpt><trkpt lat="46.06706401273923" lon="11.420712557730367"><ele>971.0</ele><time>2026-04-11T08:45:23Z</time></trkpt><trkpt lat="46.067051059720654" lon="11.420506220195238"><ele>971.0</ele><time>2026-04-11T08:45:24Z</time></trkpt><trkpt lat="46.06702421497352" lon="11.420288358734581"><ele>971.0</ele><time>2026-04-11T08:45:25Z</time></trkpt><trkpt lat="46.06697321035701" lon="11.420089902542417"><ele>971.0</ele><time>2026-04-11T08:45:26Z</time></trkpt><trkpt lat="46.06693897524175" lon="11.419893948180171"><ele>973.0</ele><time>2026-04-11T08:45:27Z</time></trkpt><trkpt lat="46.066934209908005" lon="11.419716385554871"><ele>975.0</ele><time>2026-04-11T08:45:28Z</time></trkpt><trkpt lat="46.06693869107768" lon="11.41957310286633"><ele>977.0</ele><time>2026-04-11T08:45:29Z</time></trkpt><trkpt lat="46.06693029086835" lon="11.41941358504074"><ele>979.0</ele><time>2026-04-11T08:45:30Z</time></trkpt><trkpt lat="46.0669186043906" lon="11.419224160383935"><ele>981.5</ele><time>2026-04-11T08:45:31Z</time></trkpt><trkpt lat="46.066908545452634" lon="11.419036974640651"><ele>984.0</ele><time>2026-04-11T08:45:32Z</time></trkpt><trkpt lat="46.06691718006911" lon="11.418846018903105"><ele>986.5</ele><time>2026-04-11T08:45:33Z</time></trkpt><trkpt lat="46.06694549021487" lon="11.418643960759217"><ele>989.0</ele><time>2026-04-11T08:45:34Z</time></trkpt><trkpt lat="46.066973109897496" lon="11.418476204166424"><ele>989.8333333333334</ele><time>2026-04-11T08:45:35Z</time></trkpt><trkpt lat="46.066960525528856" lon="11.418355627240516"><ele>990.6666666666667</ele><time>2026-04-11T08:45:36Z</time></trkpt><trkpt lat="46.06690758031067" lon="11.418300885692231"><ele>991.5</ele><time>2026-04-11T08:45:37Z</time></trkpt><trkpt lat="46.06684371956988" lon="11.418226287528542"><ele>992.3333333333333</ele><time>2026-04-11T08:45:38Z</time></trkpt><trkpt lat="46.06677173272891" lon="11.418112770278945"><ele>993.1666666666666</ele><time>2026-04-11T08:45:39Z</time></trkpt><trkpt lat="46.06671340323048" lon="11.417987925877945"><ele>994.0</ele><time>2026-04-11T08:45:40Z</time></trkpt><trkpt lat="46.066676399790765" lon="11.41784125523969"><ele>993.8000000000001</ele><time>2026-04-11T08:45:41Z</time></trkpt><trkpt lat="46.06663156768404" lon="11.417679025761428"><ele>993.6000000000001</ele><time>2026-04-11T08:45:42Z</time></trkpt><trkpt lat="46.06658512184481" lon="11.417530333904375"><ele>993.4</ele><time>2026-04-11T08:45:43Z</time></trkpt><trkpt lat="46.0665329289712" lon="11.417394295410585"><ele>993.2</ele><time>2026-04-11T08:45:44Z</time></trkpt><trkpt lat="46.066482993966204" lon="11.417269537912162"><ele>993.0</ele><time>2026-04-11T08:45:45Z</time></trkpt><trkpt lat="46.06644463661431" lon="11.41713564305193"><ele>993.0</ele><time>2026-04-11T08:45:46Z</time></trkpt><trkpt lat="46.06641937109887" lon="11.416959998673775"><ele>993.0</ele><time>2026-04-11T08:45:47Z</time></trkpt><trkpt lat="46.066413376825714" lon="11.416805144041286"><ele>993.0</ele><time>2026-04-11T08:45:48Z</time></trkpt><trkpt lat="46.06645180246044" lon="11.416634001415462"><ele>993.0</ele><time>2026-04-11T08:45:49Z</time></trkpt><trkpt lat="46.066461948442615" lon="11.416405026592363"><ele>993.75</ele><time>2026-04-11T08:45:50Z</time></trkpt><trkpt lat="46.06648787925666" lon="11.416207716370746"><ele>994.5</ele><time>2026-04-11T08:45:51Z</time></trkpt><trkpt lat="46.06646627865111" lon="11.41602958819384"><ele>995.25</ele><time>2026-04-11T08:45:52Z</time></trkpt><trkpt lat="46.0664955563805" lon="11.415883637083413"><ele>996.0</ele><time>2026-04-11T08:45:53Z</time></trkpt><trkpt lat="46.06651415120056" lon="11.415735940272409"><ele>996.0</ele><time>2026-04-11T08:45:55Z</time></trkpt><trkpt lat="46.06645868118025" lon="11.415666437289863"><ele>996.0</ele><time>2026-04-11T08:46:20.999Z</time></trkpt><trkpt lat="46.06645622088157" lon="11.415515673278101"><ele>996.0</ele><time>2026-04-11T08:46:21.999Z</time></trkpt><trkpt lat="46.06642737531917" lon="11.415423486952784"><ele>996.0</ele><time>2026-04-11T08:46:22.999Z</time></trkpt><trkpt lat="46.06637944313806" lon="11.415346171163302"><ele>996.0</ele><time>2026-04-11T08:46:23.999Z</time></trkpt><trkpt lat="46.06630208261015" lon="11.415280966850112"><ele>996.0</ele><time>2026-04-11T08:46:24.999Z</time></trkpt><trkpt lat="46.06620679482987" lon="11.415257374912576"><ele>996.4</ele><time>2026-04-11T08:46:25.999Z</time></trkpt><trkpt lat="46.06612101122883" lon="11.415236163741925"><ele>996.8</ele><time>2026-04-11T08:46:26.999Z</time></trkpt><trkpt lat="46.06604623353802" lon="11.415180329544738"><ele>997.1999999999999</ele><time>2026-04-11T08:46:27.999Z</time></trkpt><trkpt lat="46.06596152453687" lon="11.415127043993483"><ele>997.5999999999999</ele><time>2026-04-11T08:46:28.999Z</time></trkpt><trkpt lat="46.06586942530679" lon="11.415067153508303"><ele>998.0</ele><time>2026-04-11T08:46:29.999Z</time></trkpt><trkpt lat="46.06577685889127" lon="11.41503413260516"><ele>993.5999999999999</ele><time>2026-04-11T08:46:30.999Z</time></trkpt><trkpt lat="46.06567969716207" lon="11.41498266233806"><ele>989.1999999999999</ele><time>2026-04-11T08:46:31.999Z</time></trkpt><trkpt lat="46.06556699262789" lon="11.414972185851264"><ele>984.8</ele><time>2026-04-11T08:46:32.999Z</time></trkpt><trkpt lat="46.0654487872087" lon="11.415028657121486"><ele>980.4</ele><time>2026-04-11T08:46:33.999Z</time></trkpt><trkpt lat="46.06534244628497" lon="11.415046020071069"><ele>976.0</ele><time>2026-04-11T08:46:34.999Z</time></trkpt><trkpt lat="46.065244742302944" lon="11.414987673533869"><ele>976.0</ele><time>2026-04-11T08:46:35.999Z</time></trkpt><trkpt lat="46.065141347791425" lon="11.415002061990975"><ele>975.9999999999999</ele><time>2026-04-11T08:46:36.999Z</time></trkpt><trkpt lat="46.065053208823535" lon="11.415011324221327"><ele>975.9999999999999</ele><time>2026-04-11T08:46:37.999Z</time></trkpt><trkpt lat="46.064999138318335" lon="11.415121844684558"><ele>976.0</ele><time>2026-04-11T08:46:38.999Z</time></trkpt><trkpt lat="46.06493147890069" lon="11.415222992910339"><ele>976.0</ele><time>2026-04-11T08:46:40.999Z</time></trkpt><trkpt lat="46.06487093041118" lon="11.415421257392888"><ele>972.3333333333333</ele><time>2026-04-11T08:46:42.999Z</time></trkpt><trkpt lat="46.064858192003065" lon="11.415536968494987"><ele>968.6666666666666</ele><time>2026-04-11T08:46:43.999Z</time></trkpt><trkpt lat="46.06481458554245" lon="11.415609895480628"><ele>965.0</ele><time>2026-04-11T08:46:45.999Z</time></trkpt><trkpt lat="46.06476393223984" lon="11.4155529730599"><ele>961.3333333333333</ele><time>2026-04-11T08:46:46.999Z</time></trkpt><trkpt lat="46.0647178419343" lon="11.415444826990582"><ele>957.6666666666666</ele><time>2026-04-11T08:46:47.999Z</time></trkpt><trkpt lat="46.064681774328534" lon="11.41533743701243"><ele>954.0</ele><time>2026-04-11T08:46:48.999Z</time></trkpt><trkpt lat="46.06461425335483" lon="11.415277679466106"><ele>954.0</ele><time>2026-04-11T08:46:50.999Z</time></trkpt><trkpt lat="46.06456398071579" lon="11.415400010170002"><ele>954.0000000000001</ele><time>2026-04-11T08:46:52.999Z</time></trkpt><trkpt lat="46.064565630850495" lon="11.415541937511781"><ele>954.0000000000001</ele><time>2026-04-11T08:46:53.999Z</time></trkpt><trkpt lat="46.064558167799646" lon="11.415679635461062"><ele>954.0</ele><time>2026-04-11T08:46:55Z</time></trkpt><trkpt lat="46.06452725378605" lon="11.415813449408008"><ele>954.0</ele><time>2026-04-11T08:46:56Z</time></trkpt><trkpt lat="46.06447194853479" lon="11.415940977627013"><ele>954.0</ele><time>2026-04-11T08:46:57Z</time></trkpt><trkpt lat="46.064391105910076" lon="11.416051054259427"><ele>954.0000000000001</ele><time>2026-04-11T08:46:58Z</time></trkpt><trkpt lat="46.064306641118925" lon="11.416152307507607"><ele>954.0000000000001</ele><time>2026-04-11T08:46:59Z</time></trkpt><trkpt lat="46.06426018195147" lon="11.416291949745187"><ele>954.0</ele><time>2026-04-11T08:47:00Z</time></trkpt><trkpt lat="46.0642403222925" lon="11.416460370778095"><ele>954.0</ele><time>2026-04-11T08:47:01Z</time></trkpt><trkpt lat="46.06420139750303" lon="11.416655389312252"><ele>954.0</ele><time>2026-04-11T08:47:02Z</time></trkpt><trkpt lat="46.06417090824077" lon="11.416891954914124"><ele>954.0</ele><time>2026-04-11T08:47:03Z</time></trkpt><trkpt lat="46.06417312891788" lon="11.4170500281187"><ele>954.0</ele><time>2026-04-11T08:47:04Z</time></trkpt><trkpt lat="46.064206668044825" lon="11.417204606012655"><ele>954.0</ele><time>2026-04-11T08:47:05Z</time></trkpt><trkpt lat="46.064217666158044" lon="11.41733371137774"><ele>952.6</ele><time>2026-04-11T08:47:06Z</time></trkpt><trkpt lat="46.06422171366976" lon="11.417487005435426"><ele>951.2</ele><time>2026-04-11T08:47:07Z</time></trkpt><trkpt lat="46.06422803210445" lon="11.417584762541384"><ele>949.8000000000001</ele><time>2026-04-11T08:47:08Z</time></trkpt><trkpt lat="46.064239131959674" lon="11.417679300266883"><ele>948.4000000000001</ele><time>2026-04-11T08:47:10Z</time></trkpt><trkpt lat="46.064115724203866" lon="11.417628315913628"><ele>947.0</ele><time>2026-04-11T08:47:12Z</time></trkpt><trkpt lat="46.06402755836714" lon="11.417512884267982"><ele>940.25</ele><time>2026-04-11T08:47:13Z</time></trkpt><trkpt lat="46.063930453398356" lon="11.417378839847677"><ele>933.5</ele><time>2026-04-11T08:47:14Z</time></trkpt><trkpt lat="46.0638284750574" lon="11.417199416223147"><ele>926.75</ele><time>2026-04-11T08:47:15Z</time></trkpt><trkpt lat="46.063746286571636" lon="11.417063529774055"><ele>920.0</ele><time>2026-04-11T08:47:16Z</time></trkpt><trkpt lat="46.06367608594999" lon="11.416887082453457"><ele>920.0</ele><time>2026-04-11T08:47:17Z</time></trkpt><trkpt lat="46.06362736110042" lon="11.416764434644547"><ele>920.0</ele><time>2026-04-11T08:47:18Z</time></trkpt><trkpt lat="46.06358930039439" lon="11.416678768941908"><ele>920.0</ele><time>2026-04-11T08:47:19Z</time></trkpt><trkpt lat="46.06349502232699" lon="11.416632451427049"><ele>920.0</ele><time>2026-04-11T08:47:21Z</time></trkpt><trkpt lat="46.06340925374113" lon="11.41677735932671"><ele>920.0</ele><time>2026-04-11T08:47:23Z</time></trkpt><trkpt lat="46.0634722086152" lon="11.416953129624536"><ele>920.0</ele><time>2026-04-11T08:47:24Z</time></trkpt><trkpt lat="46.06349777467343" lon="11.41712387467303"><ele>920.0</ele><time>2026-04-11T08:47:25Z</time></trkpt><trkpt lat="46.06352669688577" lon="11.417371412697408"><ele>920.0</ele><time>2026-04-11T08:47:26Z</time></trkpt><trkpt lat="46.06354898047442" lon="11.417641080086513"><ele>917.0</ele><time>2026-04-11T08:47:27Z</time></trkpt><trkpt lat="46.06356879965121" lon="11.417862776997515"><ele>914.0</ele><time>2026-04-11T08:47:28Z</time></trkpt><trkpt lat="46.06359642767115" lon="11.418045386228146"><ele>911.0</ele><time>2026-04-11T08:47:29Z</time></trkpt><trkpt lat="46.063653710235265" lon="11.41821334530115"><ele>908.0</ele><time>2026-04-11T08:47:30Z</time></trkpt><trkpt lat="46.06373483998844" lon="11.418410887618418"><ele>903.0</ele><time>2026-04-11T08:47:31Z</time></trkpt><trkpt lat="46.063822780221464" lon="11.41864953227372"><ele>898.0</ele><time>2026-04-11T08:47:32Z</time></trkpt><trkpt lat="46.06391282604277" lon="11.418893703199368"><ele>893.0</ele><time>2026-04-11T08:47:33Z</time></trkpt><trkpt lat="46.0639897089632" lon="11.41909523464643"><ele>890.2</ele><time>2026-04-11T08:47:34Z</time></trkpt><trkpt lat="46.06406408068855" lon="11.419208158410548"><ele>887.4</ele><time>2026-04-11T08:47:35Z</time></trkpt><trkpt lat="46.0641034472218" lon="11.41929018873462"><ele>884.6000000000001</ele><time>2026-04-11T08:47:36Z</time></trkpt><trkpt lat="46.06415059589515" lon="11.419397135709255"><ele>881.8000000000001</ele><time>2026-04-11T08:47:38Z</time></trkpt><trkpt lat="46.064047252513575" lon="11.419398956552556"><ele>879.0</ele><time>2026-04-11T08:47:40Z</time></trkpt><trkpt lat="46.06395657623704" lon="11.419335209043574"><ele>879.0</ele><time>2026-04-11T08:47:41Z</time></trkpt><trkpt lat="46.06385145863336" lon="11.419229944428182"><ele>879.0</ele><time>2026-04-11T08:47:42Z</time></trkpt><trkpt lat="46.06370846564818" lon="11.419147417804634"><ele>879.0</ele><time>2026-04-11T08:47:43Z</time></trkpt><trkpt lat="46.06359633394232" lon="11.41906396618519"><ele>879.0</ele><time>2026-04-11T08:47:44Z</time></trkpt><trkpt lat="46.06351004384314" lon="11.418965934921843"><ele>879.0</ele><time>2026-04-11T08:47:45Z</time></trkpt><trkpt lat="46.06341172237529" lon="11.418834717776072"><ele>879.0</ele><time>2026-04-11T08:47:46Z</time></trkpt><trkpt lat="46.06329838370186" lon="11.418689838366898"><ele>879.0</ele><time>2026-04-11T08:47:47Z</time></trkpt><trkpt lat="46.06318930160346" lon="11.418532759312257"><ele>879.0</ele><time>2026-04-11T08:47:48Z</time></trkpt><trkpt lat="46.06304278471058" lon="11.418401338193334"><ele>878.75</ele><time>2026-04-11T08:47:49Z</time></trkpt><trkpt lat="46.062903119889995" lon="11.41828139992435"><ele>878.5</ele><time>2026-04-11T08:47:50Z</time></trkpt><trkpt lat="46.06278716802808" lon="11.418137724946233"><ele>878.25</ele><time>2026-04-11T08:47:51Z</time></trkpt><trkpt lat="46.062696455871816" lon="11.41799955744466"><ele>878.0</ele><time>2026-04-11T08:47:52Z</time></trkpt><trkpt lat="46.062606897961295" lon="11.417873172958563"><ele>878.0</ele><time>2026-04-11T08:47:53Z</time></trkpt><trkpt lat="46.06250356090436" lon="11.417771661423386"><ele>878.0</ele><time>2026-04-11T08:47:54Z</time></trkpt><trkpt lat="46.06241555840304" lon="11.41771773129535"><ele>878.0</ele><time>2026-04-11T08:47:55Z</time></trkpt><trkpt lat="46.062325671991054" lon="11.417644273506298"><ele>878.0</ele><time>2026-04-11T08:47:56Z</time></trkpt><trkpt lat="46.06225260488441" lon="11.417579333029694"><ele>878.0</ele><time>2026-04-11T08:47:57Z</time></trkpt><trkpt lat="46.06217309524078" lon="11.417480623264176"><ele>873.0</ele><time>2026-04-11T08:47:58Z</time></trkpt><trkpt lat="46.06209910422704" lon="11.417348261726136"><ele>868.0</ele><time>2026-04-11T08:47:58.999Z</time></trkpt><trkpt lat="46.062025897658515" lon="11.417165935357348"><ele>863.0</ele><time>2026-04-11T08:47:59.999Z</time></trkpt><trkpt lat="46.06191680125694" lon="11.416952998928286"><ele>858.0</ele><time>2026-04-11T08:48:00.999Z</time></trkpt><trkpt lat="46.061819775229345" lon="11.41678302126048"><ele>858.0</ele><time>2026-04-11T08:48:01.999Z</time></trkpt><trkpt lat="46.06175188650997" lon="11.416659472302394"><ele>858.0</ele><time>2026-04-11T08:48:02.999Z</time></trkpt><trkpt lat="46.06171281402757" lon="11.416584643620457"><ele>858.0</ele><time>2026-04-11T08:48:03.999Z</time></trkpt><trkpt lat="46.0616738337319" lon="11.416507872892605"><ele>858.0</ele><time>2026-04-11T08:48:09.999Z</time></trkpt><trkpt lat="46.06161922234343" lon="11.416397730809122"><ele>858.0</ele><time>2026-04-11T08:48:22.999Z</time></trkpt><trkpt lat="46.06156221492415" lon="11.416281183847033"><ele>858.0</ele><time>2026-04-11T08:48:23.999Z</time></trkpt><trkpt lat="46.061471384838455" lon="11.416106773103863"><ele>850.0</ele><time>2026-04-11T08:48:24.999Z</time></trkpt><trkpt lat="46.06138755462042" lon="11.415922575261458"><ele>842.0</ele><time>2026-04-11T08:48:25.999Z</time></trkpt><trkpt lat="46.06133193271133" lon="11.415817651931782"><ele>834.0</ele><time>2026-04-11T08:48:26.999Z</time></trkpt><trkpt lat="46.06131019846601" lon="11.415709943530478"><ele>826.0</ele><time>2026-04-11T08:48:27.999Z</time></trkpt><trkpt lat="46.061340069174726" lon="11.415591678826242"><ele>818.0</ele><time>2026-04-11T08:48:28.999Z</time></trkpt><trkpt lat="46.0613534338849" lon="11.41547416994667"><ele>817.2</ele><time>2026-04-11T08:48:29.999Z</time></trkpt><trkpt lat="46.061352469145476" lon="11.415359902002333"><ele>816.4</ele><time>2026-04-11T08:48:30.999Z</time></trkpt><trkpt lat="46.061375564339485" lon="11.415263908630909"><ele>815.6</ele><time>2026-04-11T08:48:31.999Z</time></trkpt><trkpt lat="46.06134074819894" lon="11.415155353933505"><ele>814.8000000000001</ele><time>2026-04-11T08:48:33.999Z</time></trkpt><trkpt lat="46.06125215477792" lon="11.415237920975061"><ele>814.0</ele><time>2026-04-11T08:48:35.999Z</time></trkpt><trkpt lat="46.06116916480538" lon="11.415377610357282"><ele>815.0</ele><time>2026-04-11T08:48:36.999Z</time></trkpt><trkpt lat="46.06104121795576" lon="11.415525953784263"><ele>816.0</ele><time>2026-04-11T08:48:37.999Z</time></trkpt><trkpt lat="46.06093127891734" lon="11.415661800517398"><ele>817.0</ele><time>2026-04-11T08:48:38.999Z</time></trkpt><trkpt lat="46.06087880517373" lon="11.415812998058408"><ele>818.0</ele><time>2026-04-11T08:48:39.999Z</time></trkpt><trkpt lat="46.060852968409115" lon="11.415968315067904"><ele>818.0</ele><time>2026-04-11T08:48:40.999Z</time></trkpt><trkpt lat="46.06084545799706" lon="11.41618914160366"><ele>818.0</ele><time>2026-04-11T08:48:41.999Z</time></trkpt><trkpt lat="46.06083214694103" lon="11.4164890967116"><ele>818.0</ele><time>2026-04-11T08:48:42.999Z</time></trkpt><trkpt lat="46.06082959756065" lon="11.416774244336077"><ele>818.0</ele><time>2026-04-11T08:48:43.999Z</time></trkpt><trkpt lat="46.060858674597135" lon="11.417051099648353"><ele>818.0</ele><time>2026-04-11T08:48:44.999Z</time></trkpt><trkpt lat="46.06088912303911" lon="11.417327423195825"><ele>818.0</ele><time>2026-04-11T08:48:45.999Z</time></trkpt><trkpt lat="46.0609415391969" lon="11.417594433708944"><ele>813.0</ele><time>2026-04-11T08:48:46.999Z</time></trkpt><trkpt lat="46.06103841975696" lon="11.417912769761365"><ele>808.0</ele><time>2026-04-11T08:48:47.999Z</time></trkpt><trkpt lat="46.06111861709359" lon="11.418281663895636"><ele>800.5</ele><time>2026-04-11T08:48:48.999Z</time></trkpt><trkpt lat="46.06119954424521" lon="11.418632550514912"><ele>793.0</ele><time>2026-04-11T08:48:49.999Z</time></trkpt><trkpt lat="46.06126161712783" lon="11.418914208753892"><ele>790.6666666666666</ele><time>2026-04-11T08:48:50.999Z</time></trkpt><trkpt lat="46.06129890971799" lon="11.419182397858425"><ele>788.3333333333333</ele><time>2026-04-11T08:48:51.999Z</time></trkpt><trkpt lat="46.06132216680562" lon="11.419481008165242"><ele>786.0</ele><time>2026-04-11T08:48:52.999Z</time></trkpt><trkpt lat="46.06134614048328" lon="11.419784635179457"><ele>783.0</ele><time>2026-04-11T08:48:53.999Z</time></trkpt><trkpt lat="46.06138859582943" lon="11.42010852405788"><ele>780.0</ele><time>2026-04-11T08:48:54.999Z</time></trkpt><trkpt lat="46.06140976499756" lon="11.420415619396412"><ele>777.0</ele><time>2026-04-11T08:48:55.999Z</time></trkpt><trkpt lat="46.06141397055937" lon="11.420680552273938"><ele>773.6666666666666</ele><time>2026-04-11T08:48:56.999Z</time></trkpt><trkpt lat="46.06142625014644" lon="11.420892256184846"><ele>770.3333333333333</ele><time>2026-04-11T08:48:57.999Z</time></trkpt><trkpt lat="46.06147357880607" lon="11.42111019225652"><ele>767.0</ele><time>2026-04-11T08:48:58.999Z</time></trkpt><trkpt lat="46.06152713319544" lon="11.421354193284552"><ele>764.6666666666666</ele><time>2026-04-11T08:48:59.999Z</time></trkpt><trkpt lat="46.06159895166307" lon="11.42162620267495"><ele>762.3333333333334</ele><time>2026-04-11T08:49:01Z</time></trkpt><trkpt lat="46.06170471843497" lon="11.421877097658708"><ele>760.0</ele><time>2026-04-11T08:49:02Z</time></trkpt><trkpt lat="46.06177275098823" lon="11.422032090354092"><ele>764.75</ele><time>2026-04-11T08:49:03Z</time></trkpt><trkpt lat="46.0617893084037" lon="11.42216699573835"><ele>769.5</ele><time>2026-04-11T08:49:04Z</time></trkpt><trkpt lat="46.06179105822691" lon="11.42234150542776"><ele>774.25</ele><time>2026-04-11T08:49:05Z</time></trkpt><trkpt lat="46.061732450008435" lon="11.42253055575305"><ele>779.0</ele><time>2026-04-11T08:49:06Z</time></trkpt><trkpt lat="46.061629200783976" lon="11.42273980888438"><ele>763.6666666666667</ele><time>2026-04-11T08:49:07Z</time></trkpt><trkpt lat="46.06156314283829" lon="11.423018754408467"><ele>748.3333333333334</ele><time>2026-04-11T08:49:08Z</time></trkpt><trkpt lat="46.06152707562322" lon="11.423242499622503"><ele>733.0</ele><time>2026-04-11T08:49:09Z</time></trkpt><trkpt lat="46.06148054796379" lon="11.423449484077663"><ele>733.0</ele><time>2026-04-11T08:49:10Z</time></trkpt><trkpt lat="46.06144085762507" lon="11.423672743814727"><ele>733.0</ele><time>2026-04-11T08:49:11Z</time></trkpt><trkpt lat="46.061367272657826" lon="11.42391061329663"><ele>733.0</ele><time>2026-04-11T08:49:12Z</time></trkpt><trkpt lat="46.06128849370649" lon="11.424176241801321"><ele>733.75</ele><time>2026-04-11T08:49:13Z</time></trkpt><trkpt lat="46.0612137111246" lon="11.424386649155597"><ele>734.5</ele><time>2026-04-11T08:49:14Z</time></trkpt><trkpt lat="46.061147568058296" lon="11.424553867697044"><ele>735.25</ele><time>2026-04-11T08:49:15Z</time></trkpt><trkpt lat="46.06106576588524" lon="11.424699619433637"><ele>736.0</ele><time>2026-04-11T08:49:16Z</time></trkpt><trkpt lat="46.06100496956342" lon="11.424834401697296"><ele>736.1999999999999</ele><time>2026-04-11T08:49:17Z</time></trkpt><trkpt lat="46.06098024426733" lon="11.424976783699497"><ele>736.4</ele><time>2026-04-11T08:49:18Z</time></trkpt><trkpt lat="46.06100446610623" lon="11.425145086350707"><ele>736.6</ele><time>2026-04-11T08:49:19Z</time></trkpt><trkpt lat="46.06105369609826" lon="11.425287055047892"><ele>736.8</ele><time>2026-04-11T08:49:20Z</time></trkpt><trkpt lat="46.061135536031784" lon="11.425380889066114"><ele>737.0</ele><time>2026-04-11T08:49:21Z</time></trkpt><trkpt lat="46.06125949287632" lon="11.425399953379673"><ele>737.0</ele><time>2026-04-11T08:49:22Z</time></trkpt><trkpt lat="46.061385300045465" lon="11.42539592471856"><ele>737.0</ele><time>2026-04-11T08:49:23Z</time></trkpt><trkpt lat="46.061514447045866" lon="11.425414278239712"><ele>737.0</ele><time>2026-04-11T08:49:24Z</time></trkpt><trkpt lat="46.061648881546105" lon="11.4254465280865"><ele>737.0</ele><time>2026-04-11T08:49:25Z</time></trkpt><trkpt lat="46.06179985252085" lon="11.425531908909825"><ele>736.5</ele><time>2026-04-11T08:49:26Z</time></trkpt><trkpt lat="46.061913727086264" lon="11.425729147823018"><ele>736.0</ele><time>2026-04-11T08:49:27Z</time></trkpt><trkpt lat="46.06203065103666" lon="11.42590464583267"><ele>735.5</ele><time>2026-04-11T08:49:28Z</time></trkpt><trkpt lat="46.06208507851809" lon="11.42602587392163"><ele>735.0</ele><time>2026-04-11T08:49:29Z</time></trkpt><trkpt lat="46.062110470031215" lon="11.426184245231545"><ele>732.0</ele><time>2026-04-11T08:49:30Z</time></trkpt><trkpt lat="46.062115636298415" lon="11.426342415069968"><ele>729.0</ele><time>2026-04-11T08:49:31Z</time></trkpt><trkpt lat="46.06210642475427" lon="11.42648999905078"><ele>726.0</ele><time>2026-04-11T08:49:32Z</time></trkpt><trkpt lat="46.062081635269706" lon="11.426576326136011"><ele>723.0</ele><time>2026-04-11T08:49:33Z</time></trkpt><trkpt lat="46.0619983650069" lon="11.426564037686635"><ele>720.0</ele><time>2026-04-11T08:49:34Z</time></trkpt><trkpt lat="46.06192294699255" lon="11.426543186867196"><ele>717.0</ele><time>2026-04-11T08:49:35Z</time></trkpt><trkpt lat="46.06183230626471" lon="11.426391709760901"><ele>719.0</ele><time>2026-04-11T08:49:36Z</time></trkpt><trkpt lat="46.061709616697456" lon="11.426248776311144"><ele>721.0</ele><time>2026-04-11T08:49:37Z</time></trkpt><trkpt lat="46.06159275538496" lon="11.426091325389864"><ele>723.0</ele><time>2026-04-11T08:49:38Z</time></trkpt><trkpt lat="46.061503902580526" lon="11.425988607288943"><ele>725.0</ele><time>2026-04-11T08:49:39Z</time></trkpt><trkpt lat="46.06143170156333" lon="11.425978625917091"><ele>725.0</ele><time>2026-04-11T08:49:42Z</time></trkpt><trkpt lat="46.06149844601708" lon="11.426191640153077"><ele>725.0</ele><time>2026-04-11T08:49:44Z</time></trkpt><trkpt lat="46.06158202585776" lon="11.426272931027865"><ele>725.0</ele><time>2026-04-11T08:49:45Z</time></trkpt><trkpt lat="46.06164940228" lon="11.42637998667142"><ele>725.0</ele><time>2026-04-11T08:49:46Z</time></trkpt><trkpt lat="46.06171503353086" lon="11.426519561356383"><ele>723.0</ele><time>2026-04-11T08:49:47Z</time></trkpt><trkpt lat="46.06177267139515" lon="11.42667236289095"><ele>721.0</ele><time>2026-04-11T08:49:48Z</time></trkpt><trkpt lat="46.061829335332334" lon="11.426840066549675"><ele>719.0</ele><time>2026-04-11T08:49:49Z</time></trkpt><trkpt lat="46.06188632733145" lon="11.426991651128086"><ele>717.0</ele><time>2026-04-11T08:49:50Z</time></trkpt><trkpt lat="46.061944612314065" lon="11.427107996786738"><ele>715.4000000000001</ele><time>2026-04-11T08:49:51Z</time></trkpt><trkpt lat="46.06199590341267" lon="11.427202896326978"><ele>713.8000000000001</ele><time>2026-04-11T08:49:52Z</time></trkpt><trkpt lat="46.06205575756663" lon="11.427312472893862"><ele>712.2</ele><time>2026-04-11T08:49:53Z</time></trkpt><trkpt lat="46.06213866009362" lon="11.427433540517281"><ele>710.6</ele><time>2026-04-11T08:49:54Z</time></trkpt><trkpt lat="46.06224149748133" lon="11.427542404388001"><ele>709.0</ele><time>2026-04-11T08:49:55Z</time></trkpt><trkpt lat="46.06235238164808" lon="11.427660096833744"><ele>709.0</ele><time>2026-04-11T08:49:56Z</time></trkpt><trkpt lat="46.06244245933334" lon="11.427780130800437"><ele>709.0</ele><time>2026-04-11T08:49:57Z</time></trkpt><trkpt lat="46.06252219092875" lon="11.42788903052375"><ele>709.0</ele><time>2026-04-11T08:49:58Z</time></trkpt><trkpt lat="46.062610567437126" lon="11.427997044953008"><ele>709.0</ele><time>2026-04-11T08:49:59Z</time></trkpt><trkpt lat="46.0627136603457" lon="11.428111014974597"><ele>711.25</ele><time>2026-04-11T08:50:00Z</time></trkpt><trkpt lat="46.062823800076565" lon="11.428242417001407"><ele>713.5</ele><time>2026-04-11T08:50:01Z</time></trkpt><trkpt lat="46.06293547392782" lon="11.428387743911522"><ele>715.75</ele><time>2026-04-11T08:50:02Z</time></trkpt><trkpt lat="46.0630519824345" lon="11.428532646088817"><ele>718.0</ele><time>2026-04-11T08:50:03Z</time></trkpt><trkpt lat="46.063173064095736" lon="11.428691336428063"><ele>721.3333333333334</ele><time>2026-04-11T08:50:04Z</time></trkpt><trkpt lat="46.06329171937081" lon="11.428855742167872"><ele>724.6666666666666</ele><time>2026-04-11T08:50:05Z</time></trkpt><trkpt lat="46.063395825635794" lon="11.429044155174989"><ele>728.0</ele><time>2026-04-11T08:50:06Z</time></trkpt><trkpt lat="46.06348346280409" lon="11.42922244765912"><ele>728.0</ele><time>2026-04-11T08:50:07Z</time></trkpt><trkpt lat="46.0635809080737" lon="11.429408409014815"><ele>728.0</ele><time>2026-04-11T08:50:08Z</time></trkpt><trkpt lat="46.063676257929465" lon="11.429593968298088"><ele>728.0</ele><time>2026-04-11T08:50:08.999Z</time></trkpt><trkpt lat="46.06378086995808" lon="11.42978193906275"><ele>726.6666666666666</ele><time>2026-04-11T08:50:09.999Z</time></trkpt><trkpt lat="46.06382122013782" lon="11.430051072692537"><ele>725.3333333333334</ele><time>2026-04-11T08:50:10.999Z</time></trkpt><trkpt lat="46.06402231384457" lon="11.43013420093724"><ele>724.0</ele><time>2026-04-11T08:50:11.999Z</time></trkpt><trkpt lat="46.06417019697758" lon="11.43029064838078"><ele>726.0</ele><time>2026-04-11T08:50:12.999Z</time></trkpt><trkpt lat="46.06431573778118" lon="11.430427759497853"><ele>728.0</ele><time>2026-04-11T08:50:13.999Z</time></trkpt><trkpt lat="46.06446515627753" lon="11.430605838185453"><ele>730.0</ele><time>2026-04-11T08:50:14.999Z</time></trkpt><trkpt lat="46.064615253194866" lon="11.430777755465355"><ele>730.0</ele><time>2026-04-11T08:50:15.999Z</time></trkpt><trkpt lat="46.06476103758684" lon="11.43096668479755"><ele>730.0</ele><time>2026-04-11T08:50:16.999Z</time></trkpt><trkpt lat="46.06491683991484" lon="11.431212529882032"><ele>730.0</ele><time>2026-04-11T08:50:17.999Z</time></trkpt><trkpt lat="46.06506180797947" lon="11.431483523065742"><ele>733.0</ele><time>2026-04-11T08:50:18.999Z</time></trkpt><trkpt lat="46.065207717311495" lon="11.431778054267673"><ele>736.0</ele><time>2026-04-11T08:50:19.999Z</time></trkpt><trkpt lat="46.06533012010531" lon="11.432001765366554"><ele>739.0</ele><time>2026-04-11T08:50:20.999Z</time></trkpt><trkpt lat="46.06545071838164" lon="11.432142710145298"><ele>739.0</ele><time>2026-04-11T08:50:21.999Z</time></trkpt><trkpt lat="46.06559063943707" lon="11.432244472187259"><ele>739.0</ele><time>2026-04-11T08:50:22.999Z</time></trkpt><trkpt lat="46.06576535730033" lon="11.43232187037107"><ele>739.0</ele><time>2026-04-11T08:50:23.999Z</time></trkpt><trkpt lat="46.065942409226956" lon="11.432362783089005"><ele>743.5</ele><time>2026-04-11T08:50:24.999Z</time></trkpt><trkpt lat="46.06610002832322" lon="11.43234016865697"><ele>748.0</ele><time>2026-04-11T08:50:25.999Z</time></trkpt><trkpt lat="46.06624097679943" lon="11.432272719337425"><ele>752.5</ele><time>2026-04-11T08:50:26.999Z</time></trkpt><trkpt lat="46.066361486384615" lon="11.432278654710412"><ele>757.0</ele><time>2026-04-11T08:50:27.999Z</time></trkpt><trkpt lat="46.06645126470091" lon="11.432374363403866"><ele>757.0</ele><time>2026-04-11T08:50:28.999Z</time></trkpt><trkpt lat="46.06654868842972" lon="11.432513021816934"><ele>757.0</ele><time>2026-04-11T08:50:29.999Z</time></trkpt><trkpt lat="46.066631570258316" lon="11.43263708748754"><ele>757.0</ele><time>2026-04-11T08:50:30.999Z</time></trkpt><trkpt lat="46.06663705279211" lon="11.43245487054081"><ele>757.0</ele><time>2026-04-11T08:50:34.999Z</time></trkpt><trkpt lat="46.066584449414314" lon="11.432285026799152"><ele>762.5</ele><time>2026-04-11T08:50:35.999Z</time></trkpt><trkpt lat="46.06650996850845" lon="11.432116823496525"><ele>768.0</ele><time>2026-04-11T08:50:36.999Z</time></trkpt><trkpt lat="46.06639246730439" lon="11.431975748786734"><ele>773.5</ele><time>2026-04-11T08:50:37.999Z</time></trkpt><trkpt lat="46.06626738608637" lon="11.431884447113813"><ele>779.0</ele><time>2026-04-11T08:50:38.999Z</time></trkpt><trkpt lat="46.066171207878405" lon="11.431800207265487"><ele>779.0000000000001</ele><time>2026-04-11T08:50:39.999Z</time></trkpt><trkpt lat="46.06610494763778" lon="11.431730583119021"><ele>779.0</ele><time>2026-04-11T08:50:40.999Z</time></trkpt><trkpt lat="46.06604606308589" lon="11.431652766745515"><ele>779.0</ele><time>2026-04-11T08:50:41.999Z</time></trkpt><trkpt lat="46.066001257324935" lon="11.431576766738038"><ele>779.0</ele><time>2026-04-11T08:50:42.999Z</time></trkpt><trkpt lat="46.06596005002913" lon="11.431493268860187"><ele>779.0000000000001</ele><time>2026-04-11T08:50:43.999Z</time></trkpt><trkpt lat="46.06590618961275" lon="11.431388639511407"><ele>779.0</ele><time>2026-04-11T08:50:45.999Z</time></trkpt><trkpt lat="46.06597939858325" lon="11.431359964090124"><ele>784.3333333333334</ele><time>2026-04-11T08:50:47.999Z</time></trkpt><trkpt lat="46.06581654104145" lon="11.431020606602488"><ele>789.6666666666667</ele><time>2026-04-11T08:50:48.999Z</time></trkpt><trkpt lat="46.065894557075204" lon="11.43094303167361"><ele>795.0</ele><time>2026-04-11T08:50:50.999Z</time></trkpt><trkpt lat="46.0659393212602" lon="11.430850142984388"><ele>795.0</ele><time>2026-04-11T08:50:53.999Z</time></trkpt><trkpt lat="46.06591821086177" lon="11.431188799152066"><ele>795.0</ele><time>2026-04-11T08:50:58.999Z</time></trkpt><trkpt lat="46.0659852059663" lon="11.431224290723458"><ele>795.0</ele><time>2026-04-11T08:51:01.999Z</time></trkpt><trkpt lat="46.06627085538588" lon="11.431206131653312"><ele>795.0</ele><time>2026-04-11T08:51:20Z</time></trkpt><trkpt lat="46.06621940439857" lon="11.431286190814614"><ele>795.0</ele><time>2026-04-11T08:52:47.999Z</time></trkpt><trkpt lat="46.06615541225366" lon="11.431317675787627"><ele>795.0</ele><time>2026-04-11T08:52:49.999Z</time></trkpt><trkpt lat="46.066091314790626" lon="11.431323779188771"><ele>795.0</ele><time>2026-04-11T08:52:51.999Z</time></trkpt><trkpt lat="46.06602559614391" lon="11.43134804902919"><ele>795.0</ele><time>2026-04-11T08:52:52.999Z</time></trkpt><trkpt lat="46.065961707576875" lon="11.431395387246596"><ele>795.0</ele><time>2026-04-11T08:52:54.999Z</time></trkpt><trkpt lat="46.065961702229444" lon="11.431518051572134"><ele>795.0</ele><time>2026-04-11T08:52:57.999Z</time></trkpt><trkpt lat="46.066004892488024" lon="11.431591239765076"><ele>792.7142857142858</ele><time>2026-04-11T08:52:58.999Z</time></trkpt><trkpt lat="46.06605134880757" lon="11.431653453993173"><ele>790.4285714285714</ele><time>2026-04-11T08:52:59.999Z</time></trkpt><trkpt lat="46.06607181106898" lon="11.431754069955083"><ele>788.1428571428571</ele><time>2026-04-11T08:53:01.999Z</time></trkpt><trkpt lat="46.06612352061487" lon="11.431810322141624"><ele>785.8571428571429</ele><time>2026-04-11T08:53:06.999Z</time></trkpt><trkpt lat="46.06618530467107" lon="11.431723618118657"><ele>783.5714285714286</ele><time>2026-04-11T08:53:30Z</time></trkpt><trkpt lat="46.06618202014214" lon="11.431605774566657"><ele>781.2857142857143</ele><time>2026-04-11T08:56:28.999Z</time></trkpt><trkpt lat="46.06621497977126" lon="11.431522740659572"><ele>779.0</ele><time>2026-04-11T08:57:36Z</time></trkpt><trkpt lat="46.06626751697746" lon="11.43157657478442"><ele>779.0</ele><time>2026-04-11T08:57:44Z</time></trkpt><trkpt lat="46.0662165270798" lon="11.431514627785123"><ele>779.0</ele><time>2026-04-11T08:58:32Z</time></trkpt><trkpt lat="46.066141395762095" lon="11.431521271691912"><ele>779.0</ele><time>2026-04-11T08:58:44Z</time></trkpt><trkpt lat="46.06617540262127" lon="11.431633736028536"><ele>779.0</ele><time>2026-04-11T08:59:11.999Z</time></trkpt></trkseg></trk></gpx>